GFSSW_850_rhum_000.txt.gz
RH
43 42 37 33 28 23 23 22 22 20 17 22 18 20 19 14 20 20 24 23 21 14 13 13 20 19 18 13 9 8 10 14 12 11 10 8 7 8 8 14 14 20 20 32 45
44 44 41 36 30 25 24 22 22 18 20 20 21 22 14 21 21 34 25 15 15 11 11 18 17 15 13 10 8 7 10 8 5 6 6 6 6 6 8 12 12 16 26 43 49
46 45 43 37 29 25 23 21 20 18 21 22 23 17 20 22 24 22 12 15 11 9 13 18 13 11 9 8 7 6 8 6 5 6 5 5 5 5 7 9 9 13 17 40 46
47 45 42 36 28 24 22 20 19 23 22 24 22 17 21 19 23 14 14 16 9 6 14 14 10 9 8 7 6 7 6 5 5 5 5 4 5 5 6 7 8 12 16 35 37
47 46 42 34 27 23 21 20 21 22 24 26 18 19 18 22 17 13 16 14 12 11 16 11 10 9 7 6 6 7 6 6 6 6 7 8 7 8 6 8 9 11 19 29 35
45 43 39 32 25 22 21 21 21 24 26 26 15 18 14 27 15 14 15 13 11 10 9 9 8 7 6 5 6 6 6 6 7 9 9 8 8 10 9 8 8 12 17 24 31
42 40 37 31 26 23 21 21 23 27 28 23 13 14 24 21 13 12 13 13 13 13 11 10 10 7 7 8 8 8 9 9 10 11 10 10 11 10 10 10 9 9 12 17 23
35 36 33 29 24 21 21 22 25 27 26 21 10 12 28 17 15 12 12 11 11 13 12 11 11 11 11 9 8 9 9 12 10 10 11 11 14 9 10 10 10 10 10 11 18
34 30 28 25 21 21 22 23 26 28 26 17 15 17 21 14 14 13 12 11 11 14 13 12 12 9 9 9 11 11 12 12 14 10 11 11 13 10 11 12 12 11 11 11 12
39 32 28 24 22 21 22 25 29 26 22 21 22 35 14 13 14 13 12 14 13 13 12 12 11 10 10 11 16 14 11 9 9 12 9 9 10 11 12 12 12 11 10 12 12
38 32 26 23 22 21 25 26 25 26 28 18 13 14 11 10 14 12 13 13 15 13 15 10 12 18 16 13 11 10 9 9 12 12 12 11 12 12 12 12 13 13 14 14 24
37 32 28 25 23 25 30 46 35 23 19 16 16 15 15 14 12 11 13 14 12 13 10 9 16 14 12 11 12 11 12 12 12 12 12 13 12 13 14 15 15 16 18 26 29
38 31 27 25 26 27 37 45 40 20 17 17 16 15 17 15 15 15 17 11 11 12 9 19 17 14 13 15 16 14 15 22 19 15 13 13 15 16 15 16 18 20 21 24 27
41 36 27 25 28 36 40 29 26 21 21 14 14 16 16 15 16 16 17 16 10 11 13 17 15 16 16 19 20 19 20 20 18 18 19 12 20 18 17 19 20 22 23 23 24
36 38 34 28 48 34 42 19 17 32 50 15 14 18 15 18 16 17 17 15 13 14 16 20 20 20 21 22 20 24 21 20 20 20 18 16 20 22 17 21 23 24 26 27 30
35 32 32 32 50 46 29 19 17 68 52 18 15 16 16 16 16 17 16 18 20 15 17 19 18 21 22 20 19 20 22 21 21 23 42 19 22 37 23 23 24 26 29 31 31
33 31 36 45 49 26 21 24 50 52 18 19 18 17 17 19 18 17 19 21 22 24 24 20 22 21 20 24 21 19 23 42 52 53 49 24 22 32 24 23 24 26 29 35 37
30 31 32 40 38 26 27 36 48 19 18 13 16 18 21 19 21 20 20 24 21 25 20 24 38 23 20 24 25 24 25 52 54 59 40 20 20 31 24 25 26 27 29 32 37
29 30 39 29 24 25 43 83 46 18 15 16 17 21 23 21 22 23 24 24 24 25 28 29 32 22 22 21 21 28 34 22 41 50 54 23 28 26 23 24 24 26 28 29 33
33 41 39 31 20 26 54 56 24 17 13 15 20 20 23 21 22 22 24 25 26 24 19 23 36 22 20 23 24 24 21 37 44 60 51 28 26 43 30 26 23 23 24 26 31
42 32 47 24 21 36 57 37 21 18 21 16 19 20 21 22 21 24 27 27 26 25 22 24 30 28 24 29 29 28 30 28 24 41 52 52 31 21 25 24 25 26 27 29 32
39 37 37 24 32 30 39 24 22 24 25 24 21 21 23 24 26 29 31 34 30 26 32 28 33 55 25 24 23 24 27 26 60 48 63 66 48 22 24 29 29 30 34 35 40
39 49 28 28 54 80 31 26 22 22 21 23 28 26 24 29 37 30 39 37 36 36 43 34 43 55 36 35 27 26 26 25 41 57 56 81 52 24 39 31 28 28 35 42 45
40 57 34 41 44 34 33 32 34 28 28 26 27 26 28 32 29 35 43 40 39 40 37 44 30 41 48 29 23 27 23 22 25 63 55 54 36 29 32 33 30 31 40 44 45
43 37 27 72 50 29 26 25 31 35 27 27 27 26 31 37 34 35 36 39 36 36 38 35 51 43 36 27 24 24 24 24 25 30 45 39 31 27 30 31 44 48 49 50 57
42 37 38 35 31 30 40 28 26 24 28 27 28 26 27 47 31 35 28 27 33 36 34 41 75 78 64 28 27 34 28 26 24 23 26 29 31 26 41 44 49 53 56 61 62
39 37 37 45 34 38 43 30 26 31 36 24 24 31 51 36 37 37 37 34 32 38 53 80 86 71 73 58 67 80 58 29 26 24 29 46 34 37 45 47 47 56 62 64 62

GFSSW_850_rhum_003.txt.gz
RH
40 39 38 37 34 28 23 18 17 17 17 15 20 17 19 17 15 15 14 20 24 18 11 15 17 17 16 19 16 15 14 17 14 20 13 9 9 6 14 14 24 22 37 45 42
41 41 40 40 35 28 23 18 17 17 16 17 19 18 21 17 20 20 26 26 16 12 12 13 15 18 18 15 14 10 16 12 8 9 10 8 7 6 11 13 26 37 41 44 42
43 43 43 40 33 27 22 20 17 18 16 21 19 23 21 22 22 17 25 16 14 9 10 17 19 18 16 14 12 8 11 7 6 6 6 6 6 7 12 15 14 43 43 43 43
44 44 42 37 30 24 21 19 19 17 21 20 24 22 21 24 39 18 14 14 8 7 6 14 15 13 12 13 8 8 7 6 5 6 5 6 5 5 7 9 11 28 40 42 38
44 44 39 34 27 22 21 20 17 20 20 25 24 23 25 22 21 13 15 14 8 7 10 14 16 12 13 11 7 8 8 6 5 6 8 7 6 7 7 8 10 14 37 38 37
42 41 37 30 24 21 20 18 19 21 25 26 25 24 23 36 16 14 15 14 13 12 12 12 12 10 8 7 8 7 6 6 6 7 9 9 8 9 9 8 10 14 32 34 35
38 38 32 27 22 20 18 19 21 24 26 30 25 20 20 16 15 13 13 12 13 13 12 10 10 10 7 10 7 7 10 9 9 11 11 10 13 13 9 8 8 11 24 28 33
34 35 31 25 21 18 19 21 23 26 29 28 20 19 14 19 14 12 11 11 11 13 12 10 10 11 10 7 7 9 13 17 13 13 12 12 18 13 10 10 9 10 12 13 29
34 32 29 24 21 20 22 23 26 28 29 25 22 17 29 14 11 13 11 12 11 13 11 10 11 10 9 13 15 14 19 19 16 13 16 15 16 13 11 11 11 11 10 10 13
34 29 26 23 22 22 22 25 28 30 29 22 27 41 27 14 14 12 12 13 14 13 12 11 12 16 19 21 24 20 19 20 21 13 10 11 14 15 12 12 13 13 18 25 28
35 29 25 24 22 22 24 28 28 24 31 20 18 23 11 10 12 13 12 14 15 13 20 14 26 26 17 14 13 14 15 21 18 13 13 14 19 19 20 18 23 42 42 40 42
36 30 25 22 22 22 25 36 44 41 26 19 15 14 14 13 13 12 13 14 14 20 17 16 25 16 15 14 16 13 19 26 17 14 13 14 19 22 22 25 28 35 36 38 42
36 28 21 21 21 23 29 46 42 25 23 17 15 15 16 16 15 13 15 16 15 17 24 27 18 14 15 24 24 23 27 26 23 19 16 16 23 25 23 24 25 27 30 31 36
43 28 21 21 25 24 33 43 34 18 36 18 17 13 15 15 16 15 14 16 13 22 24 21 16 19 19 25 25 32 27 25 23 25 29 18 36 27 28 31 30 30 32 35 43
43 36 24 25 45 43 45 26 16 20 64 19 18 15 15 17 16 16 10 18 20 15 23 24 27 29 29 25 23 30 23 25 24 28 26 26 38 28 28 36 35 30 29 33 37
35 37 34 34 52 42 31 19 16 76 64 20 16 20 16 16 17 16 16 18 18 21 24 22 21 24 25 22 20 22 28 31 29 35 57 34 41 53 48 36 36 33 33 34 34
34 32 40 50 53 28 21 16 71 76 23 22 21 19 21 19 21 21 24 30 34 31 33 26 28 23 21 29 25 28 38 70 64 78 66 40 40 61 37 31 34 40 38 37 40
33 32 39 43 42 25 22 60 57 31 24 17 20 21 25 21 22 23 29 34 29 35 36 40 53 28 25 28 28 34 35 68 62 82 57 26 45 45 32 28 28 29 30 34 38
31 32 31 30 26 26 41 92 70 29 17 19 20 26 25 22 25 28 33 31 30 30 38 47 38 26 23 22 27 34 43 24 57 64 68 45 38 32 30 30 27 27 27 37 39
30 30 40 26 24 23 74 80 35 18 16 18 26 24 31 25 27 30 35 32 30 28 24 28 42 25 21 24 25 29 23 53 63 61 61 45 49 61 44 41 30 29 32 33 38
38 36 40 34 22 29 83 63 22 22 25 24 24 20 29 27 27 32 36 35 32 28 27 40 46 33 25 35 38 37 39 36 38 62 74 81 52 39 41 39 40 35 40 43 44
46 61 47 33 35 46 61 41 21 24 24 26 29 26 30 27 37 42 48 41 34 37 36 32 50 65 35 26 24 26 34 42 76 63 83 86 62 40 41 34 32 40 41 43 44
44 54 39 30 68 93 48 28 23 25 23 24 31 30 29 36 44 50 49 41 39 46 50 45 56 74 55 44 34 29 28 47 63 68 58 83 74 38 39 36 35 44 43 45 48
56 71 38 48 52 55 39 33 35 29 29 27 30 26 37 39 38 52 54 45 38 37 37 47 44 52 71 40 34 30 28 32 57 84 70 72 49 38 52 50 52 51 50 55 59
51 59 30 78 60 54 42 40 40 38 29 28 29 32 37 42 45 57 52 48 42 36 39 51 70 61 48 39 35 30 31 31 32 43 59 51 48 57 57 55 54 56 61 62 64
52 49 25 30 28 42 51 34 41 35 34 34 32 35 43 50 43 53 49 48 50 42 45 70 90 74 58 51 51 48 45 42 36 33 34 34 55 50 48 51 56 64 67 65 65
46 35 42 59 46 59 58 32 36 38 31 32 38 57 65 59 50 45 36 40 48 49 78 90 95 89 87 78 84 73 47 46 34 34 32 49 54 58 61 62 72 70 65 65 62

GFSSW_850_rhum_006.txt.gz
RH
34 36 36 37 36 34 28 25 19 16 15 18 16 20 20 20 25 17 10 11 20 22 17 13 17 17 20 21 18 15 19 19 14 18 16 9 11 14 25 36 34 32 42 42 44
36 37 38 38 37 34 29 24 19 17 16 16 17 22 20 24 16 15 13 22 20 21 16 14 15 19 23 19 17 16 17 15 12 13 12 9 8 12 20 33 47 47 45 40 38
38 40 40 39 37 33 28 22 18 17 17 18 22 20 26 20 23 15 23 19 16 16 11 12 14 19 21 18 15 12 12 8 8 10 8 7 7 11 17 32 44 50 43 40 37
41 41 40 40 37 32 26 21 19 18 16 20 20 26 21 25 39 17 13 14 13 14 12 12 14 22 23 21 15 8 8 6 6 6 7 8 7 9 12 16 27 34 42 42 39
41 42 42 39 36 30 24 21 19 18 18 22 26 25 23 26 20 14 16 16 15 12 9 9 17 19 16 13 9 10 8 6 7 8 7 6 6 6 10 13 27 37 42 39 37
40 41 41 36 33 26 22 19 19 19 22 26 27 25 27 37 19 16 15 14 14 14 13 14 14 13 13 13 9 8 7 6 6 9 9 8 9 9 10 17 36 39 40 37 35
37 39 38 33 27 21 20 19 20 22 26 27 29 26 25 18 17 14 14 13 13 13 13 13 11 12 10 11 7 7 9 9 8 10 10 10 13 12 9 14 38 40 39 38 35
36 38 36 29 22 20 20 21 23 25 27 30 29 24 19 18 18 13 12 12 11 14 12 11 10 11 8 8 9 11 15 15 13 14 12 11 16 13 9 11 26 36 40 37 36
37 34 32 26 22 21 22 23 25 27 30 31 25 24 17 22 16 12 11 13 11 11 8 10 12 11 10 14 17 20 17 18 16 15 14 14 17 15 9 8 10 15 28 33 41
38 32 30 22 21 22 23 24 27 30 31 27 37 33 16 17 12 10 10 13 14 13 12 12 13 21 24 21 20 19 20 21 19 16 17 17 18 18 15 20 34 34 40 45 46
38 29 25 21 21 23 24 28 31 31 31 16 18 27 20 15 13 11 9 14 15 15 19 18 24 24 17 17 16 16 19 24 19 15 14 23 31 30 42 46 48 53 56 52 51
34 28 23 21 23 23 26 38 51 46 31 18 20 23 18 13 14 12 12 15 15 19 18 25 24 17 17 22 23 21 25 26 21 17 15 26 31 35 40 44 46 51 52 53 52
30 24 22 22 22 24 28 41 40 31 36 18 17 16 16 16 14 14 15 16 17 19 23 28 20 16 23 27 28 34 30 25 23 20 20 26 32 38 34 36 40 46 47 45 47
26 22 23 22 24 24 26 46 36 34 36 18 16 14 15 16 16 15 14 16 19 27 24 21 22 24 27 27 27 36 27 26 24 27 23 21 44 33 40 42 44 50 48 47 44
30 25 24 27 49 41 43 43 27 36 52 18 18 15 16 17 16 15 13 18 20 16 27 29 29 31 30 25 24 31 24 25 25 31 31 28 44 38 38 44 46 49 49 42 39
38 31 28 31 50 40 38 22 22 74 50 22 18 18 16 17 18 15 16 20 21 24 25 25 23 24 24 25 22 22 28 40 39 44 58 38 49 52 49 42 44 46 46 40 36
36 37 43 41 47 33 23 21 67 67 29 22 22 22 20 22 22 23 30 33 37 36 34 31 30 25 24 31 29 31 48 69 63 73 65 43 59 54 40 37 44 48 43 40 40
33 38 50 41 44 30 22 52 54 38 28 19 22 26 24 24 31 30 31 37 31 36 41 44 53 30 25 27 29 32 43 67 64 72 54 41 56 48 39 40 40 38 39 40 41
33 35 35 31 29 27 34 85 68 45 21 22 24 30 27 24 29 32 33 33 31 32 40 46 40 27 23 23 30 34 38 34 59 68 64 56 42 34 34 35 33 32 34 43 46
32 33 30 29 26 23 72 80 51 26 23 22 29 29 31 27 29 36 36 34 35 32 29 33 41 27 22 29 29 24 27 52 65 56 64 54 52 56 47 42 40 49 45 47 50
32 30 29 24 26 23 79 73 35 23 26 22 27 26 30 31 32 39 42 38 40 36 32 42 41 37 36 36 37 40 41 45 50 67 72 79 58 44 49 47 53 51 48 48 50
42 60 42 38 25 64 63 47 24 25 24 29 31 33 29 35 51 54 53 47 42 43 35 40 52 64 36 27 26 28 37 49 70 58 86 85 61 37 45 45 48 49 48 52 58
48 60 57 37 49 80 56 36 26 26 26 27 32 34 34 41 57 54 53 47 33 46 47 40 55 71 58 50 39 34 33 56 62 68 58 77 60 42 47 46 49 53 61 64 62
49 74 49 47 52 54 48 35 36 30 31 30 31 33 38 43 54 57 55 48 32 36 41 49 61 54 71 48 41 30 30 49 54 78 67 70 45 57 62 64 61 64 64 63 63
57 53 31 74 61 56 47 39 38 36 30 28 31 35 40 47 54 63 54 49 42 38 44 57 62 56 43 45 40 35 37 39 41 51 60 52 56 66 65 66 65 65 64 62 61
52 53 32 31 25 49 58 48 44 37 34 34 34 43 47 55 50 62 54 52 50 44 62 75 75 73 49 63 68 48 47 48 44 36 40 65 73 60 60 66 69 67 66 65 52
49 50 23 75 50 58 64 43 47 39 34 35 52 64 66 58 50 46 48 47 48 55 81 87 91 78 72 88 79 63 44 46 39 52 39 55 69 64 72 74 70 67 64 55 47

GFSSW_850_rhum_009.txt.gz
RH
33 32 33 36 36 37 35 32 30 22 17 15 16 15 18 22 20 22 17 9 11 20 18 14 19 22 20 21 20 16 24 22 16 25 30 24 14 30 40 44 41 40 51 68 79
35 34 35 37 39 38 36 34 29 20 17 16 17 16 23 23 21 14 5 6 16 23 20 14 17 21 24 22 20 20 26 20 13 18 19 11 20 30 39 44 52 46 54 71 59
37 37 38 40 40 39 37 33 26 20 18 17 16 23 24 23 24 10 15 22 21 24 22 21 19 18 23 20 17 16 15 9 8 14 12 10 13 15 41 46 45 46 53 59 54
40 40 39 42 41 38 36 32 26 22 18 18 20 24 26 25 32 18 20 19 22 26 19 18 18 22 25 24 18 14 10 8 8 11 8 9 9 20 17 32 33 33 41 50 49
41 40 40 43 40 38 35 30 25 21 20 21 23 27 25 29 20 17 16 16 16 14 12 15 17 19 18 15 16 10 8 8 7 7 7 7 8 10 12 19 38 37 41 40 39
39 38 39 41 40 35 31 26 23 22 20 24 26 27 28 32 19 17 17 16 16 16 15 16 11 12 18 14 10 8 8 8 9 9 6 7 10 10 12 36 43 41 40 39 37
39 37 40 40 38 31 26 24 22 20 25 27 28 29 26 18 18 16 14 14 14 13 15 15 16 17 14 16 8 8 10 9 8 10 10 10 13 12 14 42 44 42 40 40 38
43 37 38 36 33 27 25 23 23 25 27 30 30 27 19 16 17 14 13 12 13 13 13 12 12 14 10 10 10 13 15 15 12 13 14 11 14 13 14 42 47 46 49 50 44
45 36 36 33 28 25 25 25 26 27 30 33 30 28 15 17 17 12 12 12 12 14 14 12 12 11 10 15 17 20 18 16 16 15 15 14 18 16 14 41 48 51 51 50 50
44 35 31 29 25 25 25 26 27 30 33 33 38 28 12 15 11 13 11 13 13 14 11 12 14 20 24 16 15 16 18 18 18 16 18 16 25 38 27 21 42 45 41 42 43
40 32 28 28 25 25 26 29 34 35 36 16 18 20 21 19 13 11 10 14 15 15 23 19 24 21 19 18 17 16 20 21 22 16 33 40 49 60 55 62 64 62 63 63 58
37 32 25 26 23 24 27 43 52 48 43 16 17 21 20 17 13 11 12 15 16 21 18 25 24 19 24 26 21 23 23 26 23 24 35 46 50 51 50 60 64 62 63 66 66
35 32 26 25 24 26 32 37 45 40 44 20 18 19 17 17 14 14 15 16 17 19 22 26 20 18 24 30 30 34 28 25 26 31 34 39 47 43 40 51 60 61 55 55 53
33 30 26 23 26 25 27 47 43 37 37 22 16 14 16 15 16 15 14 16 21 27 25 26 29 26 28 28 30 34 28 25 28 36 44 32 64 41 46 56 60 62 57 55 54
34 26 23 27 39 28 45 43 34 40 48 18 18 16 16 18 15 15 18 19 21 23 26 31 29 31 29 26 26 31 26 26 26 34 34 36 54 49 48 60 61 61 57 53 41
38 25 22 39 45 41 38 23 27 71 46 24 18 18 16 18 18 17 21 21 22 29 29 28 25 25 26 25 25 24 34 44 50 47 58 39 52 56 56 53 56 56 55 47 44
40 27 26 43 52 34 24 22 61 74 29 25 24 21 21 23 27 28 31 34 36 36 40 33 32 28 26 30 28 35 45 65 60 72 67 47 55 59 44 44 49 53 54 48 48
39 36 40 44 45 32 28 44 55 40 34 21 24 25 26 28 32 32 32 36 32 36 44 46 53 30 26 28 31 36 44 68 58 75 53 46 58 51 43 39 41 44 44 47 49
38 47 46 31 36 29 24 78 65 50 24 26 28 30 29 28 30 35 37 35 34 34 42 45 40 29 24 24 31 34 43 39 69 72 68 62 45 39 44 51 44 44 47 48 54
39 40 34 30 28 25 68 78 60 41 24 24 32 31 32 30 34 40 38 38 38 36 33 38 38 30 25 30 30 29 35 51 67 56 65 60 56 63 48 50 44 50 56 54 57
36 32 32 29 28 23 72 73 54 25 28 22 29 31 30 32 37 42 45 43 46 42 36 43 38 37 34 37 38 41 41 51 58 70 71 81 69 47 50 49 60 64 60 57 56
36 44 41 28 31 72 61 56 37 25 25 32 34 29 33 42 53 52 52 48 46 44 36 43 53 65 38 34 34 31 40 47 65 58 87 84 62 44 54 52 56 61 59 60 60
36 70 62 39 54 81 50 50 31 27 30 30 32 35 38 53 58 56 54 46 34 44 45 40 57 71 60 50 38 35 42 57 60 70 73 73 56 50 49 55 58 63 66 64 62
43 81 62 50 33 38 42 42 37 32 33 31 34 37 42 55 60 61 57 48 36 41 47 48 62 52 67 50 44 32 35 50 50 73 64 70 47 64 66 68 67 69 66 64 63
50 53 48 81 72 69 50 44 39 36 32 30 32 37 43 53 57 64 56 49 41 43 56 55 55 55 52 57 43 39 35 50 55 53 60 52 57 58 72 74 70 66 65 64 61
56 48 39 39 32 58 63 51 42 37 34 36 41 47 42 56 50 65 54 48 45 59 72 67 78 68 58 68 69 46 41 46 47 43 54 61 72 65 63 67 70 67 65 64 57
52 53 26 75 62 65 71 48 46 40 44 40 50 58 57 59 53 54 51 51 53 61 80 81 92 63 51 84 70 50 51 48 41 48 53 77 66 69 79 74 69 66 66 62 51

GFSSW_850_rhum_012.txt.gz
RH
26 29 31 33 36 37 38 38 35 31 24 16 14 16 17 16 22 18 14 12 11 22 15 13 13 18 22 23 22 17 25 23 33 39 33 24 19 36 42 49 45 46 62 63 68
30 32 35 37 38 40 40 41 37 30 24 16 17 19 20 22 21 16 9 10 10 19 19 15 20 24 24 23 22 22 28 21 17 28 37 34 22 31 46 48 51 53 68 68 72
34 35 37 38 41 42 43 42 37 30 23 19 19 20 24 24 23 10 9 14 15 17 23 21 19 21 24 22 20 20 23 14 12 27 28 18 24 24 47 49 49 58 70 79 73
36 39 38 39 42 45 44 40 36 29 22 19 20 25 26 26 30 20 19 23 21 26 23 23 20 22 26 24 19 16 14 11 9 18 18 17 17 33 36 31 34 31 47 72 54
40 40 36 38 41 45 42 38 32 26 22 21 23 27 28 29 19 21 16 17 20 21 20 19 20 19 24 24 17 16 11 9 9 14 11 11 11 28 20 31 38 49 51 55 53
39 38 34 37 41 45 39 35 28 23 21 22 28 30 31 40 19 20 17 17 17 16 18 21 14 12 20 16 15 13 8 9 11 8 8 8 10 10 13 34 43 44 44 49 48
38 40 36 37 40 41 36 32 25 23 23 28 29 32 31 17 19 18 16 14 16 16 16 17 16 16 18 15 10 8 9 10 10 11 11 10 13 12 22 46 42 44 50 57 61
45 44 36 37 38 34 31 26 24 24 27 30 34 35 20 15 16 16 14 13 13 14 14 16 18 19 20 12 13 14 16 15 11 13 14 10 12 18 45 43 49 48 49 51 52
48 45 37 36 34 31 27 24 27 28 30 34 36 35 17 15 16 14 12 12 14 14 16 17 16 17 11 16 18 20 18 15 14 14 15 13 21 40 39 52 56 54 51 51 48
48 43 35 34 31 29 28 29 29 31 34 38 41 35 12 16 15 12 12 12 15 15 16 15 15 21 24 15 20 16 17 17 16 16 35 30 63 66 47 51 60 56 54 53 53
47 41 33 33 29 30 28 32 38 42 40 19 20 20 17 19 14 14 11 14 16 15 21 20 26 24 19 18 14 17 17 19 20 21 51 63 67 69 71 67 66 66 61 58 55
44 38 30 28 27 29 30 43 55 45 45 18 16 19 18 20 17 13 12 15 16 21 19 26 25 20 25 26 25 24 27 27 29 34 52 56 58 54 56 67 70 73 73 66 60
43 33 30 27 29 29 34 39 48 48 47 24 21 20 18 16 16 13 15 16 18 20 24 27 21 23 26 30 31 33 28 27 32 43 46 48 55 55 52 64 67 70 69 66 60
42 30 34 27 32 29 29 43 49 45 38 24 17 15 17 17 17 16 16 16 22 27 28 32 29 27 29 29 31 30 29 28 41 41 51 40 73 49 55 64 66 65 60 57 57
40 30 32 29 32 31 50 38 40 44 48 19 18 16 17 18 15 18 21 18 23 26 27 32 29 31 30 27 28 32 32 29 29 37 37 42 65 54 60 68 70 66 62 56 50
37 32 35 44 44 45 36 28 33 69 48 22 19 18 19 20 20 21 22 20 23 33 34 32 27 28 27 28 26 28 37 46 52 50 56 41 53 60 69 64 65 62 61 54 53
39 33 32 45 50 34 26 28 60 73 29 26 23 19 22 30 31 29 34 38 33 38 42 35 33 30 28 31 30 41 45 65 60 72 69 49 55 52 50 54 56 59 58 58 55
45 39 32 51 46 32 26 39 47 43 37 23 26 25 29 29 32 34 33 38 34 38 47 47 50 30 26 29 34 38 44 66 57 78 60 48 60 53 45 41 44 48 52 56 56
44 44 56 44 36 30 24 67 57 52 28 28 28 30 31 30 32 37 38 37 37 35 42 46 40 29 26 27 32 37 44 43 71 70 68 65 49 46 58 57 51 50 53 58 61
44 57 42 29 29 27 58 64 60 48 28 26 30 31 34 33 36 39 39 41 38 40 36 41 38 33 27 30 33 31 39 48 68 54 64 65 60 67 59 61 58 57 55 61 66
58 44 39 30 26 25 61 62 59 43 31 24 32 34 33 33 39 44 44 44 46 43 39 39 39 38 34 39 40 41 44 56 59 70 69 81 69 53 57 55 57 56 54 59 62
51 47 44 32 34 68 56 59 46 29 29 33 32 30 33 44 51 50 48 45 46 47 38 44 55 64 38 36 40 34 40 45 62 48 87 84 62 45 56 48 48 58 59 63 63
38 67 57 34 57 82 47 48 42 29 33 32 36 36 45 55 56 56 55 46 36 42 44 42 58 73 53 43 37 36 51 57 60 73 73 79 59 56 62 62 60 66 67 67 62
37 87 71 52 30 41 38 38 40 34 34 33 41 40 50 57 62 64 58 48 41 48 51 44 60 50 60 45 47 36 46 50 48 72 65 72 43 59 64 70 72 72 68 65 63
40 66 62 87 77 50 39 42 41 37 33 32 37 39 48 56 58 63 57 49 45 50 61 50 54 53 60 62 48 40 36 55 51 49 54 49 54 46 65 71 71 68 68 66 64
51 50 49 57 52 65 64 50 44 39 39 36 39 48 43 57 46 64 55 47 39 65 69 63 70 60 62 70 68 50 44 46 51 48 60 55 59 57 63 61 70 69 67 66 64
56 46 38 74 71 74 78 54 48 44 48 45 43 55 51 55 55 55 51 56 57 63 76 71 88 57 44 76 62 50 47 50 47 49 50 63 48 76 79 75 72 68 66 63 62

GFSSW_850_rhum_015.txt.gz
RH
20 23 24 28 30 33 35 36 36 34 32 28 23 18 17 16 16 18 12 10 12 17 19 16 20 15 22 22 23 19 19 31 35 35 48 42 29 36 44 51 51 52 76 74 80
22 26 29 33 35 36 37 38 36 34 32 29 21 18 17 19 20 15 12 12 14 21 16 14 14 19 24 24 23 20 22 20 22 31 36 35 28 36 48 50 53 78 74 73 75
26 32 33 38 36 37 38 40 36 35 32 26 20 18 20 23 22 17 11 8 11 20 20 17 20 23 26 24 23 23 20 17 14 30 28 26 27 36 47 47 48 76 83 77 96
31 37 38 38 36 37 40 40 36 34 30 22 20 20 25 26 28 21 15 14 19 18 22 21 21 22 26 24 20 18 18 11 11 26 29 27 22 40 42 37 38 47 50 61 79
34 41 38 36 36 39 42 40 34 33 25 21 21 26 29 27 16 19 19 22 19 20 18 18 20 21 26 25 21 19 16 11 10 15 22 18 22 33 34 28 34 48 56 51 56
39 43 35 39 38 41 42 39 32 28 23 21 26 29 32 43 19 21 17 19 20 21 24 22 17 17 20 19 19 14 10 10 11 13 12 14 12 21 23 40 38 43 50 58 63
42 42 40 44 40 43 41 33 27 24 22 25 30 32 31 19 20 18 17 17 16 17 17 17 16 18 20 19 13 9 10 11 12 10 10 11 13 18 45 50 51 81 74 67 62
43 46 46 46 41 42 37 28 24 23 27 30 32 34 22 15 16 16 18 14 14 15 20 20 21 21 21 15 14 12 16 13 11 14 15 10 13 34 58 54 58 70 75 68 67
46 48 48 44 41 39 31 25 26 29 31 34 38 37 23 15 16 17 14 14 15 15 20 19 22 23 15 16 16 19 16 17 15 23 15 16 25 48 44 59 60 59 60 61 62
48 48 48 42 39 34 28 29 30 32 35 40 42 42 13 17 17 14 13 13 18 18 21 23 20 20 18 14 17 17 17 17 17 23 32 38 54 57 63 61 64 60 59 56 52
49 50 47 40 36 30 30 32 41 42 40 22 20 21 16 20 18 12 12 14 17 16 22 21 21 19 20 16 13 16 17 18 24 35 49 60 58 59 66 66 66 67 60 60 57
50 50 45 38 30 29 31 38 52 47 47 22 21 20 17 19 18 13 12 16 17 23 21 23 26 22 26 26 24 24 26 33 36 41 46 50 58 58 60 67 69 69 68 62 59
49 50 40 36 32 29 31 46 47 55 52 29 25 23 20 18 17 12 14 17 19 22 24 27 23 24 27 30 32 33 29 31 36 44 43 44 50 59 60 67 73 76 75 74 71
48 48 38 31 34 30 35 33 57 57 39 25 19 17 18 17 18 17 17 17 24 27 33 32 29 26 28 31 30 35 30 38 45 37 38 37 30 55 62 65 66 70 75 79 82
47 45 37 35 34 30 42 52 52 53 52 22 17 17 19 17 17 20 21 19 26 29 28 33 30 30 32 30 30 35 33 33 31 32 34 40 37 48 61 66 63 63 69 71 70
49 42 39 36 45 34 55 42 50 67 54 22 20 18 23 22 24 23 23 21 25 34 33 33 29 30 29 34 31 39 37 40 44 40 41 38 36 43 63 57 57 60 66 65 57
51 39 36 36 47 50 44 45 59 64 32 26 24 20 26 31 32 31 35 38 33 40 43 34 34 30 29 33 33 34 38 48 51 57 47 47 47 36 41 47 50 55 59 61 52
51 42 37 44 61 42 45 40 42 42 43 24 26 26 31 31 34 34 34 38 37 37 42 37 34 29 28 31 34 40 38 55 57 60 49 46 53 37 41 42 49 51 57 56 53
50 49 41 44 66 43 31 68 48 49 33 31 28 34 34 32 34 39 41 38 39 37 39 44 40 29 28 30 32 39 37 42 60 63 56 46 43 38 49 44 53 57 60 62 57
48 53 45 56 51 44 56 54 44 47 33 28 30 33 38 36 38 40 38 42 39 42 37 42 40 34 30 32 36 33 38 43 48 52 50 43 52 41 55 48 50 56 58 63 58
51 57 56 47 45 31 62 49 57 47 38 28 34 36 38 38 41 43 42 45 47 42 39 37 40 40 37 38 39 40 43 52 47 55 43 48 35 45 45 45 48 50 57 56 60
66 57 55 42 42 63 57 55 48 43 33 36 30 34 37 44 49 49 48 44 47 48 41 45 52 54 38 36 40 36 41 42 48 46 66 64 40 38 47 46 52 53 55 56 61
59 72 71 39 62 78 49 47 43 35 34 34 40 39 48 55 52 56 55 45 39 42 48 45 54 60 45 36 36 39 48 48 55 65 68 76 36 44 58 54 52 52 57 60 66
50 89 75 43 32 44 42 42 39 36 36 37 46 46 55 56 62 65 60 48 45 53 50 42 53 49 49 39 44 44 52 46 43 56 55 60 40 37 50 56 63 63 63 68 70
51 73 68 86 61 44 34 43 44 40 35 34 41 42 52 59 59 64 58 50 52 56 60 47 50 54 59 58 51 41 44 49 41 44 50 43 45 36 40 49 60 73 72 69 64
47 58 54 64 39 48 47 52 47 41 42 36 47 49 44 57 47 64 56 50 43 66 61 58 62 58 65 64 60 52 44 44 51 51 44 48 47 39 49 61 70 73 73 71 65
58 40 30 84 79 61 70 55 48 47 51 49 47 54 51 57 55 56 48 53 57 61 67 63 78 54 48 64 52 51 47 43 47 46 44 52 37 59 62 66 63 73 72 68 63

GFSSW_850_rhum_021.txt.gz
RH
18 20 22 23 22 24 24 29 31 34 35 34 31 26 20 14 14 19 23 21 17 11 20 26 22 23 16 12 10 12 11 10 13 30 35 24 24 27 28 33 35 42 44 58 79
19 21 23 24 25 27 26 28 30 36 37 34 30 24 16 15 15 17 18 14 12 11 21 20 20 16 13 11 11 9 9 9 17 29 47 20 21 22 27 26 30 45 54 76 85
19 22 26 26 28 32 28 28 31 38 38 32 26 19 16 18 42 23 22 18 12 12 20 15 14 13 12 10 11 10 12 10 13 27 24 26 24 20 28 31 29 39 52 67 81
21 24 28 30 32 34 30 29 34 38 36 29 23 17 18 23 31 26 19 9 12 19 20 14 12 13 12 11 10 12 10 10 14 20 16 16 18 20 47 66 28 39 58 73 66
23 25 29 33 37 36 32 31 36 37 33 27 19 18 22 59 32 21 14 10 13 20 20 14 14 12 11 10 10 12 11 12 17 17 14 16 16 30 36 25 31 46 62 61 62
24 27 34 37 40 38 34 33 35 34 29 23 18 21 35 38 20 28 17 13 23 24 17 14 13 11 10 10 12 11 11 10 12 15 23 15 14 26 22 26 38 49 49 45 49
24 28 39 41 43 41 34 34 33 30 24 20 18 26 56 32 22 32 23 22 21 19 17 16 16 15 14 14 14 11 11 9 10 15 16 14 12 16 25 27 34 37 37 40 40
25 32 41 42 45 40 33 32 30 26 23 21 25 31 47 27 24 29 30 26 25 24 21 22 21 19 17 16 12 11 11 13 10 13 15 15 15 17 25 25 28 30 34 39 42
26 36 42 45 47 38 32 30 27 24 23 26 34 48 32 20 18 18 22 20 26 26 23 24 24 20 19 19 13 12 13 13 12 11 14 14 14 15 24 22 26 30 37 39 41
29 38 44 47 47 37 32 29 27 28 28 30 41 66 34 17 18 17 18 20 23 26 26 23 21 20 18 16 17 13 11 9 11 13 12 9 13 13 21 22 26 28 34 38 40
31 45 46 47 45 36 32 30 45 62 36 36 27 24 17 19 18 16 16 20 23 22 19 22 20 21 14 13 11 10 10 8 9 11 9 9 13 15 18 21 24 25 29 34 39
34 49 49 48 43 37 32 55 44 60 42 24 29 25 24 22 16 13 13 16 17 19 16 19 19 14 11 11 10 9 10 12 12 12 15 11 13 14 17 19 22 24 26 30 36
37 52 50 48 45 36 26 50 57 58 46 26 25 23 18 22 14 12 12 14 15 19 18 21 19 17 14 12 12 12 11 16 14 15 14 13 16 21 21 22 28 28 28 30 35
41 54 52 49 43 53 43 31 37 46 40 21 22 20 20 18 14 13 13 14 14 16 16 36 19 17 13 14 13 17 16 14 16 18 18 14 18 18 23 26 27 32 32 34 38
46 56 52 52 87 55 62 68 58 71 47 16 14 18 16 14 12 15 16 14 15 17 17 19 18 15 15 18 18 29 18 18 16 17 19 18 16 44 25 25 27 28 33 36 42
49 58 56 54 42 60 68 74 77 67 40 18 14 15 17 14 12 14 13 14 16 14 16 39 18 16 17 19 18 18 20 19 17 14 24 14 18 23 24 20 24 30 37 43 51
52 61 56 46 57 64 68 75 56 49 17 16 15 14 14 14 13 14 14 14 15 21 20 19 17 18 18 20 19 17 19 27 27 29 28 18 19 15 10 18 18 31 40 49 50
58 66 57 54 74 69 90 54 53 22 18 12 12 13 15 13 13 13 13 14 12 17 19 22 28 19 17 19 18 19 17 26 27 27 23 21 20 13 18 16 20 30 38 46 46
67 75 66 41 40 82 68 68 40 16 14 15 14 16 17 15 15 14 14 13 13 15 20 18 23 18 19 18 16 18 24 19 27 31 33 17 11 14 22 22 23 30 36 43 41
80 78 63 46 43 81 56 50 26 18 16 14 17 16 20 18 17 15 18 16 20 22 20 17 23 19 22 20 21 22 18 26 22 32 32 14 14 11 23 22 24 28 33 38 38
89 72 44 44 47 73 55 38 21 22 21 17 15 16 16 18 16 16 16 20 20 22 21 16 18 26 25 24 18 25 23 21 22 29 33 24 16 14 14 19 23 26 30 35 36
82 58 93 50 51 51 46 29 19 23 29 20 20 15 17 17 19 17 15 15 21 21 21 18 19 29 25 22 21 22 22 22 33 27 30 42 23 15 18 19 22 25 28 32 36
72 60 99 75 62 73 35 26 21 24 24 24 19 17 16 17 21 18 18 37 34 27 21 26 23 34 30 27 24 23 20 20 20 33 28 50 23 15 18 19 20 22 26 31 34
57 62 91 84 45 42 38 27 28 26 22 21 17 20 24 25 24 28 28 35 38 29 37 30 24 27 33 26 22 30 23 20 24 35 29 26 16 14 16 16 15 21 23 28 32
48 41 47 72 51 43 31 27 25 28 26 26 27 23 23 27 29 31 29 37 39 44 32 31 35 27 24 25 24 22 19 22 22 21 30 21 14 10 10 12 13 16 23 24 32
46 35 39 44 42 37 36 28 22 23 26 30 25 20 20 26 27 26 30 32 33 38 35 32 37 39 43 29 29 27 22 18 17 18 16 15 16 11 13 13 17 18 24 27 32
65 37 37 51 45 38 36 27 22 24 39 26 22 24 27 32 36 35 33 29 27 36 39 40 51 43 33 33 34 55 37 24 17 16 18 24 17 12 17 19 20 20 26 30 34

GFSSW_850_rhum_024.txt.gz
RH
19 18 19 19 20 22 23 28 27 26 28 28 27 27 24 18 12 11 10 11 27 17 16 26 20 20 19 15 12 8 10 13 11 12 49 62 66 38 30 41 33 38 52 74 75
20 18 20 21 21 23 26 30 27 28 30 30 26 25 20 13 12 10 17 13 14 15 15 24 19 18 18 12 11 9 12 11 15 29 60 53 47 37 24 26 42 46 66 80 88
20 19 21 22 23 25 31 31 29 29 33 30 25 23 15 13 35 27 22 15 12 11 14 18 16 15 13 11 10 9 11 9 18 43 42 40 30 22 38 46 46 73 57 69 81
21 19 22 24 25 28 34 32 31 32 34 28 24 18 15 16 35 29 20 10 11 11 19 23 13 12 12 12 9 11 8 9 17 38 38 59 32 35 41 44 35 46 50 62 72
22 21 23 24 28 33 37 34 32 32 31 25 21 17 18 59 35 27 18 10 10 16 28 16 12 11 13 10 9 10 10 10 17 19 30 33 35 38 40 35 41 58 54 52 57
24 24 24 26 33 36 38 36 32 30 29 23 19 18 34 38 20 24 18 15 15 23 21 12 12 11 11 9 9 10 12 10 15 19 16 22 30 32 36 41 49 51 48 48 44
29 27 26 30 38 38 40 35 30 29 25 20 20 23 60 31 23 28 22 20 21 23 15 14 14 14 13 13 13 13 13 11 11 16 15 24 26 28 29 33 35 36 35 38 38
32 28 28 34 42 40 39 34 29 26 22 20 24 29 50 26 24 24 26 22 21 19 18 19 20 19 17 17 13 13 13 17 11 15 18 18 25 16 23 26 29 31 33 34 34
41 30 29 38 42 41 38 31 25 22 20 23 37 59 37 24 22 19 20 22 20 23 22 20 22 21 18 20 17 16 21 16 12 13 17 18 25 14 18 25 25 27 30 32 36
50 33 31 45 44 42 37 27 23 22 24 27 34 55 27 22 14 15 16 18 22 23 23 22 21 20 20 18 25 22 17 14 13 10 14 15 17 14 16 22 25 26 29 34 37
54 36 35 46 46 45 35 27 52 66 46 34 28 26 16 16 16 17 15 18 21 23 24 20 23 21 24 19 14 14 15 13 10 10 11 12 13 12 14 18 23 28 30 34 37
63 39 40 49 48 46 37 66 45 57 50 37 20 26 22 21 16 14 14 18 20 24 28 19 24 19 17 16 15 12 14 11 9 10 11 9 10 11 13 17 20 22 28 33 35
65 42 42 53 51 44 34 27 49 56 46 25 24 20 20 18 15 12 12 14 20 21 23 28 32 28 17 14 14 13 15 18 12 9 8 21 11 13 12 15 17 20 21 26 31
68 44 43 56 48 38 42 26 39 53 49 23 20 20 18 18 14 12 11 22 22 21 41 38 24 26 16 17 12 20 20 17 20 16 19 19 32 49 36 17 16 19 21 24 27
72 45 46 58 80 60 65 50 63 73 64 17 17 16 16 15 11 12 12 16 19 20 27 42 19 17 17 24 20 29 20 21 16 15 31 32 35 33 36 32 24 24 26 27 28
76 49 55 63 51 51 73 78 74 74 57 19 14 15 14 13 11 11 14 13 20 22 16 18 17 21 26 18 18 20 22 19 15 16 57 27 43 29 32 34 58 23 26 30 34
83 55 50 65 66 54 63 89 63 56 16 18 16 13 14 14 12 11 15 14 16 22 22 21 16 14 20 15 15 14 17 30 57 65 49 16 19 36 25 45 65 63 28 32 39
90 71 50 66 76 87 87 81 59 26 23 10 12 13 16 12 12 12 15 15 12 13 17 23 39 16 14 15 42 37 16 37 82 88 36 20 23 16 20 20 32 31 33 41 48
99 78 64 58 73 100 87 90 48 26 16 15 12 15 15 12 12 13 14 13 11 11 35 49 36 28 16 14 15 17 21 17 36 41 40 21 12 11 17 18 16 30 36 44 46
95 99 60 56 63 97 89 66 36 20 15 12 15 13 17 14 16 14 14 12 13 17 32 73 84 38 19 17 16 18 14 29 24 38 38 21 16 19 23 19 20 26 34 41 44
94 81 52 58 67 89 78 55 35 21 15 16 14 14 14 17 14 14 13 11 18 18 18 19 36 24 22 22 16 23 24 18 17 34 55 50 23 15 16 16 20 22 32 36 41
80 66 52 59 64 48 63 39 28 24 17 20 16 13 15 15 16 15 14 14 14 14 21 16 19 40 21 16 17 18 23 19 58 38 50 61 36 14 16 15 18 19 22 33 37
71 63 80 56 57 68 49 38 28 25 21 24 21 17 13 16 19 16 15 31 27 22 24 23 26 41 27 22 21 23 19 16 22 44 49 70 39 15 15 15 15 18 21 27 33
58 74 100 91 38 46 52 38 32 24 18 20 20 16 16 17 15 19 20 33 32 27 32 30 24 26 43 26 24 30 23 17 21 62 50 42 20 14 15 16 14 17 19 22 28
59 55 69 93 70 46 44 34 31 27 19 20 20 16 22 26 21 26 21 36 35 40 30 28 34 26 22 20 23 26 22 18 20 23 37 31 20 14 12 14 12 13 17 20 20
64 47 54 48 51 50 51 43 29 22 24 26 25 18 21 25 22 26 23 34 34 38 31 29 44 42 46 29 26 28 23 21 18 16 17 16 17 12 11 16 17 16 16 19 21
75 56 45 51 52 53 52 39 31 24 22 20 22 22 23 26 27 34 33 27 25 38 40 42 64 61 49 34 36 49 40 25 20 17 17 25 20 14 14 14 18 20 20 21 25

GFSSW_850_rhum_027.txt.gz
RH
24 18 18 18 19 20 21 22 25 26 24 24 28 28 24 18 11 9 6 9 9 14 11 15 22 11 17 20 19 15 19 17 14 37 54 58 56 49 44 52 47 65 66 82 74
26 21 18 19 20 22 23 25 27 27 24 27 29 27 21 13 10 18 23 18 13 13 10 15 26 20 19 18 17 16 20 16 28 46 53 53 51 44 56 42 75 70 84 73 94
27 24 19 20 21 22 25 28 30 28 25 28 28 23 15 12 36 29 23 19 11 11 9 18 23 19 18 18 17 13 16 12 33 35 42 45 39 43 46 50 58 79 76 75 95
33 24 20 21 22 24 26 31 31 28 27 29 26 18 14 16 37 27 19 13 11 10 13 19 20 21 16 17 12 14 12 10 31 39 39 62 40 36 32 50 60 44 65 69 90
41 23 22 22 23 26 29 33 33 28 27 28 23 16 15 38 29 26 18 13 10 12 18 20 23 16 16 14 13 14 12 12 24 38 42 38 43 41 34 48 65 51 64 64 73
48 28 25 24 25 28 32 35 34 28 26 24 20 18 24 56 28 26 18 16 11 15 16 20 19 12 12 14 18 10 10 13 20 43 42 47 44 36 34 44 57 59 59 63 63
52 38 26 24 25 32 36 38 32 26 24 22 20 23 29 12 25 28 27 18 19 18 19 19 18 18 19 22 17 14 15 12 17 22 34 31 46 45 28 40 51 52 51 54 47
62 45 30 26 26 35 40 39 30 24 22 21 24 31 25 18 21 24 27 23 20 19 19 18 21 20 19 18 19 16 16 20 13 21 23 19 30 44 33 35 48 45 40 41 39
79 51 34 26 28 40 42 36 27 21 22 23 36 78 45 29 22 17 23 25 23 22 21 20 21 22 21 28 31 19 24 22 19 17 20 21 26 42 37 43 40 36 35 36 38
92 60 41 27 31 42 42 31 22 21 27 27 32 57 24 23 16 15 17 20 20 24 24 23 22 29 29 31 32 23 23 23 21 20 21 22 22 22 28 30 35 34 35 35 36
99 68 49 28 33 46 44 32 58 64 46 22 27 23 22 21 17 17 16 18 20 25 34 27 32 36 28 24 23 23 22 21 16 14 23 24 22 22 20 29 34 33 38 37 36
100 78 55 30 38 47 48 33 56 58 62 45 45 29 25 24 20 16 16 19 22 35 30 35 31 24 22 21 26 24 23 22 15 14 16 17 18 19 19 24 36 26 34 38 39
94 86 59 32 43 48 44 28 40 50 64 42 30 28 19 21 20 17 14 16 23 31 32 37 35 26 22 29 32 26 30 25 18 11 10 17 25 30 20 17 34 30 33 37 38
99 92 65 37 49 67 49 33 21 50 84 38 31 25 19 19 20 14 14 19 22 34 46 43 30 27 28 33 20 22 23 24 20 26 22 24 37 39 32 21 22 25 33 36 38
91 96 70 40 61 67 77 65 62 70 94 28 24 19 18 19 17 13 15 19 24 34 36 40 35 33 34 33 20 28 21 23 25 27 30 34 39 39 31 24 29 34 27 33 37
92 98 82 42 54 54 72 73 68 88 90 27 21 20 21 18 17 15 13 16 19 32 33 33 22 27 28 24 18 22 22 27 33 37 56 31 40 45 49 30 37 33 23 26 38
93 99 80 44 54 74 55 81 95 96 28 24 22 20 21 20 18 15 19 20 30 32 36 22 21 25 24 26 25 29 33 50 58 77 70 39 42 42 37 32 32 30 25 28 36
98 100 82 46 66 87 75 93 99 44 36 19 20 21 22 19 19 17 20 23 21 22 30 35 42 35 29 24 28 25 34 65 72 83 64 38 45 33 26 25 27 23 28 28 43
100 100 98 44 56 96 99 96 77 46 24 25 16 22 22 18 16 18 22 23 20 18 34 48 42 40 34 27 24 23 30 33 66 68 76 48 20 24 30 39 46 39 35 44 45
100 100 94 47 56 95 98 82 62 34 24 22 28 20 24 21 20 21 22 18 19 25 40 60 50 51 46 31 24 21 24 39 52 51 53 33 27 43 32 29 42 51 48 48 50
100 100 85 61 65 98 87 74 57 37 28 28 24 22 21 23 20 21 21 16 18 38 42 54 56 56 44 42 32 29 29 24 32 57 64 74 44 19 23 28 35 45 45 47 49
99 93 63 49 96 82 85 63 47 37 34 30 22 22 23 23 26 22 23 28 18 22 31 52 53 70 42 26 21 21 29 43 65 39 70 76 53 20 18 22 23 25 42 44 46
95 81 80 46 72 84 54 59 53 45 41 31 27 24 22 25 41 24 41 36 28 33 32 34 37 62 41 33 29 27 25 24 41 64 54 68 53 20 17 16 17 20 22 41 43
88 91 99 93 41 56 56 54 61 43 41 31 29 28 30 25 23 33 46 37 34 39 30 33 35 43 56 40 32 33 36 32 32 71 60 65 39 27 23 23 20 17 19 29 38
88 68 74 92 90 54 51 50 57 54 36 28 32 31 31 26 25 28 47 46 38 36 31 39 42 32 38 38 33 29 32 30 29 38 50 43 37 30 19 22 20 20 19 18 24
89 57 71 75 70 72 54 57 52 42 36 35 36 30 28 30 35 35 42 45 44 43 37 37 60 44 43 37 35 34 33 30 29 28 23 25 29 20 19 19 19 19 19 22 22
93 54 57 74 75 72 55 51 51 39 33 24 33 34 34 36 33 37 29 33 41 52 51 52 68 67 54 46 39 45 30 32 32 27 25 30 28 32 32 29 24 23 24 25 25

GFSSW_850_rhum_030.txt.gz
RH
26 24 24 20 19 19 18 20 21 23 24 24 26 28 23 17 10 9 19 18 10 12 9 9 18 11 15 24 21 20 23 25 18 24 54 56 58 54 56 58 85 78 82 99 100
28 26 23 22 19 20 20 21 23 27 25 26 27 26 21 12 16 26 24 22 15 12 11 10 24 23 13 19 19 20 25 20 16 42 54 53 57 50 47 84 96 99 83 79 95
37 31 22 23 20 20 20 24 26 28 26 26 25 24 18 10 26 30 20 18 10 11 10 12 22 25 22 19 19 18 21 16 18 42 41 48 48 51 52 64 80 86 92 75 80
48 36 23 22 20 20 22 26 31 30 27 25 24 20 14 12 36 26 18 13 8 9 13 16 21 25 21 20 16 16 14 13 26 41 43 47 42 36 46 50 52 68 73 87 75
77 43 28 21 21 21 22 29 34 31 26 24 22 18 14 24 22 26 17 13 8 11 18 18 24 25 18 15 14 17 15 17 31 36 38 38 49 46 62 59 62 72 96 87 75
86 65 37 21 22 22 24 31 34 31 26 23 20 18 18 44 30 28 22 15 11 17 18 22 21 21 17 18 19 19 15 33 37 40 40 38 43 41 63 61 80 83 85 70 70
89 84 47 28 23 23 27 34 35 30 24 22 19 19 19 10 26 24 27 18 16 16 18 18 19 23 19 22 19 20 16 27 44 45 45 36 40 38 54 64 68 65 71 76 60
83 92 63 38 25 24 28 36 34 28 23 22 22 27 16 16 24 23 26 26 22 20 19 19 21 21 18 20 22 21 20 23 37 40 38 26 35 37 47 58 62 67 65 72 70
79 94 82 44 28 24 29 38 32 26 22 23 27 55 25 22 21 21 23 24 26 23 22 22 22 22 22 29 33 26 24 21 25 25 28 25 32 37 40 48 54 56 60 68 68
85 80 91 54 32 24 31 38 31 31 30 28 31 43 17 25 22 16 20 23 24 23 25 24 22 31 33 34 34 28 27 23 22 18 23 25 29 40 41 42 48 49 50 52 72
78 83 95 65 38 25 32 38 48 65 58 26 22 18 21 23 20 19 16 19 22 24 33 31 35 37 30 30 24 23 27 30 24 17 24 26 27 45 46 47 47 42 41 43 47
76 85 100 76 42 26 41 42 58 53 61 44 40 51 28 28 27 18 17 19 24 34 35 36 37 27 25 25 29 31 32 32 25 19 24 26 24 34 35 40 44 41 40 40 45
69 86 83 87 42 30 44 47 48 42 60 44 32 26 21 22 23 20 17 19 28 31 36 38 31 28 25 26 30 31 34 32 29 19 15 22 32 27 22 36 40 40 36 37 37
68 86 73 87 40 36 72 67 29 29 82 56 42 27 23 17 23 18 16 18 24 37 38 35 30 27 30 30 31 35 26 27 26 29 24 25 43 37 30 30 43 39 42 41 39
73 93 84 88 42 64 76 76 60 68 66 33 39 22 14 20 18 16 16 19 28 36 34 32 34 28 32 31 28 35 22 23 26 34 33 31 34 33 35 24 38 32 32 41 43
81 100 90 88 42 47 72 80 72 86 84 40 26 26 24 22 21 17 19 18 19 35 34 29 28 28 30 27 27 24 25 36 45 46 55 42 38 40 41 30 23 27 27 30 42
78 100 95 89 53 32 62 72 92 91 38 33 29 25 26 27 25 21 18 24 31 36 41 34 29 24 25 26 26 26 34 49 49 70 60 43 43 38 34 33 32 30 26 29 39
100 99 100 94 58 58 66 93 93 58 55 26 26 26 29 25 25 21 23 25 24 28 38 38 44 36 32 27 31 31 34 59 53 70 53 43 51 39 28 26 26 26 30 31 40
99 97 100 84 59 80 92 97 76 67 32 28 24 30 29 23 21 23 26 26 22 24 30 47 42 42 41 31 31 30 32 34 66 74 73 56 32 28 35 37 36 41 34 33 46
95 100 96 98 80 80 98 76 67 51 36 30 29 27 31 25 25 24 28 24 23 22 32 45 41 43 40 28 28 30 25 36 57 56 58 40 36 43 31 29 37 48 40 41 54
99 99 90 99 90 86 92 74 58 46 47 40 34 30 26 27 26 28 23 19 24 43 38 53 37 42 37 41 35 33 31 30 40 56 57 69 46 26 30 32 44 48 36 43 54
100 94 84 86 84 87 83 64 50 49 44 49 37 40 29 28 28 26 27 21 24 38 37 48 54 71 41 31 33 31 33 42 62 37 76 77 49 28 26 30 38 36 35 47 51
93 88 84 82 85 84 66 62 57 49 48 46 41 32 24 34 32 35 32 35 35 35 38 43 46 62 44 32 30 32 29 33 50 64 58 69 52 25 23 20 24 32 38 44 50
93 94 97 97 65 54 71 73 69 48 52 51 50 42 32 34 34 37 43 38 40 38 34 31 42 42 54 34 33 34 35 36 43 71 61 65 39 32 28 26 20 21 24 39 46
95 74 71 91 88 56 55 59 65 54 48 41 46 48 45 36 42 39 49 43 43 34 34 37 40 36 36 39 36 32 36 34 36 41 50 41 44 32 24 23 23 18 22 29 44
90 74 68 79 69 72 57 55 51 43 45 42 50 45 42 33 35 44 50 49 41 42 35 44 51 46 41 42 36 32 32 34 33 30 40 33 34 33 26 25 26 23 24 26 29
98 73 64 70 76 81 64 53 43 40 44 38 40 42 43 36 31 28 29 33 43 49 54 54 69 66 55 49 37 53 38 32 32 30 29 37 33 33 39 36 30 29 27 29 33

GFSSW_850_rhum_033.txt.gz
RH
23 18 21 21 21 18 17 17 20 22 24 24 23 21 21 16 10 17 24 23 20 9 10 10 23 12 16 25 24 21 29 27 21 23 45 55 56 66 74 78 98 93 94 97 100
32 25 20 21 21 19 18 18 22 24 27 23 23 20 18 12 17 27 24 21 24 15 12 13 26 16 13 19 21 23 28 22 18 28 53 57 57 56 76 95 99 99 99 99 99
60 37 28 22 20 20 19 20 24 26 27 24 22 20 16 10 21 27 24 16 19 14 13 15 25 24 24 20 20 20 24 19 15 33 44 53 58 51 75 83 95 97 100 99 100
80 70 41 27 21 21 20 22 26 29 27 23 22 19 14 10 33 20 19 14 11 11 14 18 21 24 24 22 19 20 17 15 15 39 44 50 47 46 56 60 84 95 72 71 100
88 82 71 35 24 22 22 23 27 31 27 23 22 18 14 15 22 26 19 13 10 11 16 20 23 25 23 17 16 18 16 15 15 41 42 44 45 62 87 70 74 69 62 60 79
89 85 83 60 31 23 23 24 29 34 27 23 21 18 18 23 29 28 21 14 10 14 18 20 20 22 25 21 22 20 22 41 40 43 43 50 57 51 82 81 72 73 51 45 52
62 81 84 82 41 26 24 24 32 36 27 23 21 18 18 6 28 26 25 18 15 16 18 20 20 22 22 23 20 22 26 42 45 46 44 41 44 62 76 91 97 74 60 52 62
75 53 66 86 61 32 25 24 33 38 27 22 21 20 14 10 23 21 26 24 21 21 21 21 24 22 23 21 23 22 22 33 40 44 37 29 42 46 72 89 97 96 88 76 70
71 62 63 86 80 38 25 24 33 36 26 23 22 25 15 18 17 19 22 25 26 26 22 22 24 23 24 29 31 29 24 25 38 36 37 31 35 44 66 77 83 98 79 69 70
56 68 63 70 84 48 25 26 34 30 40 42 29 26 12 26 25 25 20 23 24 25 24 25 24 33 36 33 37 30 29 27 25 18 36 44 32 48 58 70 73 77 72 66 64
64 72 68 77 82 56 25 33 42 63 59 37 19 12 13 22 22 16 18 20 23 26 33 33 37 38 31 31 27 29 33 35 28 23 25 34 30 46 50 53 61 63 72 72 60
39 76 82 69 88 62 28 42 60 60 56 38 35 44 36 39 41 21 19 20 25 32 36 36 38 30 30 28 30 31 33 32 31 23 25 30 27 42 54 49 52 53 58 67 65
28 70 95 69 90 68 31 65 67 50 50 38 36 29 24 27 33 22 20 19 27 34 36 37 29 28 25 25 29 30 33 36 34 24 22 28 29 28 29 44 46 51 47 56 53
18 80 100 95 80 69 55 75 39 35 72 57 57 32 28 24 24 21 18 18 27 35 41 36 32 30 30 31 30 37 29 33 29 28 22 25 38 36 33 41 47 47 48 50 47
16 84 100 100 64 41 77 73 49 67 51 24 46 26 18 20 20 22 19 19 29 38 35 33 38 32 31 28 31 34 30 30 27 35 34 35 36 34 36 37 45 47 45 46 46
37 94 100 100 94 49 78 73 71 74 57 40 35 34 26 22 22 18 19 19 21 35 36 31 29 27 26 26 31 27 27 37 48 46 55 41 39 40 40 32 32 42 42 44 45
45 99 99 99 93 70 51 76 89 89 32 39 34 32 29 31 26 22 22 28 36 39 38 32 29 27 28 26 28 30 35 46 46 66 58 43 43 40 28 31 31 38 38 36 41
84 99 97 100 96 72 52 89 93 64 61 42 29 32 30 29 29 26 25 27 24 31 45 42 39 32 32 28 32 33 33 54 49 65 46 47 57 38 30 30 28 26 23 26 29
93 95 96 95 100 72 89 98 77 63 46 28 28 35 34 28 27 24 28 28 25 29 33 44 38 38 39 31 28 31 36 35 65 75 71 55 42 29 31 33 47 40 33 33 31
96 95 98 90 100 87 95 76 65 55 50 51 36 33 41 33 30 30 32 26 24 27 26 36 35 38 39 33 30 29 32 38 57 50 58 49 40 43 32 28 36 54 41 38 35
98 98 84 88 99 93 90 75 61 46 46 55 43 34 33 32 30 31 28 22 26 36 29 50 34 36 42 40 36 34 34 36 43 59 58 67 50 32 32 29 29 34 36 38 44
100 94 80 88 97 79 79 66 51 47 46 54 52 50 36 32 33 31 29 21 19 40 37 46 49 65 41 34 33 31 31 40 64 43 79 79 53 28 26 30 31 28 26 31 38
93 88 86 82 89 88 68 62 53 46 53 54 54 45 34 36 31 33 32 35 34 36 45 47 50 64 46 37 33 32 36 45 53 65 61 70 51 28 28 24 20 29 24 30 35
89 95 98 97 73 68 72 72 73 54 53 53 56 50 43 35 35 45 45 40 41 38 32 33 46 46 57 42 36 36 35 39 46 73 60 67 41 30 28 31 25 19 24 30 36
92 76 74 94 89 76 61 61 69 62 56 48 57 59 56 51 38 44 49 46 43 40 40 40 42 35 34 30 40 36 36 44 44 44 52 44 50 38 27 26 25 22 23 25 37
91 90 72 79 69 74 68 64 66 59 61 58 47 46 44 58 44 43 49 49 44 41 39 46 51 42 43 42 39 37 36 36 40 36 45 40 39 34 30 31 33 29 28 35 42
98 89 82 70 72 76 68 63 56 54 54 42 46 50 58 52 39 30 35 32 38 47 51 51 66 66 53 50 41 58 43 38 34 36 36 39 34 33 38 38 40 36 33 35 35

GFSSW_850_rhum_036.txt.gz
RH
42 30 25 20 21 20 19 17 18 18 21 22 20 18 16 13 11 24 27 23 23 11 10 12 22 14 16 27 26 20 33 30 22 22 23 57 59 67 81 82 93 90 84 88 99
70 58 39 28 23 20 19 18 18 21 23 24 19 19 16 11 18 28 28 19 20 17 12 14 23 16 18 20 22 26 31 25 21 17 44 60 53 63 77 91 97 99 99 100 99
87 81 74 49 28 21 20 19 19 22 24 25 19 19 15 10 20 27 26 18 17 17 11 24 25 23 23 20 22 24 27 22 18 16 40 57 56 58 88 90 92 99 99 100 100
93 92 84 80 48 27 21 21 21 23 26 25 20 19 14 9 31 25 21 15 12 12 13 20 22 24 25 24 21 22 20 18 16 30 49 53 51 62 62 69 79 90 93 99 99
75 97 91 86 79 40 23 22 22 25 29 27 21 19 15 10 19 29 20 13 11 11 18 20 23 25 24 21 18 20 17 19 21 42 48 45 52 68 94 82 74 84 99 98 98
86 62 94 84 85 67 31 23 22 27 31 29 22 20 18 14 29 29 21 14 11 16 18 21 22 24 26 25 24 21 27 38 46 48 48 64 66 57 94 83 78 83 99 86 71
87 85 56 74 81 82 45 26 23 26 32 30 24 21 18 8 26 28 23 19 14 17 18 21 23 24 24 25 23 24 33 38 46 46 47 44 45 72 96 73 64 77 82 69 48
59 86 85 71 65 84 65 30 22 26 32 32 24 23 14 7 20 25 24 24 20 19 19 21 23 25 25 23 24 22 22 30 40 44 45 38 49 75 90 67 76 65 71 77 59
16 68 90 80 66 84 79 36 22 24 31 29 27 25 14 14 12 20 22 25 26 27 26 23 24 25 25 30 30 32 27 29 43 42 41 36 48 67 89 77 79 75 67 64 70
5 33 75 78 79 77 80 38 23 28 33 38 47 37 10 23 26 23 21 22 24 24 26 27 26 34 38 32 37 32 31 31 29 25 41 46 37 67 84 88 88 71 81 73 68
5 23 55 84 71 96 80 31 35 52 62 43 21 15 10 22 25 21 21 19 22 27 33 35 37 38 33 32 28 31 33 35 32 25 28 42 46 59 73 79 82 84 81 78 61
6 8 77 72 100 100 91 33 51 56 67 36 35 41 37 38 42 24 22 21 27 35 36 37 41 32 31 32 30 31 33 35 31 24 28 33 40 55 66 70 76 75 72 66 60
7 8 60 82 100 98 94 37 64 71 64 38 33 36 26 30 33 26 21 22 27 34 36 40 29 29 26 28 27 32 32 35 35 30 24 29 32 56 48 57 60 66 63 64 67
17 14 85 95 99 93 82 68 68 54 65 51 56 38 32 28 29 22 21 20 30 33 41 38 33 31 31 30 30 34 31 34 36 30 27 28 33 37 45 56 53 53 60 58 52
58 26 92 97 85 64 73 74 54 56 47 26 53 34 32 24 22 22 21 21 32 37 37 38 33 36 33 31 30 34 30 33 30 35 35 36 36 31 40 44 51 47 48 51 48
99 55 94 96 99 69 82 77 72 72 56 29 41 42 31 24 23 23 22 21 23 38 39 33 32 30 29 27 31 28 30 35 46 48 54 39 42 43 48 36 36 40 44 44 47
99 85 98 99 98 68 84 77 97 86 29 36 45 36 30 32 28 24 31 34 36 40 40 32 31 27 28 28 30 31 36 47 44 65 60 43 48 45 30 29 34 35 36 39 42
99 94 94 100 99 96 82 95 97 62 53 44 34 36 32 30 28 28 29 35 29 33 47 44 41 35 30 29 32 32 35 55 43 65 44 46 51 34 29 33 35 32 27 32 38
93 99 88 94 98 100 90 98 75 63 49 36 31 38 35 29 30 27 32 34 32 34 35 45 36 35 37 32 28 34 38 36 66 77 70 54 43 27 31 44 44 37 32 32 38
92 96 88 91 98 100 98 81 66 51 53 53 42 37 45 37 31 34 35 29 26 32 28 38 32 35 34 36 32 30 37 43 56 49 53 50 42 39 31 29 44 46 40 34 34
95 97 79 92 98 99 95 78 60 48 48 57 56 45 39 39 36 38 36 25 26 29 28 41 30 31 42 39 36 38 38 44 46 59 57 64 48 36 31 33 32 34 35 35 34
100 95 71 78 96 83 84 68 51 53 48 54 56 59 43 37 36 35 33 27 21 37 36 41 45 52 38 35 33 35 38 44 64 45 79 77 57 29 29 28 27 24 25 28 33
93 83 93 76 90 84 66 62 60 53 55 58 61 53 42 37 31 36 34 24 27 36 43 47 48 61 46 37 34 36 38 45 55 66 64 71 52 29 32 28 22 23 20 27 31
99 92 97 99 65 67 67 70 65 51 52 48 60 54 46 44 42 36 34 43 39 34 32 33 51 45 50 40 38 37 40 50 48 72 63 66 42 33 31 32 28 20 21 20 28
100 78 79 91 87 75 63 62 69 60 51 55 61 63 51 52 41 45 48 50 44 46 44 38 41 44 37 32 36 36 35 49 46 46 52 46 51 39 37 30 28 25 23 24 26
100 85 66 80 69 76 79 67 68 61 62 57 64 57 62 63 47 43 51 52 46 48 47 47 46 39 46 43 42 42 40 42 47 43 47 44 44 38 33 34 36 30 36 44 50
97 80 84 64 74 79 72 64 61 58 52 53 48 46 62 48 39 37 36 43 49 52 58 52 68 62 51 50 41 59 48 42 41 41 41 49 43 38 38 41 44 43 43 44 43

GFSSW_850_rhum_042.txt.gz
RH
100 100 98 85 78 71 46 26 20 19 19 18 22 21 16 13 11 25 30 22 20 10 14 14 26 25 22 20 21 19 15 14 15 15 14 32 29 56 63 52 64 78 77 91 95
96 99 99 99 96 85 79 45 25 21 20 19 23 23 16 13 12 28 26 20 18 14 14 22 19 18 15 18 18 16 15 14 12 12 14 20 30 42 54 52 55 85 98 97 99
73 82 82 98 99 98 91 79 42 24 21 20 23 23 16 13 11 30 25 17 16 13 12 25 17 16 15 17 17 16 16 14 14 14 15 24 37 46 43 40 48 65 100 100 100
46 53 70 71 70 99 92 85 72 36 23 21 22 25 17 13 16 23 27 16 15 12 22 26 24 20 17 16 17 18 16 16 16 24 26 35 46 48 49 65 72 91 99 99 100
10 34 51 63 72 68 76 80 78 59 29 23 22 28 20 28 13 22 23 11 14 12 25 23 23 20 16 17 18 19 16 19 27 29 38 42 38 49 73 84 90 99 100 100 100
6 6 16 49 59 67 57 62 70 76 42 25 23 28 31 22 10 30 18 11 13 17 22 24 23 24 21 20 19 19 20 30 35 37 35 35 41 46 74 75 76 85 92 99 96
5 4 5 10 48 64 62 44 58 73 61 31 24 30 36 21 9 31 18 14 14 23 21 22 26 24 23 19 22 20 22 27 30 35 34 37 33 48 66 67 72 71 85 98 90
10 5 5 5 18 62 66 52 50 66 70 38 26 38 39 14 10 26 24 18 16 18 20 22 22 25 24 23 18 18 18 21 20 32 34 35 31 48 61 58 61 65 63 87 99
12 15 6 6 12 46 53 45 54 52 65 35 32 40 29 14 12 14 28 28 24 21 23 23 26 24 23 18 17 18 18 19 20 29 30 30 26 38 59 51 48 54 57 66 92
21 12 16 7 12 28 39 41 45 48 46 41 53 53 25 17 26 20 23 25 29 30 29 27 26 22 18 16 19 18 19 19 21 24 31 29 27 32 50 48 41 46 49 57 74
76 26 10 10 9 29 54 59 68 66 58 51 44 37 16 24 30 32 26 28 30 26 25 28 25 20 15 14 17 19 17 18 18 18 22 21 22 24 41 50 44 42 47 55 53
99 84 36 11 12 44 84 90 80 66 59 52 33 42 36 27 33 32 28 28 27 25 25 28 26 21 23 22 23 23 20 20 21 20 21 16 18 20 30 44 44 41 44 47 50
100 98 90 35 22 55 77 92 87 89 66 49 40 38 38 34 30 22 28 23 22 23 25 25 22 24 24 24 26 24 23 23 23 23 20 22 20 24 30 40 46 46 40 43 46
98 99 99 69 50 68 80 59 75 61 55 30 36 35 38 33 29 24 26 21 22 23 22 24 22 24 24 23 23 24 20 22 25 25 22 22 22 20 22 33 37 39 44 37 42
94 97 99 76 100 95 89 68 71 85 42 23 40 44 46 27 20 24 24 23 21 23 25 24 25 27 24 21 22 22 23 24 25 23 24 22 19 17 22 20 23 30 36 37 34
100 92 98 93 98 88 82 76 84 65 41 22 38 43 42 34 20 23 25 24 20 21 25 20 25 22 21 22 21 24 25 26 28 25 30 22 22 18 16 14 14 18 26 34 38
95 98 93 99 87 88 92 93 63 54 24 20 37 40 33 28 23 22 22 26 24 30 30 25 24 20 23 25 25 24 26 34 33 34 33 28 27 18 15 17 18 18 19 26 33
71 100 93 98 99 88 97 94 56 18 25 26 33 36 34 21 22 22 22 24 20 19 21 27 29 22 21 23 22 24 24 32 37 36 27 31 27 18 17 19 21 25 27 28 26
62 99 96 84 98 99 99 87 32 25 29 28 28 39 35 24 20 25 23 21 20 20 22 25 23 22 23 22 20 27 30 23 34 46 34 22 19 15 17 18 19 21 27 27 27
68 91 98 78 84 100 94 64 28 21 29 34 31 35 39 27 27 25 25 19 20 18 15 24 29 26 30 27 28 26 23 32 29 40 38 25 24 17 16 14 16 15 17 24 31
76 98 98 76 84 100 89 54 31 30 34 42 37 30 34 31 26 25 23 22 19 22 17 19 24 33 32 30 24 30 29 28 26 30 35 35 24 15 15 15 18 17 19 22 26
98 99 96 78 98 89 79 49 30 32 39 40 43 48 39 34 30 26 23 20 19 18 26 21 24 34 25 25 24 19 22 25 33 31 36 43 29 14 15 18 18 18 21 25 30
95 99 90 82 92 92 60 51 36 37 34 44 46 43 43 42 36 26 23 19 21 21 21 26 28 35 30 28 27 25 23 22 28 37 36 51 31 18 19 20 19 20 20 23 29
93 99 100 98 54 57 58 53 47 38 31 40 40 44 47 47 37 33 26 30 28 21 22 26 24 28 31 23 18 29 25 24 28 39 33 36 24 18 17 17 16 18 23 24 24
98 89 93 94 81 48 48 41 45 47 39 39 46 46 46 50 44 40 31 37 38 38 26 27 28 25 20 16 16 17 18 26 28 28 30 27 22 19 15 16 14 25 26 32 38
98 82 78 56 63 58 54 54 41 41 39 39 45 45 44 43 38 42 46 43 29 43 31 27 27 30 30 23 23 22 20 18 23 21 24 24 22 15 17 22 24 27 34 42 52
99 74 56 51 58 62 60 53 47 39 36 29 32 34 47 42 43 47 47 43 36 42 41 38 34 37 32 30 30 46 35 24 23 26 26 27 20 16 19 23 25 32 41 49 58

GFSSW_850_rhum_045.txt.gz
RH
90 99 99 100 89 76 73 69 49 22 19 18 20 21 20 14 11 21 27 28 21 13 12 26 24 20 18 14 14 12 12 12 11 13 13 15 20 27 38 37 46 54 69 94 80
61 64 86 97 99 84 70 70 69 47 22 18 18 20 22 15 11 27 30 21 16 13 17 18 15 15 13 13 12 12 12 12 10 11 12 14 20 28 39 28 36 78 95 99 96
44 43 61 72 75 62 67 62 70 66 42 21 18 19 21 16 25 18 29 19 15 13 22 14 15 12 12 12 12 12 14 11 11 15 15 16 21 31 31 41 88 53 100 98 100
8 15 30 53 65 56 56 45 60 61 62 36 19 18 20 17 17 30 22 20 14 10 23 19 14 14 12 12 13 14 12 12 12 14 18 24 26 32 32 52 65 83 98 99 99
6 5 9 16 42 56 61 52 34 58 53 54 27 20 19 37 20 18 20 18 12 12 23 20 17 16 13 10 13 14 13 15 19 20 25 30 27 38 55 68 86 98 100 99 99
5 5 5 7 8 27 45 62 41 50 55 54 46 21 47 35 20 20 29 13 24 24 22 18 18 17 16 13 13 14 14 20 21 22 25 26 28 35 52 54 73 81 96 92 99
6 7 5 5 5 6 18 43 54 43 46 52 61 30 51 29 24 31 25 24 22 22 19 18 20 19 17 14 14 14 16 18 20 21 22 28 55 30 47 49 49 61 88 94 99
20 9 6 6 5 4 11 31 43 53 44 50 65 31 43 26 21 29 31 23 23 23 21 21 22 21 19 16 14 13 13 27 16 19 22 41 87 32 41 44 44 42 65 82 86
52 23 11 7 6 4 5 20 27 40 44 44 58 59 32 27 17 20 32 21 21 22 22 22 22 18 17 16 15 13 19 25 23 16 26 21 51 31 35 35 40 38 51 70 67
98 65 27 9 7 5 5 14 28 29 44 41 67 57 36 20 16 15 30 24 23 23 24 26 21 18 15 13 17 14 15 15 24 56 18 20 25 27 34 30 35 36 43 61 57
99 100 79 22 9 7 6 65 64 72 73 30 32 22 16 19 30 24 22 26 24 22 23 21 22 22 15 12 11 13 14 17 19 13 15 17 16 26 29 32 29 35 38 48 60
96 99 99 70 26 10 19 56 52 77 53 37 35 33 34 28 27 20 26 23 24 24 19 21 26 15 14 14 14 15 15 14 13 14 16 15 19 13 22 27 28 28 34 36 40
98 93 97 99 61 25 63 59 70 79 51 26 27 29 27 28 26 18 23 21 20 22 19 22 18 17 17 16 18 17 18 21 17 18 15 15 16 14 16 24 27 27 29 35 37
87 99 92 98 58 65 67 63 75 74 44 20 31 29 26 28 26 19 20 19 18 20 18 18 16 19 18 18 16 20 14 17 18 19 22 19 30 33 16 22 26 27 27 28 32
65 93 98 95 97 80 73 82 85 82 35 17 21 30 27 26 16 20 17 18 19 17 17 20 19 21 20 18 16 18 18 19 19 21 20 17 16 22 14 17 20 23 26 25 27
75 67 99 97 94 85 92 93 91 55 38 18 26 32 32 28 17 15 17 18 15 16 16 17 15 15 16 14 16 16 21 20 20 21 31 18 17 28 15 12 10 16 22 25 24
77 63 95 99 86 82 100 99 52 38 15 16 24 27 29 27 21 16 19 20 19 24 24 19 19 16 16 21 18 20 24 33 33 32 33 26 19 17 32 11 12 12 14 20 25
78 64 84 99 82 95 99 93 41 15 17 20 21 27 29 22 23 20 21 22 17 17 20 25 26 19 17 19 21 22 22 32 65 34 27 24 21 17 13 13 13 14 16 16 20
81 89 98 90 82 95 100 89 36 17 10 16 19 30 30 21 20 21 21 19 16 15 21 22 22 13 14 16 17 20 25 19 34 28 30 21 15 12 11 11 12 13 18 19 20
93 94 87 84 84 98 100 83 30 13 10 15 20 23 29 24 21 22 22 16 16 14 13 17 24 16 17 18 17 20 18 29 26 39 45 21 19 17 15 13 12 11 13 17 23
98 99 77 86 92 98 89 62 40 16 12 14 21 18 24 26 20 21 22 16 14 14 14 16 20 21 23 26 24 23 26 23 22 28 41 36 22 16 13 12 13 13 13 14 16
100 97 78 77 98 85 82 50 35 21 19 15 20 21 20 27 23 19 22 17 15 14 20 16 21 31 28 19 17 18 21 22 32 30 29 33 29 14 13 12 14 14 15 16 18
98 96 87 90 95 83 56 48 36 30 23 19 26 29 25 27 34 24 21 20 17 16 19 18 22 34 27 24 21 22 20 18 21 23 32 54 33 14 13 14 14 14 14 16 19
99 98 100 100 64 49 50 47 37 39 28 18 24 25 30 35 28 30 25 22 23 20 17 22 21 27 33 28 21 24 20 18 20 36 33 28 21 16 15 15 13 13 15 17 18
100 93 93 95 82 56 41 33 33 36 32 28 24 27 25 34 30 31 29 30 33 26 26 24 26 22 20 18 17 18 19 18 20 20 28 23 19 16 14 14 12 18 18 17 21
100 63 72 58 74 54 46 40 30 28 26 30 32 28 26 28 26 33 31 32 32 27 29 22 29 24 24 20 17 18 15 14 14 16 17 16 17 13 11 11 12 15 18 21 26
99 61 53 53 67 58 51 40 30 25 24 22 24 27 33 26 36 43 42 42 38 39 36 26 33 31 38 23 22 33 21 16 15 14 17 22 17 14 13 12 14 18 19 27 36

GFSSW_850_rhum_048.txt.gz
RH
72 70 75 73 77 73 64 70 67 64 59 31 18 16 16 16 12 10 25 32 28 17 9 25 26 22 18 17 13 11 13 15 15 17 14 12 14 20 38 33 71 78 93 89 95
43 37 50 54 53 58 52 55 60 65 63 61 36 18 16 16 14 9 21 28 18 13 9 22 16 16 15 13 11 10 14 16 10 10 13 12 14 42 67 50 65 41 55 95 99
9 12 19 29 33 36 41 38 42 41 59 57 54 30 16 17 23 25 19 25 17 12 15 18 13 12 11 11 10 10 13 12 10 13 13 13 16 20 28 60 58 62 64 94 100
6 7 6 7 9 18 27 26 42 42 37 55 47 49 20 17 24 30 25 24 15 12 13 17 14 13 12 12 11 12 10 11 11 14 14 14 23 28 44 82 82 96 95 99 98
6 6 6 4 5 5 7 13 32 36 35 44 54 56 34 39 29 28 19 15 16 11 24 18 16 14 15 12 9 11 11 12 15 17 16 18 36 54 55 85 96 98 96 99 99
10 7 7 5 4 4 4 4 14 31 39 30 46 58 61 42 23 22 29 12 15 13 21 18 16 16 16 14 12 11 13 12 17 16 20 49 68 72 57 60 78 87 98 99 99
33 16 8 6 4 4 4 3 6 25 36 33 35 62 72 40 22 20 30 27 18 20 18 17 16 18 15 16 13 12 13 12 16 18 19 35 45 63 42 46 60 78 91 99 98
87 60 26 8 5 5 4 3 4 14 22 32 39 53 64 20 26 25 25 26 19 17 19 18 18 19 18 17 15 14 12 16 15 21 36 34 61 44 44 40 40 71 80 92 88
100 95 69 18 8 7 5 3 3 10 19 29 36 64 44 26 30 20 22 24 19 19 20 20 19 19 17 18 18 15 17 17 17 19 23 50 79 67 53 35 34 52 62 76 93
98 99 98 82 21 9 6 4 10 33 65 66 67 51 40 25 19 19 20 26 18 19 20 20 18 19 18 17 23 17 15 14 24 24 21 25 57 71 70 29 32 40 57 64 72
88 97 98 100 66 15 8 5 48 83 88 48 32 29 18 24 21 15 16 27 21 19 21 18 23 25 20 16 13 11 13 19 20 19 26 16 18 55 55 41 31 36 49 54 64
67 89 93 96 98 32 22 73 33 62 49 29 29 35 31 27 25 21 14 24 22 24 19 21 27 19 16 15 14 13 14 14 12 16 15 12 15 38 62 44 27 33 43 48 56
77 77 90 93 94 40 26 45 51 59 50 26 18 20 22 24 28 22 19 20 21 22 21 24 20 16 16 17 16 15 15 16 23 17 15 15 15 21 26 22 24 28 34 44 50
51 69 77 90 61 82 59 56 55 66 54 15 12 20 16 21 19 24 18 20 18 21 20 19 15 17 19 16 13 17 13 14 17 18 21 18 28 19 17 31 23 23 29 34 37
69 68 71 96 85 78 78 61 67 85 37 10 12 24 23 22 17 19 20 20 21 19 19 22 18 17 22 17 14 16 17 18 18 19 20 22 28 18 17 23 23 24 26 31 35
85 69 73 76 84 52 87 71 75 63 41 14 25 26 25 23 20 17 20 17 18 17 18 17 14 15 17 15 14 14 17 20 20 22 34 21 20 31 28 32 19 21 24 25 30
85 79 74 90 95 71 84 91 70 47 10 10 21 26 26 29 25 24 21 21 23 27 28 18 16 14 14 17 15 16 22 36 38 39 41 19 22 25 23 23 17 18 21 24 25
76 88 76 93 78 87 90 100 54 19 21 15 13 20 29 27 28 26 21 22 20 18 23 25 28 17 16 18 21 21 22 40 65 69 52 32 26 18 17 13 12 12 13 20 24
88 96 96 96 82 95 100 95 45 25 12 15 15 23 26 25 23 26 22 22 19 19 25 25 24 14 15 15 17 21 27 21 50 47 56 41 30 19 13 12 12 13 14 16 16
96 99 97 85 81 98 99 75 38 20 17 14 16 16 25 26 25 25 26 19 20 18 17 22 29 16 14 14 16 18 17 31 28 52 56 24 19 21 17 13 12 11 14 17 20
100 100 92 85 88 99 96 76 43 27 22 20 18 16 17 20 24 23 23 20 19 18 17 19 24 23 16 19 20 21 24 30 27 29 49 49 31 38 22 13 14 13 13 14 16
100 99 86 84 97 95 79 61 46 29 23 25 21 23 19 21 22 35 22 20 15 16 22 20 27 33 22 16 17 18 22 25 39 39 42 64 38 17 19 14 13 14 14 14 16
98 98 90 80 92 95 68 48 44 38 27 23 26 25 19 23 31 28 29 17 17 18 22 22 27 39 28 27 20 22 20 20 24 28 39 66 41 15 14 14 13 14 14 15 16
99 99 99 98 64 65 63 54 46 40 31 21 24 20 22 28 36 30 32 19 20 20 20 29 26 29 43 35 24 26 22 25 30 49 45 39 29 20 16 19 14 15 13 14 15
100 97 88 95 91 59 53 41 42 41 34 28 24 25 24 48 38 42 32 36 23 22 26 30 37 29 24 20 20 22 22 20 22 21 32 29 24 19 16 19 20 17 17 16 16
100 74 70 52 74 65 60 54 42 33 30 33 33 27 24 34 31 35 35 34 31 26 29 26 36 33 38 23 21 26 26 18 18 18 17 18 20 13 12 14 16 11 13 17 17
100 80 56 58 71 72 66 54 44 35 28 22 26 31 31 28 31 60 39 50 35 34 35 36 42 40 48 29 26 36 27 20 18 15 16 21 19 14 14 15 13 12 14 16 19

GFSSW_850_rhum_051.txt.gz
RH
26 23 20 34 38 49 44 47 52 48 51 52 52 52 38 16 13 14 12 13 26 24 13 12 20 20 21 21 18 17 21 23 19 19 17 14 25 33 46 63 65 49 56 55 67
8 11 9 11 13 19 28 29 35 37 31 37 46 48 46 28 15 13 13 21 29 20 12 12 20 18 18 17 17 18 23 19 14 15 17 15 17 41 54 48 60 64 62 92 86
7 5 5 4 5 4 8 13 21 27 28 25 23 41 37 37 18 27 18 16 22 18 11 20 20 15 14 14 13 14 19 14 12 13 14 17 48 62 68 71 61 67 85 98 100
13 6 5 5 4 3 4 4 6 11 18 29 19 18 33 36 35 26 21 24 25 16 11 18 17 14 18 18 12 16 12 11 12 16 16 46 50 71 67 72 84 86 100 97 92
33 11 6 5 4 4 3 3 3 4 10 25 27 25 28 51 32 23 28 21 17 16 10 13 20 16 19 16 17 15 13 13 12 17 34 36 57 69 56 88 94 94 97 98 97
72 37 12 7 5 5 4 3 2 3 6 21 39 34 52 72 19 27 21 21 14 15 9 19 21 17 17 18 20 15 14 13 12 20 33 44 61 41 66 66 88 88 89 100 99
77 89 46 14 9 6 4 3 2 2 5 15 42 50 54 16 15 25 33 30 20 16 11 18 17 17 18 24 18 18 21 16 14 19 45 43 50 51 55 56 83 94 91 95 100
84 94 96 57 19 9 6 3 3 3 4 14 37 57 64 4 16 17 22 29 28 20 19 18 19 20 20 19 20 22 21 24 16 24 39 35 58 42 35 47 82 89 89 94 96
74 88 98 94 66 17 8 4 2 3 8 43 40 55 66 29 22 11 21 24 27 20 18 18 19 19 20 28 31 27 30 24 18 34 44 50 74 43 48 47 72 85 83 87 91
75 67 89 98 93 38 11 4 2 4 35 84 75 80 34 16 19 21 20 20 25 19 19 20 20 27 29 32 40 31 26 20 30 24 38 62 64 52 37 58 58 72 81 89 87
82 77 82 92 98 58 24 7 36 58 86 74 49 15 13 22 27 19 19 21 26 22 28 22 30 36 31 27 23 22 20 18 17 22 25 53 56 56 57 68 58 65 82 85 89
68 80 69 85 94 82 52 23 30 62 69 56 50 58 37 26 38 25 16 22 30 33 24 28 32 25 22 23 23 23 20 20 21 20 29 48 58 58 62 68 52 61 69 70 79
70 58 73 77 87 67 47 21 13 49 71 52 38 32 21 24 30 30 20 22 30 30 29 32 28 22 23 25 24 21 20 22 24 21 21 21 63 62 52 52 44 55 58 62 75
87 79 54 68 74 87 81 85 56 64 98 40 20 23 23 21 29 22 26 19 26 29 28 29 23 23 22 24 21 22 17 21 25 24 30 21 38 56 50 59 59 44 54 59 75
83 88 67 70 73 79 91 87 72 70 71 15 15 15 16 21 19 20 17 25 25 26 27 30 25 25 26 24 20 21 21 22 25 30 33 29 38 29 46 60 62 45 52 52 71
82 84 75 78 71 46 68 81 74 87 87 20 26 28 24 18 21 19 19 22 21 24 23 24 18 20 22 20 20 19 22 24 26 33 50 32 34 38 33 32 40 35 40 50 54
76 82 96 71 67 74 89 85 93 98 17 11 33 29 31 29 23 24 26 26 31 38 37 27 22 18 17 23 20 22 26 50 70 62 62 36 35 40 30 29 28 30 35 39 47
80 79 91 83 64 76 94 97 97 29 29 17 18 30 36 30 31 29 29 33 26 26 33 38 39 23 18 21 26 28 30 64 73 86 67 44 43 31 24 23 19 21 26 33 39
91 95 92 79 67 79 100 98 59 34 20 14 16 22 36 31 33 32 33 34 29 23 33 35 32 18 16 17 20 27 35 31 63 67 77 56 39 25 22 18 14 14 16 27 34
100 100 96 72 75 90 97 89 59 29 19 19 30 25 26 28 36 37 38 29 29 21 21 29 36 22 18 16 21 22 24 37 56 77 96 48 45 40 33 20 14 13 16 20 26
100 100 96 77 86 99 95 78 52 48 43 30 28 29 30 30 25 25 33 27 25 22 21 23 31 33 26 25 25 29 29 30 42 59 64 59 49 41 25 22 17 17 15 18 18
100 99 92 81 99 86 86 69 54 39 42 43 34 32 36 36 36 34 31 34 21 23 26 23 36 42 30 22 17 22 28 33 66 53 64 76 57 26 25 22 22 17 13 14 21
98 98 92 84 96 95 71 68 66 59 46 39 36 32 30 36 43 34 43 31 31 25 28 26 39 44 42 29 22 23 24 27 37 53 70 78 64 26 25 22 14 17 16 16 16
100 99 99 100 72 70 74 74 74 54 57 49 42 37 37 38 33 38 41 40 42 25 23 23 36 41 44 39 34 36 31 27 36 61 56 68 44 34 28 25 17 16 16 16 16
100 98 88 96 95 76 66 58 67 69 44 40 46 45 40 40 39 39 46 53 54 44 30 34 40 32 34 27 28 30 31 28 31 39 56 45 37 31 26 25 22 20 17 17 18
99 95 83 67 74 86 74 70 63 50 46 46 48 42 39 38 36 42 66 64 76 58 43 38 49 38 40 32 31 29 24 30 32 30 35 34 35 28 20 18 20 17 18 18 16
100 81 74 70 85 89 84 72 62 55 47 38 39 44 47 39 27 44 61 71 70 81 76 54 54 56 53 36 35 48 39 29 32 29 26 33 27 21 20 21 20 20 18 18 17

GFSSW_850_rhum_057.txt.gz
RH
10 7 6 6 5 5 5 5 5 5 5 6 9 10 13 17 20 19 20 20 16 12 20 14 14 13 16 20 23 21 34 40 30 22 19 33 40 49 49 57 66 59 66 61 58
13 15 9 7 6 5 6 4 4 4 3 3 3 4 6 8 12 12 15 20 16 15 26 14 16 25 26 24 23 26 35 28 24 19 20 50 51 42 56 61 65 65 75 78 99
32 18 18 13 9 6 5 5 4 4 3 3 2 3 5 6 12 14 23 14 24 30 24 16 15 24 24 22 20 22 25 19 16 15 17 55 61 58 61 61 72 78 82 90 84
24 21 31 23 23 12 7 6 5 5 4 3 3 3 6 10 14 31 23 26 22 26 27 18 15 22 18 20 17 18 17 16 16 16 37 54 49 65 67 67 72 74 82 81 86
44 43 28 50 54 26 14 8 8 6 5 4 4 4 13 28 8 13 18 16 27 24 27 19 15 20 20 18 20 20 20 20 20 28 35 44 50 60 92 86 80 80 87 86 93
66 50 54 36 60 45 24 14 10 8 6 6 5 8 36 81 6 8 13 14 28 28 26 20 12 17 20 23 24 22 23 22 19 36 43 44 52 54 70 89 86 80 74 91 96
53 77 51 53 40 46 37 16 12 11 10 8 8 11 63 9 2 4 24 31 32 29 28 21 17 23 23 24 22 22 25 24 26 41 40 42 47 62 53 89 88 88 84 90 93
52 68 46 41 44 42 34 26 11 10 14 11 10 22 55 3 2 3 6 28 32 35 33 33 20 21 23 22 23 26 26 29 22 38 35 40 48 40 68 92 94 93 90 93 100
55 65 81 61 39 43 36 24 10 8 10 12 17 49 56 15 14 24 21 8 27 24 28 33 25 23 22 31 34 33 32 30 28 30 39 47 49 44 77 91 92 93 91 90 79
78 66 60 55 51 48 37 22 13 17 17 18 75 65 18 15 18 28 28 27 13 22 28 33 28 32 36 35 45 34 36 30 30 28 46 54 55 46 66 73 81 91 94 88 73
86 88 83 72 42 42 48 37 37 83 83 46 54 31 23 29 36 28 34 30 23 26 36 26 34 40 31 33 30 28 31 34 31 25 39 48 49 51 66 78 95 90 96 85 65
82 87 90 84 72 46 49 72 86 95 95 50 42 61 30 40 56 19 32 31 31 38 32 31 39 26 30 31 33 34 37 38 32 26 39 36 38 49 65 71 86 88 87 84 82
80 81 89 88 80 57 47 75 91 96 97 80 19 18 24 28 53 23 27 29 32 40 37 40 31 26 30 33 36 37 40 38 38 28 32 42 38 57 52 58 64 81 76 72 69
81 86 81 92 82 64 76 94 90 96 98 54 58 29 34 40 56 15 17 24 36 33 43 39 28 29 33 32 33 40 32 32 30 32 37 29 44 33 60 57 65 64 77 77 73
84 88 81 83 85 74 70 81 68 99 46 13 32 26 36 34 19 30 16 22 30 40 39 45 37 35 33 30 31 37 32 35 34 36 35 34 41 36 62 59 51 62 67 67 65
84 87 83 82 84 74 58 52 88 97 76 33 27 37 42 34 24 30 33 25 26 33 32 32 26 30 32 29 30 28 30 34 43 44 52 38 40 46 66 54 40 49 59 61 62
91 90 91 90 95 79 70 73 99 97 31 23 32 30 32 34 27 27 37 36 40 46 44 31 31 26 23 29 27 31 34 52 50 62 62 44 50 44 36 42 36 44 52 55 58
93 96 89 95 84 87 86 96 92 54 45 27 23 28 30 29 26 24 38 33 37 35 41 39 47 32 28 29 31 35 38 60 54 72 54 52 55 41 31 26 31 36 37 48 63
96 99 98 99 84 94 88 98 73 59 38 46 27 32 36 35 29 28 34 35 27 35 41 51 46 28 26 24 26 34 42 35 60 73 79 61 47 35 28 27 38 45 43 47 52
99 100 98 99 93 98 97 87 86 51 54 52 35 33 43 40 38 38 42 35 33 28 30 36 45 32 25 23 25 28 32 47 61 75 74 59 54 50 36 27 30 34 47 42 45
100 99 97 100 100 100 93 75 61 51 52 60 58 51 48 45 42 36 36 41 36 34 31 32 39 38 30 35 33 34 38 39 49 63 64 66 57 44 38 34 27 24 22 34 37
100 98 99 91 99 96 90 66 49 52 52 53 56 50 46 51 46 40 40 35 38 44 41 40 47 47 36 28 26 27 36 39 55 54 68 75 46 30 35 35 29 23 17 19 29
100 100 100 88 96 89 72 66 56 57 55 56 54 52 42 43 43 46 47 36 42 46 55 53 50 51 44 36 32 34 33 34 48 59 68 67 55 34 35 31 26 24 21 18 21
100 99 100 100 89 71 86 75 69 58 63 62 62 59 51 53 46 50 48 38 32 58 54 62 54 48 55 43 37 38 33 32 40 61 50 57 41 36 34 32 31 24 20 18 17
100 99 97 98 93 77 69 63 75 67 57 60 64 61 63 75 55 53 42 42 39 54 57 69 79 71 48 35 32 34 37 36 39 40 46 39 51 35 35 34 30 22 23 21 17
100 100 100 91 83 84 76 75 66 61 60 65 69 64 58 63 57 57 47 45 50 57 63 67 86 89 67 43 37 38 33 32 34 39 43 40 44 37 31 28 30 24 22 21 16
100 97 98 98 91 93 80 74 73 61 59 51 59 64 69 58 46 43 41 46 60 62 65 73 84 92 92 73 48 58 42 34 36 37 40 50 44 33 33 35 32 26 25 21 19

GFSSW_850_rhum_063.txt.gz
RH
42 35 28 26 25 21 12 13 14 10 6 5 4 2 2 2 1 2 6 9 11 21 23 22 21 15 20 18 23 24 27 28 26 26 18 18 27 36 41 55 58 56 57 54 53
46 44 44 42 43 43 41 24 14 15 11 6 5 3 2 2 1 2 11 10 11 21 22 23 15 14 16 21 25 24 28 25 21 20 17 17 22 26 48 58 60 58 54 54 60
52 51 50 48 46 46 48 46 32 16 14 12 8 4 3 2 3 14 27 30 16 28 27 20 18 17 27 28 27 27 23 22 18 19 19 19 37 45 48 46 52 56 53 62 75
60 54 51 54 53 46 40 47 46 37 18 17 11 6 3 4 9 34 31 28 26 30 27 21 27 26 25 25 25 23 21 19 16 18 25 25 42 54 58 48 50 52 58 66 84
60 53 49 40 35 50 45 31 43 46 35 22 18 8 5 14 4 2 27 33 39 29 29 20 25 25 24 20 21 22 18 20 18 22 26 38 41 46 57 49 61 59 68 90 98
70 50 44 41 30 27 40 38 23 36 48 40 24 12 18 54 5 6 6 10 18 22 34 29 18 17 21 20 20 23 21 21 24 22 30 40 42 52 42 52 72 67 83 99 96
89 66 51 50 42 32 30 23 20 19 29 48 27 17 31 4 3 2 3 6 22 17 26 30 22 19 20 26 23 26 26 24 22 22 30 45 39 48 46 62 92 98 85 99 99
51 49 64 66 60 58 46 37 22 17 20 36 35 17 34 4 3 2 2 7 27 36 33 31 27 23 22 24 27 26 28 29 19 37 40 40 27 30 49 80 98 100 100 99 96
68 72 76 76 75 70 50 43 31 18 30 38 38 17 44 13 8 13 14 9 6 40 37 32 34 25 27 25 30 33 28 28 22 28 40 40 30 35 65 82 79 94 100 98 98
80 71 72 75 72 71 60 56 27 61 66 56 58 38 20 13 17 37 36 40 19 27 44 37 32 30 32 26 27 33 34 32 28 30 35 38 36 28 62 81 71 81 97 99 100
80 77 76 77 72 75 70 61 42 65 56 79 80 35 22 28 30 39 44 42 34 27 44 41 40 38 27 30 27 28 29 29 25 22 26 30 32 26 38 76 76 79 87 100 100
80 79 76 75 79 80 74 70 99 96 94 66 39 56 36 26 76 38 43 36 37 31 38 40 46 34 30 30 27 28 30 30 27 27 27 27 28 24 39 48 63 65 76 91 98
76 75 76 78 85 77 81 71 97 74 94 72 67 67 49 38 57 41 30 40 35 40 36 37 31 32 31 34 33 33 33 34 28 30 28 33 31 27 30 50 62 66 64 76 77
75 73 72 83 85 84 85 89 83 70 94 63 66 58 48 41 55 25 27 27 38 35 40 30 29 34 33 33 30 36 31 29 31 29 35 30 38 30 24 31 47 51 69 75 86
73 70 76 90 99 98 87 79 72 81 78 27 49 38 41 35 27 43 26 30 30 38 39 38 40 35 35 29 30 25 31 32 32 34 39 36 36 29 34 29 24 31 54 65 62
74 72 78 82 98 93 91 75 62 96 74 43 36 46 50 43 38 44 36 29 24 38 40 30 35 30 24 31 29 28 31 38 43 42 52 36 35 29 30 26 25 27 39 57 59
73 71 81 85 95 96 96 73 88 89 43 37 40 33 36 39 46 39 40 37 34 49 53 38 34 30 30 33 32 30 34 45 53 58 50 40 40 28 26 24 27 27 27 40 51
71 80 84 86 92 100 99 89 96 48 62 43 42 39 40 36 37 37 40 37 31 31 37 44 46 34 31 33 35 35 31 48 53 55 42 46 44 27 28 27 29 29 31 36 42
76 80 87 74 85 98 98 94 64 53 55 62 49 43 45 37 38 36 40 38 27 36 37 41 38 28 31 30 30 39 41 32 53 66 58 44 41 30 24 22 24 25 40 47 61
89 84 76 72 81 94 92 79 60 59 56 57 62 54 55 49 48 42 44 38 38 34 33 40 46 33 27 26 28 31 32 40 50 52 59 48 48 33 27 24 24 28 28 42 51
94 94 77 68 82 99 98 89 60 45 46 60 64 64 58 53 45 56 50 34 36 47 34 39 37 38 35 33 34 34 36 42 40 50 47 47 41 41 30 29 29 32 30 25 32
96 98 76 85 98 96 98 89 56 49 51 54 56 61 59 49 46 46 52 47 42 34 48 37 47 49 40 31 28 29 33 36 46 53 59 58 38 29 32 31 34 30 25 20 16
98 90 84 91 97 95 100 85 64 55 53 58 61 64 56 55 51 52 49 39 40 36 39 62 51 53 45 36 34 33 32 38 47 51 46 57 40 30 32 29 30 31 24 21 19
99 99 96 99 98 89 93 90 79 65 58 55 66 60 56 60 50 49 45 38 44 42 43 65 67 58 52 55 53 46 37 33 36 57 47 48 37 31 30 29 24 27 20 21 19
99 98 94 98 90 96 81 74 75 70 59 60 60 62 58 62 58 50 41 45 36 50 51 68 76 73 68 58 58 56 50 40 38 37 42 36 39 31 33 29 25 29 25 24 21
99 98 99 92 96 92 98 77 71 67 60 67 72 65 63 68 57 54 55 49 48 49 53 52 73 76 66 57 53 56 49 43 39 38 39 38 37 30 26 29 31 29 27 26 21
99 98 97 73 88 100 98 76 70 60 62 52 60 65 67 59 57 56 56 54 53 58 59 63 78 76 64 72 58 64 52 45 43 39 39 46 36 30 29 33 35 29 29 27 23

GFSSW_850_rhum_066.txt.gz
RH
44 43 40 40 40 41 43 44 44 31 10 8 8 5 4 2 1 1 10 8 8 10 17 22 24 26 23 19 21 19 15 13 11 13 14 13 17 16 27 25 40 46 46 54 53
51 49 46 44 43 44 44 43 41 45 41 18 8 7 5 3 2 1 7 11 8 10 22 30 26 23 18 16 18 16 14 11 10 11 13 13 14 17 24 19 29 41 55 64 51
42 45 43 36 36 31 40 38 40 36 45 44 21 8 5 5 18 13 27 27 28 12 33 31 23 18 13 14 15 14 14 9 13 13 13 14 15 21 20 16 18 27 43 62 75
48 44 36 24 23 22 20 23 27 32 30 43 43 18 9 6 8 31 36 34 31 25 33 28 22 17 14 15 13 16 14 11 11 13 14 15 18 21 23 23 43 39 54 68 67
82 65 33 26 25 24 19 16 17 18 24 26 42 37 16 32 13 6 7 22 33 38 29 25 22 18 15 12 14 17 10 12 14 14 16 17 19 18 22 27 50 61 69 75 75
94 77 42 35 34 32 27 21 17 17 16 17 22 45 58 34 8 5 7 8 30 40 29 24 20 19 16 14 14 12 13 11 11 13 16 20 15 31 18 27 53 63 62 77 69
53 40 41 50 56 52 36 24 24 22 16 14 17 39 81 34 13 5 4 3 10 31 34 32 24 19 15 15 15 14 17 14 14 15 14 20 18 20 18 46 50 56 64 73 77
88 71 64 57 56 47 37 25 20 23 19 17 23 48 71 28 20 20 15 6 7 20 35 27 30 25 21 17 19 18 16 17 11 11 15 25 16 11 29 43 47 51 67 73 74
92 84 71 62 61 53 40 23 25 23 24 38 46 75 42 31 18 20 24 33 22 36 39 37 33 27 23 20 19 20 19 17 14 13 17 26 17 22 38 38 36 52 62 70 68
87 82 75 73 66 56 49 26 32 49 84 64 91 71 38 32 24 36 40 48 34 22 32 38 31 27 24 21 24 20 21 16 17 16 19 18 21 15 21 34 39 40 51 62 67
79 81 77 71 59 63 50 63 50 55 63 52 48 59 53 40 32 39 53 50 42 21 31 35 31 32 22 21 16 14 16 16 12 13 17 15 15 15 15 26 36 37 44 58 65
87 78 74 68 63 65 82 81 94 96 86 63 56 52 45 52 52 47 50 52 41 25 21 36 41 24 20 18 20 17 18 17 13 17 18 12 16 15 13 18 22 32 39 47 66
82 76 74 70 67 83 90 91 91 85 70 53 54 52 50 49 50 43 49 47 34 37 21 31 25 26 25 23 23 19 19 18 17 19 17 20 20 17 13 20 27 33 33 42 57
73 72 72 66 87 95 81 93 96 81 76 37 47 49 57 47 45 33 50 51 28 32 28 24 17 25 27 28 21 23 16 18 20 22 16 22 25 16 15 15 17 21 36 38 51
75 78 75 77 96 92 91 85 83 95 43 26 34 46 43 35 25 33 46 46 38 28 30 29 22 22 26 22 19 22 16 22 21 22 20 17 26 15 16 18 14 13 21 36 47
73 74 71 83 86 93 90 77 81 77 37 33 32 37 42 37 28 42 37 38 40 51 52 38 24 21 19 18 20 20 22 23 23 21 32 22 26 19 15 17 14 14 18 28 42
71 77 79 98 86 80 75 82 69 48 21 33 35 33 32 30 36 35 46 40 36 48 52 44 28 24 21 20 21 22 24 34 36 39 32 22 28 22 15 14 16 17 17 25 38
70 79 93 96 97 84 93 74 69 25 29 29 39 32 27 31 32 36 44 44 32 31 29 38 46 27 26 23 27 25 24 30 39 38 31 27 32 22 15 14 18 18 18 23 35
70 93 95 92 79 85 100 81 34 30 35 50 37 33 33 34 35 34 37 34 30 26 31 36 38 25 25 24 22 28 32 21 33 41 34 29 24 21 16 15 14 16 20 26 30
89 99 85 88 73 91 99 70 42 34 49 47 42 40 44 41 41 53 46 37 35 22 22 27 36 25 24 25 23 26 22 35 33 44 46 30 30 26 19 16 14 18 19 24 35
89 89 72 68 77 98 96 61 47 36 37 49 53 52 46 44 37 65 89 58 42 32 24 30 32 34 24 33 27 29 31 30 26 28 38 40 31 23 20 17 18 18 19 22 30
94 83 75 77 91 75 88 54 61 40 35 37 46 50 52 45 41 46 74 51 46 43 37 31 38 37 31 23 19 20 25 27 35 39 35 37 31 22 22 19 21 19 18 21 21
89 70 78 94 85 78 72 61 60 49 39 37 42 46 43 47 44 34 76 53 40 45 47 47 36 37 34 29 27 28 24 24 25 28 37 51 32 19 24 20 17 20 17 18 22
94 94 75 94 84 70 62 57 64 52 43 38 43 49 46 47 39 41 38 52 56 49 46 49 48 37 31 29 34 34 28 25 30 40 35 30 26 22 20 19 17 17 18 20 22
99 95 56 90 78 72 68 58 77 57 50 43 44 44 46 55 46 45 37 33 44 44 41 47 86 63 52 51 47 46 44 34 29 28 34 28 27 23 20 19 19 21 21 21 21
98 90 91 60 97 86 75 74 64 46 47 48 51 43 48 54 46 48 44 41 42 47 44 43 78 58 51 43 44 47 39 37 33 31 31 30 30 21 21 22 23 23 22 20 22
98 85 98 57 59 64 79 64 72 62 47 42 47 58 66 57 54 49 50 49 48 51 53 51 64 62 57 42 38 48 42 37 36 32 32 37 31 27 27 27 27 25 28 26 24

GFSSW_850_rhum_069.txt.gz
RH
46 46 43 43 41 42 42 42 40 40 37 39 36 19 7 4 2 6 19 16 24 13 14 34 34 27 20 16 16 14 14 13 10 9 9 9 11 12 12 15 13 22 29 34 56
41 28 32 31 30 28 27 21 31 29 36 34 38 38 24 8 3 14 18 15 14 8 14 27 30 22 17 15 13 13 12 11 8 8 8 8 10 10 12 12 12 16 27 41 53
45 26 18 20 18 16 16 16 17 14 17 20 28 37 38 21 25 22 29 33 28 29 10 22 23 19 16 13 12 12 13 9 8 8 9 9 10 11 12 13 12 18 21 35 50
63 34 21 16 18 17 17 16 17 14 15 16 21 23 33 38 15 14 9 12 29 32 27 25 24 18 16 13 10 12 10 10 8 8 10 10 11 11 12 13 15 23 30 37 55
82 58 45 24 23 23 23 20 16 14 18 20 16 15 17 40 28 15 10 21 19 32 36 24 22 19 16 11 10 11 10 10 9 8 9 11 11 12 12 12 15 28 45 44 53
76 45 33 30 28 26 24 20 17 14 15 13 17 14 56 49 32 18 18 14 22 41 34 24 20 18 14 12 11 10 10 11 9 9 10 10 11 12 12 13 16 28 40 45 56
90 84 65 54 40 37 28 21 18 15 12 12 17 17 58 35 31 24 16 18 13 22 32 25 20 17 16 15 13 11 12 10 10 9 9 9 12 13 11 11 17 25 37 43 51
75 84 81 69 46 38 30 22 17 16 13 14 19 63 46 24 32 30 28 24 20 14 17 27 27 24 19 14 12 14 13 15 11 10 10 11 17 10 11 16 20 27 32 42 49
88 76 77 67 49 42 29 16 17 20 18 26 61 73 36 31 33 27 29 27 29 26 15 22 24 26 24 21 19 17 18 16 14 10 10 12 15 10 18 18 20 23 30 40 44
90 82 72 72 55 44 28 24 48 55 70 82 67 62 46 25 26 27 45 48 40 34 20 24 26 25 23 23 26 19 17 16 16 11 11 12 16 12 14 18 20 21 27 37 44
88 88 77 72 53 50 47 58 42 57 49 30 29 39 25 23 35 32 35 45 49 45 47 16 24 29 24 22 18 15 14 15 14 10 13 14 12 11 10 13 17 21 23 31 40
85 88 81 69 50 54 74 59 75 80 75 48 44 40 36 32 28 32 50 47 50 55 41 15 23 19 18 19 19 17 16 16 13 11 13 13 11 9 9 10 13 17 21 25 39
88 80 77 60 52 77 69 70 73 80 58 33 35 34 34 36 33 27 42 50 53 62 61 34 16 19 22 22 22 20 21 19 17 13 15 15 15 12 10 10 11 14 16 20 31
82 80 69 50 74 83 61 69 74 86 60 26 26 34 40 40 34 29 30 47 60 64 60 42 20 22 26 27 21 24 16 16 16 17 21 13 18 14 11 12 12 14 17 18 27
87 76 76 73 84 64 62 71 81 87 33 19 26 37 36 31 23 28 31 44 55 64 60 64 35 23 28 26 21 24 17 16 17 20 20 18 17 14 12 11 11 10 13 20 24
83 79 72 71 86 79 73 88 80 79 31 20 23 26 33 28 28 32 28 35 44 62 65 54 40 39 23 17 19 16 19 19 20 22 31 22 20 18 14 12 12 10 11 18 24
72 77 75 86 78 94 83 89 57 42 10 15 24 24 23 20 25 26 38 46 62 91 79 55 48 35 31 20 21 18 23 32 36 35 36 18 20 18 12 11 12 12 12 17 22
86 69 82 81 84 85 86 64 57 13 16 11 21 20 15 14 27 31 39 43 44 53 67 86 74 38 26 22 23 22 23 32 44 42 30 19 25 19 13 11 13 14 14 15 21
79 78 78 82 85 90 88 72 28 18 12 20 26 17 16 22 29 30 36 40 41 39 77 56 52 32 36 22 22 24 27 19 26 34 36 24 21 17 15 13 12 12 15 17 20
83 76 79 77 84 97 92 61 30 20 29 28 26 16 25 25 33 40 40 48 52 40 37 49 51 34 44 28 26 29 20 30 25 49 52 32 26 23 18 15 13 14 16 18 21
80 84 58 73 88 97 92 53 35 25 23 33 28 25 29 30 30 51 62 64 63 54 42 32 34 44 33 47 36 30 28 26 24 28 39 42 33 18 18 17 15 16 16 19 26
69 87 68 80 93 72 84 49 36 32 28 26 26 31 34 32 35 37 86 54 64 55 54 28 34 50 39 28 29 27 27 28 36 37 30 37 40 17 17 16 16 16 16 17 18
82 65 77 89 90 72 53 40 36 34 31 29 28 25 27 33 43 31 54 62 61 56 58 69 45 48 49 41 24 34 30 25 27 33 61 53 33 18 18 17 16 15 15 16 18
97 89 58 88 78 58 53 53 43 39 34 31 34 25 28 42 41 37 37 49 53 58 54 52 57 53 49 41 28 32 26 24 28 42 37 39 31 21 18 18 17 16 16 17 18
93 82 64 78 66 52 51 54 43 36 37 30 34 32 39 50 47 42 33 32 33 54 55 53 89 71 38 46 34 32 29 26 27 28 34 29 25 19 18 18 17 19 20 19 17
91 69 56 54 47 52 49 51 49 36 36 42 37 29 31 35 36 38 32 37 43 38 54 58 81 96 62 36 38 37 31 29 28 29 29 28 29 20 18 20 22 22 21 20 19
92 78 79 62 52 63 62 44 40 38 34 41 39 32 34 39 46 48 45 45 40 45 50 52 77 92 92 60 48 53 41 38 38 31 32 36 33 30 25 27 28 30 30 37 35

GFSSW_850_rhum_072.txt.gz
RH
36 30 22 22 24 24 21 23 22 15 14 21 28 28 33 33 20 8 31 18 16 18 19 16 36 36 28 20 15 14 16 17 14 11 9 7 10 10 10 10 12 12 17 23 51
40 25 26 17 17 19 17 15 13 11 11 12 12 12 24 32 27 21 21 18 18 16 13 21 26 28 24 18 15 13 17 15 10 8 8 7 7 10 10 11 11 11 16 31 44
79 62 53 24 16 16 16 14 12 11 11 11 12 12 16 22 53 30 28 25 24 27 26 16 21 23 22 17 14 13 16 12 9 8 8 8 8 8 9 11 12 13 19 24 42
57 72 62 29 23 15 14 13 12 11 11 11 11 12 11 21 34 20 17 17 9 5 30 27 22 19 20 18 13 13 10 11 10 9 9 8 8 9 9 11 12 12 20 27 33
59 76 50 36 22 18 13 12 12 10 12 12 12 16 14 36 36 25 25 19 15 38 36 30 25 20 20 16 14 12 10 9 9 9 9 8 9 10 10 10 11 11 29 37 37
86 81 82 87 51 30 16 15 14 12 10 10 12 17 52 48 19 23 20 15 12 17 35 29 24 20 18 16 15 12 9 8 9 9 9 8 9 9 10 10 11 12 23 37 41
85 93 79 72 68 49 18 16 13 10 9 11 15 25 82 29 14 20 27 20 14 14 16 29 24 20 17 17 14 12 13 11 10 9 10 9 10 10 9 10 11 11 17 30 39
87 92 84 64 59 35 12 10 8 10 11 15 22 48 63 18 26 26 29 28 30 20 14 14 24 26 26 18 16 15 14 17 11 10 9 10 15 10 9 10 10 14 18 29 37
85 89 91 68 42 22 11 7 7 34 40 46 37 76 48 29 32 24 24 27 25 22 17 17 17 30 26 26 26 19 21 17 14 9 10 11 14 10 10 13 13 15 20 26 35
93 77 84 77 53 20 12 11 27 44 58 74 78 56 46 30 24 28 28 40 33 30 28 19 17 30 28 29 39 28 20 17 17 12 11 12 12 11 12 15 15 15 16 24 34
89 80 81 76 62 22 41 60 41 54 66 38 32 38 30 26 22 21 26 32 38 36 36 21 29 33 28 25 25 22 20 18 13 11 13 14 13 11 10 11 15 16 18 22 33
87 79 86 72 52 32 71 74 58 66 62 51 43 37 32 29 28 24 25 37 35 43 34 40 37 33 24 22 22 23 26 23 15 12 13 13 14 11 10 10 11 15 17 19 30
81 82 84 76 37 63 80 61 60 65 64 40 26 24 24 29 28 27 20 31 36 39 45 65 43 27 31 19 25 25 26 25 20 14 13 13 16 15 11 9 9 10 13 17 28
82 87 80 64 66 85 62 59 62 73 71 30 30 29 34 33 29 24 22 25 50 53 44 80 66 34 49 44 20 28 21 21 20 21 25 15 23 16 13 12 10 11 13 14 18
80 83 89 70 62 71 59 65 67 76 63 23 22 31 29 28 26 25 23 24 41 51 66 66 66 53 53 43 23 28 27 31 21 22 24 19 22 18 12 13 12 12 13 15 15
85 75 74 73 77 75 69 78 81 94 55 20 23 28 29 28 25 28 24 29 40 41 46 50 46 59 62 46 30 26 32 44 29 26 35 23 24 22 17 14 11 11 10 15 18
90 75 71 89 79 91 86 79 84 59 10 10 15 19 21 18 12 24 31 36 42 67 60 56 52 55 52 59 38 35 59 76 56 44 43 22 24 22 15 12 11 11 10 14 19
90 80 80 80 79 77 82 70 76 21 20 10 16 13 17 10 9 24 31 38 32 46 54 76 81 56 55 52 55 38 50 49 64 53 38 22 27 20 13 10 11 12 11 14 18
86 90 89 81 73 80 97 88 39 25 14 11 10 22 19 8 19 21 34 33 32 35 65 71 63 42 48 49 53 53 47 32 39 40 50 30 20 18 13 12 12 12 13 14 15
100 94 84 64 69 84 96 77 39 22 17 22 27 19 16 14 27 28 40 57 62 43 34 54 90 48 49 43 55 56 42 57 36 60 81 40 32 25 20 16 13 13 16 17 17
99 95 62 62 78 94 94 64 39 31 27 22 27 27 20 19 20 23 38 82 56 52 45 49 84 60 64 79 66 53 41 42 34 33 55 60 42 44 25 16 16 18 17 19 22
98 91 53 69 95 94 92 57 39 29 24 23 24 27 30 29 29 32 32 65 53 49 59 63 71 67 50 32 46 41 47 39 52 53 36 48 41 28 21 17 18 16 15 18 19
97 59 60 100 90 81 56 49 41 35 28 27 28 24 23 26 31 30 33 50 55 63 73 66 71 62 55 39 59 62 53 50 45 52 58 75 39 24 20 18 16 16 16 17 18
99 83 53 91 77 64 57 57 44 34 27 27 26 24 27 25 23 43 49 52 52 51 73 70 69 69 67 69 77 68 48 45 51 78 64 66 41 39 26 19 17 17 18 19 20
99 81 75 74 75 63 59 77 48 39 27 27 29 28 28 42 30 41 28 40 53 63 58 80 100 91 84 69 66 72 55 51 52 48 52 41 43 38 38 31 20 21 20 20 19
99 65 51 85 63 50 47 50 47 48 37 36 35 26 24 29 29 38 30 37 54 50 50 64 87 80 70 54 57 93 48 47 55 46 36 28 37 27 23 24 28 35 37 38 38
97 83 71 68 60 59 71 50 35 32 36 48 46 45 44 35 41 47 46 60 57 53 58 55 76 98 93 87 74 62 58 51 43 35 39 51 53 32 30 27 37 41 43 44 44

GFSSW_850_rhum_075.txt.gz
RH
39 48 55 31 16 17 15 14 13 12 11 10 10 9 9 9 12 15 20 18 16 19 16 16 16 26 24 35 27 23 28 30 24 20 16 11 12 11 10 10 11 12 12 15 38
58 38 36 39 18 14 12 12 12 11 10 9 9 8 7 8 12 21 23 26 25 22 22 19 13 28 37 32 30 24 27 24 17 15 15 11 10 11 12 12 12 12 24 31 35
70 56 30 20 16 17 14 11 12 12 12 11 9 8 7 7 12 33 17 16 17 15 8 25 17 20 32 31 28 22 25 17 16 14 13 13 11 8 11 13 12 18 26 29 34
74 66 57 22 15 11 15 14 13 12 12 12 10 10 8 9 25 23 24 25 26 21 13 34 23 18 24 31 24 27 19 17 15 13 13 12 10 10 10 11 11 11 13 31 36
69 57 72 66 37 26 16 12 12 12 12 13 13 14 16 34 19 9 23 24 20 15 34 37 31 21 28 23 23 24 19 15 13 12 11 11 11 11 10 9 10 11 18 23 32
73 64 46 51 43 30 11 9 7 8 9 12 18 20 38 66 6 26 24 21 17 15 14 24 32 26 25 24 23 20 18 16 14 12 10 11 11 11 9 8 10 10 19 24 27
69 60 58 45 33 21 10 8 6 5 7 20 28 36 62 8 4 8 22 22 24 15 19 15 15 18 25 29 20 20 23 18 16 13 12 10 15 14 10 9 9 10 11 26 31
75 86 66 56 35 21 10 7 5 4 18 47 46 56 72 8 25 21 22 25 27 28 27 20 14 16 24 27 27 30 23 27 18 15 13 14 18 14 10 10 9 9 10 31 36
79 96 91 61 53 22 9 6 4 12 26 53 63 60 82 35 28 22 24 26 31 25 26 20 18 16 25 38 40 32 36 31 21 14 14 14 16 12 10 10 13 13 14 26 35
81 82 88 74 61 24 9 30 39 40 54 67 79 96 61 28 24 22 25 29 34 32 26 24 22 24 41 48 53 43 37 29 23 17 14 16 15 12 12 13 14 14 15 26 34
80 76 79 74 55 19 30 58 56 54 46 60 62 65 41 35 27 21 20 28 35 39 45 32 31 34 32 39 37 35 34 34 23 16 17 18 15 14 13 13 20 17 15 19 34
85 76 77 74 52 42 74 70 62 63 68 61 42 39 43 38 33 27 19 26 35 51 44 47 44 33 28 30 32 34 35 33 26 21 21 22 25 16 15 16 14 19 17 18 34
84 76 80 78 40 65 81 72 63 65 78 54 43 43 36 30 36 31 27 22 40 46 48 56 47 42 46 30 38 37 38 31 29 23 23 21 21 17 15 14 12 15 16 17 35
84 74 75 78 47 75 68 67 64 66 89 49 35 26 28 30 33 28 26 21 49 54 64 80 62 62 63 46 35 52 37 31 27 32 60 35 37 24 17 16 15 13 17 18 35
82 77 77 76 74 53 69 72 73 68 96 32 28 26 30 33 26 25 25 20 52 55 67 61 72 67 78 53 37 45 41 43 48 63 61 52 36 26 20 20 17 14 17 19 34
74 71 79 72 66 73 85 75 72 90 86 31 29 30 31 30 29 28 23 24 32 48 54 56 43 63 69 48 41 49 57 48 60 64 84 58 42 31 24 21 18 14 17 14 37
79 78 91 76 68 71 92 83 94 89 29 21 37 32 35 29 33 35 32 42 59 71 73 53 54 50 59 66 52 54 67 90 91 94 90 39 38 28 24 18 16 17 18 16 36
83 98 92 77 63 71 99 94 95 44 25 15 19 19 19 17 19 28 36 46 43 50 63 71 80 59 54 66 64 54 87 84 92 87 56 31 38 28 19 16 13 11 13 19 33
87 94 91 66 62 76 98 96 66 34 23 23 20 18 21 20 20 27 42 46 39 39 67 68 66 51 49 53 62 74 96 62 83 60 91 59 26 21 18 17 17 16 16 24 34
92 94 90 64 72 84 97 81 55 35 32 34 33 24 26 20 26 30 50 73 62 48 45 58 86 50 47 64 69 69 56 83 99 93 93 60 52 34 23 20 19 17 20 19 28
100 99 70 59 76 86 95 78 55 44 42 36 33 31 32 34 35 28 69 82 57 52 48 54 87 67 70 93 94 86 93 91 88 89 77 90 76 55 42 28 24 27 23 22 27
99 99 50 76 88 95 87 63 51 50 44 42 37 32 35 36 38 36 44 68 56 51 74 80 95 91 62 49 56 60 89 86 99 83 63 67 80 49 34 26 25 25 19 19 24
99 96 69 65 97 91 76 63 59 56 51 41 38 32 31 34 41 35 56 55 54 60 69 70 95 96 63 48 39 69 75 74 84 85 94 91 73 51 29 25 22 25 24 23 27
99 95 79 79 91 88 78 69 63 48 46 38 36 32 35 41 36 37 40 60 55 60 69 68 74 80 88 86 96 99 91 70 81 99 80 74 57 58 55 37 31 31 32 32 34
98 95 80 99 95 97 84 92 76 59 42 37 42 35 38 45 46 47 40 67 59 69 71 80 97 80 76 65 75 76 83 94 78 85 96 73 56 70 60 56 46 43 44 44 45
97 93 69 98 94 100 70 67 72 66 69 60 47 39 46 44 38 44 48 55 61 76 75 76 91 84 78 56 74 83 81 89 88 73 79 74 76 70 60 62 47 46 46 47 52
99 88 96 76 69 95 97 77 57 46 41 47 73 77 74 64 62 54 55 55 57 66 94 82 81 90 93 76 88 100 85 90 78 76 76 91 74 71 75 51 47 49 48 50 55

GFSSW_850_rhum_078.txt.gz
RH
38 28 32 21 18 20 14 10 9 9 9 8 7 6 5 6 5 5 8 22 19 16 19 18 16 18 33 31 29 28 41 46 36 31 26 18 16 12 12 11 14 15 17 14 25
42 41 30 38 19 13 14 12 10 10 9 9 8 6 6 6 4 2 22 23 22 21 22 20 20 16 39 36 34 38 44 38 28 22 21 18 16 14 12 12 12 19 18 19 30
55 48 49 29 26 16 10 10 10 9 10 11 10 8 6 8 5 14 18 24 26 24 19 10 14 19 30 36 36 34 38 28 23 18 17 18 18 16 12 16 13 20 26 29 38
86 70 52 39 37 16 10 10 9 8 10 12 11 11 6 9 10 31 24 24 28 20 20 24 33 21 25 40 33 41 29 26 23 20 19 18 15 15 13 12 10 12 17 28 32
80 69 49 44 28 22 12 7 7 7 8 11 13 13 14 25 9 5 22 23 26 19 15 38 37 22 25 26 25 34 30 26 24 21 19 17 16 16 14 12 10 12 22 29 31
80 72 62 43 22 18 10 8 5 5 6 8 21 39 47 74 3 18 21 24 24 24 20 20 30 31 25 29 31 25 24 25 23 20 18 17 15 13 12 11 10 12 16 26 33
78 75 76 75 46 16 8 7 5 4 5 10 39 59 83 11 3 6 9 21 23 22 19 19 22 16 18 31 28 27 32 26 23 21 20 16 18 16 12 10 11 10 11 19 30
83 81 68 62 49 20 9 7 4 4 11 28 51 75 84 5 32 24 21 15 20 23 25 20 25 18 16 25 31 34 34 39 25 22 19 18 25 16 13 12 11 10 10 12 27
85 78 67 57 38 17 10 6 11 28 22 28 55 79 69 34 30 26 26 28 35 31 26 27 26 21 19 38 48 42 45 40 32 21 21 19 22 16 12 12 13 11 10 11 25
79 78 78 61 42 25 11 30 42 50 60 67 87 98 43 23 31 24 22 22 30 33 30 25 23 26 42 52 58 49 47 41 38 23 20 23 20 16 14 13 14 12 12 17 32
82 86 80 64 54 31 56 54 65 54 56 66 73 74 46 47 44 34 23 22 32 39 46 34 40 48 32 40 44 43 46 46 37 28 29 33 27 23 19 19 14 14 15 26 30
76 88 81 64 48 41 81 75 82 90 78 63 49 40 45 46 52 30 25 24 40 55 47 53 55 40 30 34 37 40 45 44 35 27 26 28 28 26 22 22 16 16 19 26 46
81 82 81 64 45 45 77 76 78 74 75 62 44 50 40 28 47 26 28 29 40 50 52 62 52 40 37 51 62 46 44 43 42 38 31 29 36 35 27 22 14 15 14 18 36
74 73 74 74 51 63 66 66 69 79 97 59 50 42 38 36 40 22 29 25 34 52 62 67 66 62 67 68 58 75 35 38 46 53 64 41 67 42 33 29 19 17 15 19 37
70 72 72 75 77 60 73 72 64 78 72 27 34 26 30 33 30 31 30 25 60 58 61 59 62 67 75 73 61 66 36 44 56 65 72 49 68 44 32 29 21 19 16 21 32
76 77 75 72 75 60 72 72 68 82 81 36 32 30 39 34 32 26 25 24 37 58 59 55 49 59 64 58 56 43 54 53 58 69 85 49 63 51 37 28 21 19 16 20 40
75 74 84 92 69 65 64 74 92 89 32 32 40 34 39 39 36 30 34 51 57 66 71 57 57 50 59 67 57 61 70 87 90 91 80 40 53 44 32 25 22 19 16 19 44
82 80 82 84 71 71 91 95 88 43 43 30 35 33 40 34 35 37 41 49 48 51 69 77 74 61 62 62 74 77 85 98 88 95 71 43 56 37 25 22 19 17 17 31 55
85 87 79 56 74 74 98 97 66 51 36 50 40 28 36 18 20 40 43 48 47 48 62 72 71 51 56 56 62 91 98 72 99 96 96 72 46 24 20 20 20 21 36 50 55
84 99 76 48 70 87 99 83 63 41 43 46 58 40 43 37 38 37 60 77 65 51 46 62 80 55 62 57 64 80 81 100 100 96 96 64 55 44 46 38 24 22 38 49 51
86 95 51 62 70 98 92 75 54 45 41 53 62 57 41 42 38 41 74 78 58 55 55 69 77 71 72 84 84 94 96 93 86 91 98 98 81 51 63 56 38 29 29 45 49
97 97 73 77 96 93 88 64 50 48 49 47 49 53 45 41 41 39 54 67 58 56 70 82 84 91 77 52 65 79 94 86 93 96 82 89 82 71 73 57 34 29 32 30 37
94 99 60 65 97 94 82 67 58 57 53 51 60 46 42 45 41 39 67 64 56 64 73 73 84 84 72 59 70 74 74 79 93 91 99 97 80 74 65 66 46 43 46 39 43
99 98 83 84 68 92 87 76 74 55 58 50 44 48 50 47 42 43 57 66 57 72 64 68 81 85 87 79 85 100 96 95 96 100 83 86 69 83 74 75 62 49 55 58 57
99 93 76 95 97 86 84 88 85 69 51 50 52 54 54 52 44 46 43 75 65 72 77 82 90 86 79 70 66 65 84 77 92 96 93 63 71 85 92 83 65 54 58 66 73
95 98 76 97 99 98 98 86 92 70 93 73 72 59 65 64 59 65 54 57 64 77 79 82 90 82 86 62 62 78 76 68 67 87 86 74 80 78 91 86 60 52 58 72 82
93 94 99 80 74 87 91 92 98 100 85 68 74 83 77 68 70 64 61 57 60 86 86 96 100 93 92 72 72 91 81 71 64 75 77 92 65 83 91 87 80 56 66 82 90

GFSSW_850_rhum_081.txt.gz
RH
21 18 16 11 8 7 8 8 7 7 6 7 8 6 6 5 3 2 2 8 22 16 15 17 20 23 30 31 30 31 44 54 40 34 25 20 20 17 16 15 14 15 24 20 29
28 26 22 16 16 10 8 8 9 9 9 8 6 6 6 5 3 1 14 24 21 20 22 20 20 22 32 39 36 44 54 42 33 23 25 23 20 20 17 17 16 16 14 17 27
57 45 27 18 14 13 11 8 9 9 9 8 6 5 4 5 3 16 24 27 23 22 21 16 15 18 31 42 38 41 36 32 27 23 24 25 21 19 19 20 16 15 12 19 26
66 56 50 29 17 9 8 8 8 8 8 8 7 7 3 7 7 32 20 24 26 23 22 27 37 23 24 36 37 48 38 30 28 25 26 25 22 20 18 17 15 15 13 30 31
69 65 49 45 24 14 9 6 6 7 7 7 8 10 14 31 10 3 25 22 25 26 22 39 39 26 25 26 27 39 38 32 29 28 25 24 24 23 20 17 15 14 13 21 28
79 74 68 53 30 17 10 8 6 6 6 6 10 21 81 88 3 14 9 16 21 24 20 29 36 32 28 28 28 26 28 28 26 27 26 26 24 21 19 17 15 14 13 15 28
84 79 73 55 36 19 10 8 6 5 5 9 18 44 92 20 6 5 5 17 22 25 23 21 23 25 20 23 24 32 40 35 32 27 28 22 26 25 18 16 15 13 13 13 20
84 78 71 53 45 27 10 7 5 6 16 25 34 55 70 7 12 14 23 12 12 19 25 22 22 29 20 17 29 37 38 46 29 28 26 23 34 23 18 16 14 13 13 14 19
90 83 78 67 50 31 12 8 13 51 47 43 46 51 66 30 23 32 26 23 23 34 29 26 28 28 21 31 45 47 49 47 39 25 26 24 28 22 17 16 15 14 13 13 13
78 77 75 67 58 35 24 27 37 60 67 68 89 93 36 28 44 32 23 24 28 31 34 27 28 31 46 49 54 57 55 50 46 30 31 34 36 31 23 22 20 18 18 16 13
74 76 83 80 59 41 69 41 50 64 65 71 78 82 53 46 48 40 33 26 26 38 46 35 38 45 36 43 40 48 51 52 46 36 36 35 36 30 27 24 26 23 22 18 14
69 78 74 72 61 46 77 79 92 94 97 70 50 51 44 43 56 34 39 28 37 55 50 55 60 42 35 34 34 41 49 50 42 35 35 39 40 31 27 26 24 24 22 19 17
62 64 68 67 53 60 65 77 78 79 95 68 47 50 45 40 56 34 38 30 43 55 57 68 56 46 44 41 47 51 62 52 49 41 38 40 41 32 25 28 27 25 22 18 20
64 76 71 68 57 53 65 70 63 68 97 61 57 46 43 38 54 29 27 24 32 52 54 62 57 61 58 67 62 77 54 52 43 57 66 52 69 49 40 34 29 26 21 20 26
76 73 72 72 66 66 66 64 61 76 69 23 38 35 45 34 31 37 28 27 41 63 60 61 67 68 72 68 63 67 61 55 56 67 70 60 76 52 38 38 32 28 21 17 19
81 75 77 75 69 68 65 60 67 88 76 38 34 40 43 40 33 32 32 29 40 61 58 55 53 60 61 58 57 58 59 59 58 70 90 62 64 57 43 35 28 24 21 18 19
74 82 78 72 61 78 66 63 92 97 31 36 42 40 42 46 39 31 40 54 66 75 78 58 61 54 60 69 62 66 74 94 93 94 80 49 57 47 35 30 29 27 22 20 18
67 80 79 62 57 83 72 93 93 37 42 34 44 43 46 42 43 37 39 48 50 54 74 77 66 62 63 65 71 81 82 92 89 94 83 43 61 43 32 27 25 26 24 22 20
67 68 55 46 61 86 83 94 63 50 45 53 44 60 59 52 40 42 44 40 50 52 53 76 71 52 65 59 61 78 94 74 99 89 98 78 63 36 58 30 43 42 36 22 27
78 71 42 63 75 91 97 75 70 47 47 46 62 83 86 75 47 45 54 74 67 48 46 62 72 55 66 59 63 74 81 100 93 96 92 74 64 82 87 72 54 42 38 29 48
79 81 54 71 87 99 95 69 61 44 48 58 66 88 92 88 49 43 76 80 63 61 58 70 65 68 72 77 78 85 84 98 96 92 97 96 90 73 86 73 69 55 52 45 57
91 100 78 88 98 96 90 68 57 52 54 57 52 54 88 93 66 50 74 81 69 66 80 85 79 82 79 57 67 75 78 88 100 100 95 91 81 78 75 67 63 58 62 50 60
91 83 67 73 97 95 84 74 64 62 56 53 55 58 82 95 93 53 74 66 62 66 79 76 73 86 56 71 82 84 84 86 96 97 90 96 75 67 63 67 67 63 72 60 60
93 94 73 93 82 86 81 76 86 58 61 60 58 47 48 88 76 54 56 64 64 72 65 63 82 79 74 71 87 88 79 78 96 99 98 85 71 81 76 71 70 70 82 90 91
95 92 86 96 94 95 86 86 75 67 58 51 59 67 67 94 81 45 61 75 70 72 79 76 83 87 83 77 75 76 74 67 72 80 93 65 89 66 87 84 78 81 83 92 99
99 99 87 92 76 97 91 97 96 74 97 74 72 64 71 94 65 72 63 63 72 77 83 86 86 86 88 66 66 72 54 59 68 74 71 72 84 75 88 90 93 86 82 91 100
99 94 99 83 77 87 89 93 92 99 95 73 77 93 88 68 67 64 63 63 66 82 88 86 92 96 92 69 74 83 78 74 74 71 65 82 71 84 90 91 92 95 96 95 100

GFSSW_850_rhum_084.txt.gz
RH
9 10 7 7 7 6 6 6 7 7 6 6 6 5 5 4 2 2 1 1 4 15 10 23 31 30 32 31 32 30 40 53 38 35 23 22 21 18 18 17 17 16 15 16 23
25 19 19 11 6 6 7 6 6 6 6 6 6 6 4 4 3 1 11 19 22 23 18 16 22 25 33 37 36 40 53 39 33 27 26 22 22 22 21 20 19 18 15 16 15
58 45 31 22 12 8 6 7 6 5 6 6 5 5 5 3 4 15 25 25 23 24 21 24 26 27 36 45 43 44 42 33 30 24 22 26 28 23 21 25 19 18 14 15 16
52 50 38 25 21 13 9 8 7 6 5 6 6 6 5 5 6 24 23 25 24 23 24 23 23 24 32 41 40 50 44 33 27 24 27 29 25 26 23 23 19 19 17 17 15
54 54 49 43 31 20 11 8 6 6 6 6 7 8 10 23 6 2 25 22 24 27 24 35 42 26 25 24 27 44 43 37 32 31 30 28 31 29 26 23 20 20 19 17 15
84 69 54 43 37 33 14 9 6 6 7 6 8 11 33 69 6 6 4 14 22 25 24 35 44 37 26 27 27 25 28 29 28 28 28 31 30 29 26 23 22 20 18 17 15
86 76 59 50 39 28 15 9 6 6 8 8 17 33 54 12 4 6 5 16 14 21 28 23 26 20 20 21 22 28 44 40 37 32 33 27 33 33 24 22 21 19 18 15 14
73 81 65 50 37 30 15 9 7 16 19 32 49 62 61 4 5 4 12 10 9 20 26 25 26 28 26 22 25 38 39 48 33 34 30 28 33 25 21 21 20 19 17 15 14
55 52 73 52 38 29 16 11 16 41 58 51 50 63 54 21 29 25 32 29 21 16 16 26 28 29 23 33 35 45 50 49 41 29 30 33 35 25 20 21 20 18 18 19 18
60 56 65 60 38 30 19 17 21 66 68 72 93 93 32 33 49 41 32 30 31 36 34 33 31 34 43 39 46 49 52 52 50 37 40 43 41 33 28 27 27 24 22 20 19
59 50 54 48 37 39 38 47 44 55 50 69 71 93 58 47 42 46 33 35 24 38 47 33 41 51 41 45 34 42 50 53 44 38 42 37 36 33 31 30 30 26 23 22 20
58 50 62 42 43 42 53 80 86 91 97 73 61 48 26 22 55 28 38 38 39 56 48 55 56 40 34 35 36 39 44 46 43 37 39 46 45 36 34 33 28 28 24 21 22
49 54 63 44 40 44 46 81 70 81 98 76 50 62 58 51 65 44 36 34 39 55 60 64 55 50 46 48 48 49 57 60 62 54 44 49 48 36 29 28 24 24 23 23 25
78 70 62 40 39 51 57 53 65 78 96 67 57 49 48 50 65 30 33 33 35 53 57 63 52 58 55 53 51 76 58 61 62 64 72 55 79 39 38 40 38 34 28 25 22
73 74 63 56 62 63 64 49 64 79 90 22 36 43 47 49 35 38 38 32 39 54 57 58 74 75 73 67 63 70 63 69 69 73 70 66 78 54 40 40 40 36 29 23 22
54 62 65 62 60 66 65 49 63 82 73 41 30 34 41 44 44 37 33 29 33 65 60 50 54 57 53 58 60 58 63 64 60 61 88 62 64 63 50 42 36 32 26 22 19
50 53 57 66 69 64 66 56 84 95 36 29 49 42 42 40 43 36 46 62 66 74 75 60 65 58 60 62 63 65 78 89 92 91 87 53 66 57 41 35 32 33 28 24 21
55 51 44 49 60 63 75 88 88 34 48 40 45 47 59 74 54 40 50 58 52 55 78 77 62 65 64 60 67 83 81 77 93 91 85 66 66 51 66 58 59 56 47 37 28
62 52 48 54 63 65 72 83 59 59 55 57 50 74 68 73 91 52 47 51 50 55 53 71 65 60 64 61 61 79 91 73 94 83 93 79 65 55 66 70 66 64 59 58 50
74 57 58 69 78 92 92 74 67 54 50 54 67 76 87 81 91 78 61 63 60 54 46 62 71 60 68 61 62 68 84 99 99 99 96 74 74 79 84 76 72 74 68 74 65
78 67 70 82 87 89 98 79 63 49 52 60 68 70 70 80 92 93 67 85 65 64 60 63 60 69 70 79 86 89 90 96 96 99 98 98 83 75 77 72 69 70 76 88 60
82 98 81 92 97 98 100 69 60 62 56 56 63 64 66 76 77 95 99 92 80 71 86 82 75 86 73 56 67 70 77 71 100 95 95 95 85 75 75 66 59 62 79 95 71
87 86 76 87 100 100 86 74 67 74 63 59 59 50 87 70 87 90 100 86 81 78 85 77 78 75 46 64 84 91 83 94 97 99 97 99 77 64 56 58 59 64 86 97 98
90 92 75 99 96 91 92 78 74 69 72 63 62 61 63 66 68 82 93 90 73 73 70 60 83 64 62 63 82 95 73 70 82 98 85 86 82 53 69 72 67 81 89 99 100
88 93 91 98 89 96 91 95 85 82 60 56 63 67 65 82 86 90 97 94 77 74 80 67 79 85 78 75 75 75 78 74 81 72 82 63 68 60 62 78 85 88 89 99 100
92 96 97 98 86 94 87 85 87 87 96 78 77 62 62 94 76 96 90 64 71 76 83 87 91 90 88 67 62 76 60 55 57 58 68 67 73 54 55 89 89 88 91 98 100
93 96 98 84 87 93 89 86 94 97 81 84 74 92 93 78 63 65 71 70 68 80 88 86 94 96 94 67 79 69 67 72 68 67 67 81 64 66 79 87 94 96 96 99 100

GFSSW_850_rhum_090.txt.gz
RH
10 10 9 8 7 6 6 5 5 4 4 4 3 3 2 2 2 2 10 11 3 2 3 13 32 34 28 26 29 23 18 16 13 14 11 10 11 10 12 11 12 14 15 18 31
8 8 8 9 8 7 6 5 5 5 5 4 4 4 3 2 2 4 27 29 23 10 7 34 32 36 26 23 25 21 21 18 13 13 11 9 10 10 13 11 12 13 12 15 22
12 9 8 7 6 6 6 6 5 4 4 4 4 4 4 4 11 9 25 26 25 22 15 30 27 34 26 26 26 22 20 16 17 17 14 13 12 12 12 12 11 12 12 13 22
13 15 9 7 6 5 5 5 4 4 4 5 5 4 4 5 6 23 16 25 27 28 45 36 29 32 24 25 23 28 21 20 17 18 16 16 14 13 13 14 14 12 13 15 17
16 10 6 5 4 4 4 4 4 4 4 5 8 7 13 26 12 6 4 14 26 32 43 33 25 22 21 16 18 26 18 18 20 19 19 18 17 16 16 17 18 18 18 19 19
14 8 6 5 5 4 4 4 3 3 3 4 10 17 40 25 7 4 4 6 10 30 42 39 30 22 19 18 18 16 20 18 20 20 21 20 19 19 18 19 19 19 19 18 19
11 8 6 6 6 6 6 5 4 4 4 5 11 24 56 25 9 10 8 6 8 18 33 39 42 38 26 26 25 26 28 22 20 21 22 21 23 20 16 17 17 18 18 18 18
10 9 8 8 7 6 5 6 5 7 9 12 23 52 50 14 17 23 42 21 12 10 19 21 35 38 30 20 21 23 21 25 14 18 19 22 19 11 15 16 17 17 18 18 18
13 10 10 10 9 8 7 7 9 18 20 28 77 80 39 20 46 55 48 52 48 37 16 22 30 31 22 24 21 19 21 16 17 22 21 24 17 14 19 20 19 19 18 18 18
13 12 11 11 11 10 9 8 15 27 30 36 85 70 39 31 28 50 35 38 45 46 43 26 26 28 28 22 22 16 16 19 20 15 22 20 19 15 15 15 14 14 15 17 18
12 13 12 14 16 15 11 20 32 40 36 36 27 37 32 24 30 27 25 36 39 36 30 23 28 30 22 25 21 17 21 19 18 19 21 18 14 12 13 15 15 15 14 14 15
13 13 11 13 15 21 40 59 81 67 76 30 49 51 44 53 55 40 32 36 28 34 29 33 31 18 22 23 27 25 22 18 15 18 24 22 23 20 17 16 16 15 14 14 14
14 12 10 11 15 22 50 68 79 85 82 40 44 47 46 60 48 38 40 26 28 29 36 33 25 21 25 35 40 31 29 27 25 24 27 30 25 14 18 17 16 16 17 18 18
14 11 9 11 50 26 59 54 48 65 51 19 28 43 32 48 44 26 42 35 20 23 29 40 29 37 36 35 30 32 23 28 30 38 36 32 22 13 14 15 17 22 25 26 25
20 18 19 23 39 61 50 35 49 89 25 17 22 46 28 22 21 21 38 40 36 21 29 37 40 36 39 33 28 30 37 38 40 42 36 30 36 15 16 20 23 28 36 38 34
27 35 35 56 58 50 31 34 68 51 18 17 18 28 22 12 23 28 34 38 32 27 26 27 38 37 32 30 36 35 47 44 38 37 46 29 29 14 20 30 36 37 39 42 43
43 44 43 40 64 32 35 64 43 27 12 19 34 29 20 16 29 42 42 39 42 44 40 30 36 41 41 52 43 41 41 51 57 58 37 31 34 21 26 42 44 42 41 44 48
43 50 46 45 41 37 43 42 32 12 20 32 35 26 22 37 34 48 49 44 34 33 27 44 49 44 44 38 45 43 39 37 39 37 30 35 43 30 41 42 40 41 42 43 46
44 50 70 56 49 50 58 49 21 35 46 48 35 28 28 43 35 32 37 50 38 31 31 30 33 34 42 34 36 52 63 40 56 44 53 27 27 38 36 38 36 38 43 47 54
48 74 85 62 65 87 58 47 33 31 34 37 41 31 52 38 40 36 38 85 82 53 37 40 42 47 51 42 48 47 38 68 59 71 57 30 30 31 51 42 37 40 46 54 63
57 62 77 60 73 64 64 42 43 40 43 44 40 42 40 44 33 37 45 48 100 81 60 63 45 64 56 55 53 62 59 63 61 63 70 45 37 50 44 37 36 42 50 60 83
74 65 67 66 62 64 52 46 53 40 43 44 45 42 46 47 60 56 64 51 73 93 88 49 47 61 56 54 40 44 47 54 61 81 62 72 45 38 35 25 24 36 55 70 92
76 64 65 90 61 53 48 46 48 48 44 45 45 38 36 42 60 51 52 52 65 99 98 51 46 62 67 55 53 51 69 62 62 60 65 67 41 39 25 21 28 37 61 74 94
91 75 62 78 93 77 67 51 49 43 48 50 52 48 50 48 40 56 52 66 89 99 99 84 48 36 38 48 50 67 52 45 52 62 44 44 34 25 26 35 38 49 66 78 93
92 76 80 68 57 67 71 71 64 60 52 50 58 58 64 68 46 52 68 97 100 97 69 52 54 46 40 39 36 37 38 39 45 41 44 29 30 33 36 44 42 64 73 79 93
96 62 89 70 70 90 69 65 68 64 82 63 80 58 59 78 51 69 82 84 100 81 86 50 61 50 42 40 39 40 33 31 31 33 39 37 42 28 40 45 79 83 82 84 96
98 93 84 61 51 61 56 62 67 90 62 73 97 93 71 54 52 58 61 72 77 92 86 62 55 45 51 35 37 38 37 36 35 35 42 52 49 48 64 88 93 92 96 95 100

GFSSW_850_rhum_096.txt.gz
RH
6 5 5 5 5 5 5 4 4 3 3 3 3 3 3 3 2 3 35 25 24 16 13 7 18 33 27 25 26 23 24 25 20 18 15 10 9 8 6 6 6 7 6 10 23
6 5 6 7 6 5 5 4 4 3 3 3 3 3 3 3 3 10 26 20 16 17 17 16 11 23 24 23 21 19 27 24 16 13 12 10 8 8 8 8 7 7 8 8 16
6 7 7 6 5 4 3 3 2 2 2 2 1 2 3 3 39 27 8 6 4 6 15 27 13 14 16 16 16 17 24 20 16 14 12 11 11 10 9 9 8 9 9 9 10
8 9 7 5 4 3 2 3 2 2 2 2 2 2 3 8 20 19 14 9 4 4 15 29 25 14 14 14 15 16 15 15 16 15 14 14 13 12 11 12 12 11 10 10 10
9 7 5 4 4 4 4 4 3 3 2 2 2 3 4 53 29 16 13 6 4 19 41 29 22 19 15 12 11 15 13 12 14 14 15 16 14 15 14 13 12 12 12 11 11
8 6 5 5 5 5 4 3 3 3 3 2 3 5 16 40 14 14 17 16 14 14 26 24 20 18 17 14 14 12 12 11 11 13 12 15 14 14 15 15 14 14 13 13 12
8 6 5 6 6 6 5 4 3 3 3 4 6 12 60 32 17 20 20 21 17 12 11 15 18 20 18 19 18 14 15 12 12 11 11 13 17 16 14 15 16 16 14 14 14
8 7 7 6 7 6 4 3 4 5 5 8 20 77 56 25 25 22 22 25 27 25 16 13 14 16 19 20 19 20 19 23 16 14 14 15 24 15 15 16 15 16 15 14 14
8 8 8 7 6 4 4 6 11 18 12 16 59 76 40 31 19 29 28 26 27 28 28 23 13 15 19 26 28 24 28 24 18 11 10 10 13 10 11 13 13 10 13 14 14
10 9 8 7 5 4 5 24 23 25 40 58 67 48 41 21 17 19 18 15 22 19 24 28 18 17 17 21 31 26 21 18 17 12 11 14 13 11 11 12 12 14 14 13 12
11 10 8 6 6 8 10 31 26 47 55 20 18 34 19 14 17 22 23 22 17 14 22 24 26 23 17 16 16 16 16 17 14 9 11 14 15 11 12 12 10 10 11 11 11
12 9 8 6 6 29 46 38 45 47 45 25 22 20 18 18 23 21 25 19 13 15 12 22 30 23 15 11 14 16 19 19 14 12 13 12 12 9 9 9 10 9 9 9 9
10 8 6 6 17 45 48 44 46 58 46 25 21 20 22 26 26 22 20 21 21 22 17 18 18 16 18 18 15 18 20 18 20 14 13 14 14 13 12 12 11 10 10 11 11
9 8 8 22 54 43 47 47 51 72 54 25 19 21 28 28 21 20 20 19 15 20 23 23 15 12 14 19 16 21 15 17 22 23 25 14 25 16 13 12 12 12 12 12 20
9 8 12 13 30 42 45 50 54 75 58 16 19 32 22 20 15 12 11 8 11 18 21 25 20 20 16 17 16 21 16 20 23 24 24 24 26 19 15 13 12 20 22 26 27
13 13 30 58 65 58 49 33 69 81 55 13 11 16 18 17 15 12 9 7 9 15 20 21 16 17 19 12 17 24 19 23 25 27 41 28 28 24 19 14 19 27 27 31 35
20 22 23 54 65 46 19 63 56 50 9 13 17 18 20 19 15 12 11 10 12 36 39 37 27 24 17 13 29 28 37 67 70 56 56 26 24 23 18 28 29 28 30 37 42
26 30 36 70 34 36 72 49 46 16 14 17 20 20 21 16 20 27 25 24 19 42 68 70 49 25 23 27 51 45 39 60 65 56 45 25 30 28 18 24 26 32 34 41 50
51 67 76 66 29 80 66 59 32 24 20 24 23 24 20 18 19 27 26 22 19 56 88 69 49 26 23 37 50 49 53 45 61 46 69 75 22 32 32 35 28 29 37 48 55
76 71 66 23 36 87 59 54 25 20 21 23 32 25 31 24 24 24 24 19 22 59 54 65 90 40 31 34 51 48 37 50 50 93 83 81 55 77 60 37 25 25 39 52 61
71 57 76 29 73 72 70 32 25 22 22 25 29 31 30 34 40 40 39 29 69 49 49 47 76 58 62 61 51 31 54 45 51 50 77 52 60 65 63 34 28 34 41 59 68
69 66 68 51 64 37 44 30 26 24 23 22 22 27 34 36 40 42 37 28 39 45 59 55 100 82 80 44 44 21 40 56 61 54 39 67 93 76 45 27 37 39 45 61 70
60 48 40 81 75 43 29 26 24 26 24 26 31 29 27 33 51 35 33 24 56 60 68 91 76 94 80 64 35 26 24 38 61 50 82 73 93 75 54 40 51 55 55 63 71
66 76 47 50 41 48 45 33 32 27 30 34 37 32 49 58 48 56 45 35 54 75 69 97 88 84 90 67 39 39 32 50 61 66 63 59 78 56 43 46 59 62 60 65 74
74 72 50 60 46 46 49 53 49 48 42 38 42 38 45 56 46 40 55 68 63 68 96 100 94 98 96 89 58 70 68 84 75 53 48 36 49 48 48 62 65 69 71 77 84
72 58 35 46 53 60 58 51 47 50 57 54 63 51 53 71 57 55 54 63 90 76 99 98 94 91 93 70 50 78 84 70 35 36 32 33 41 45 49 78 82 88 89 94 98
59 52 52 40 40 46 54 42 46 60 56 48 59 64 63 75 69 73 71 61 63 73 100 99 100 52 42 22 27 42 29 27 54 58 55 70 61 53 70 90 96 97 97 99 100

GFSSW_850_rhum_099.txt.gz
RH
7 6 5 5 4 4 4 4 4 3 3 3 3 3 3 3 2 3 4 7 14 12 14 14 8 25 26 31 31 31 39 43 37 30 24 16 16 13 11 8 6 6 7 14 20
7 7 6 5 5 5 4 4 3 2 2 1 1 1 2 2 1 3 11 14 20 17 14 19 7 18 30 27 25 27 39 38 27 24 22 17 16 14 15 12 8 8 7 19 21
8 7 6 6 5 4 3 2 2 2 2 2 2 2 2 2 12 26 4 6 9 6 6 22 23 13 14 27 26 24 29 24 22 22 21 20 18 15 16 17 10 10 9 8 17
7 7 8 6 4 3 3 3 3 3 2 3 2 2 2 4 26 22 18 12 11 4 4 18 27 27 16 21 18 24 22 21 19 18 19 19 17 17 17 17 15 14 13 12 12
8 8 7 5 4 3 4 4 3 2 2 2 3 3 4 33 10 14 18 16 10 4 9 33 33 29 28 17 15 16 16 15 16 15 15 15 16 17 17 16 15 15 16 14 13
8 7 6 4 4 4 4 4 3 3 3 3 4 4 11 51 18 12 13 14 12 15 13 30 30 24 22 22 22 15 15 14 13 14 12 15 17 14 15 15 14 14 15 15 15
9 7 6 5 5 5 4 4 3 3 3 4 6 9 22 5 15 24 25 21 20 16 13 11 12 13 17 24 20 19 25 21 17 15 15 13 16 17 14 13 14 14 15 15 14
9 7 6 6 5 5 4 4 5 7 9 9 14 33 39 16 26 16 17 22 26 26 26 23 13 13 14 16 21 26 28 34 22 18 16 16 22 14 13 15 15 15 16 16 17
15 8 6 7 6 5 4 4 10 20 26 17 33 69 79 33 31 18 27 26 26 26 28 27 26 18 14 24 33 34 41 36 29 20 19 18 21 16 14 14 16 16 16 16 16
18 10 9 7 6 5 6 10 21 24 42 55 62 88 52 29 15 18 20 19 18 17 16 19 26 34 22 28 39 40 43 36 33 24 20 20 18 13 12 13 12 12 15 15 15
15 9 9 8 5 18 13 25 28 47 69 49 41 29 25 26 19 14 13 22 23 21 21 15 35 47 30 24 22 24 28 25 20 16 20 18 17 13 13 12 12 12 13 11 10
15 11 8 6 7 42 42 43 46 48 55 21 17 28 25 19 18 17 20 23 20 27 19 22 25 22 29 24 22 22 24 23 18 16 18 18 19 17 14 13 11 11 10 9 9
15 11 7 6 22 41 52 45 45 48 62 33 27 24 22 18 18 22 23 22 26 28 28 33 22 18 19 25 29 27 25 20 21 20 20 23 23 19 14 11 10 10 8 9 10
14 10 9 15 46 45 49 48 38 62 87 34 21 20 28 28 25 18 19 18 22 25 23 28 22 24 25 25 18 20 20 20 18 21 36 22 37 22 15 13 12 11 12 12 12
14 10 11 12 45 52 50 43 32 72 88 24 23 25 24 21 19 16 16 13 16 15 13 16 16 22 27 24 21 26 16 28 22 23 32 31 36 25 20 19 16 16 12 12 13
12 14 52 55 66 64 36 20 66 88 84 15 21 22 19 18 18 16 14 12 11 14 11 12 14 27 33 30 22 18 23 38 49 39 51 36 36 32 25 20 18 36 46 52 54
19 19 32 49 71 62 21 62 86 93 12 21 22 20 21 21 19 17 26 29 30 35 42 38 36 30 28 34 32 35 32 77 85 74 69 33 38 34 23 18 44 60 58 64 57
19 28 43 50 26 23 63 73 77 28 25 21 23 23 25 20 20 21 25 33 24 46 71 72 74 42 35 43 58 40 39 87 79 78 60 35 44 31 19 23 81 60 65 67 68
39 65 76 42 23 56 76 94 49 27 23 26 24 27 26 26 26 27 32 29 28 59 76 77 53 38 37 43 44 66 73 52 92 66 89 68 51 47 61 63 73 66 74 78 82
74 78 67 24 27 75 89 69 31 22 21 22 32 29 39 33 35 43 46 34 44 51 58 70 83 38 30 52 56 54 52 84 94 94 88 80 84 98 95 92 86 73 75 82 86
68 69 69 34 62 79 94 59 27 21 21 25 30 33 35 39 39 46 41 39 48 50 51 56 71 60 54 63 70 84 81 78 76 66 97 95 99 98 96 85 81 71 75 82 86
74 91 47 31 82 74 86 32 24 24 23 27 26 34 41 42 45 46 50 38 30 52 61 83 96 94 63 41 61 60 73 70 90 69 60 85 98 83 88 81 67 64 70 79 86
73 62 43 69 97 89 34 27 23 26 28 32 42 44 41 53 67 57 60 43 60 66 65 88 89 95 68 62 57 64 53 53 66 81 77 91 99 89 76 67 68 72 78 84 90
73 89 50 64 32 57 60 49 40 34 38 41 43 40 49 61 54 71 65 52 51 70 59 95 95 84 79 58 61 86 69 52 66 82 95 98 98 80 78 78 77 82 86 89 92
72 83 58 89 73 60 55 59 57 52 47 46 48 57 61 74 71 67 62 72 63 59 72 100 96 89 81 67 72 76 79 85 93 100 99 96 88 88 86 80 83 85 87 88 92
63 70 34 64 61 64 65 62 54 53 64 62 72 61 65 78 69 96 84 78 91 90 100 100 97 99 98 89 88 99 86 92 95 88 90 79 82 75 76 82 85 89 88 91 97
62 52 55 50 53 82 84 61 55 70 59 50 68 79 69 66 86 84 80 77 78 85 88 100 100 95 97 84 81 96 85 75 81 77 71 92 84 74 83 85 94 95 96 99 100

GFSSW_850_rhum_102.txt.gz
RH
8 5 4 3 3 3 3 3 3 3 3 2 2 1 1 1 1 1 1 2 6 16 19 14 15 11 28 29 30 38 52 52 47 40 33 24 23 19 16 15 14 12 8 8 27
8 6 4 4 3 4 4 4 3 2 1 2 2 2 2 2 1 1 16 11 9 9 12 17 16 10 24 30 28 32 50 50 37 32 31 25 24 23 19 18 15 15 20 30 34
9 6 5 4 4 4 4 3 2 2 2 3 2 2 2 2 3 21 6 5 7 9 7 9 19 27 15 23 30 29 37 33 29 25 24 25 26 24 22 21 16 17 16 19 36
9 7 6 5 5 4 3 2 3 3 3 3 3 3 2 3 9 22 18 18 13 11 4 6 23 31 20 18 17 37 29 26 24 22 21 22 19 21 21 20 16 15 16 15 15
12 8 7 6 5 4 3 3 3 3 3 3 3 3 4 14 3 4 14 18 14 11 5 15 31 35 38 27 19 20 18 17 17 19 20 20 21 21 19 16 16 16 16 16 15
14 9 7 6 5 3 4 4 4 3 4 4 4 5 8 48 9 15 15 16 20 16 12 15 32 32 25 28 29 22 20 20 18 16 15 17 17 16 15 13 15 13 13 12 13
20 21 9 6 4 4 4 4 3 4 6 7 7 8 13 3 6 17 27 26 23 23 20 11 12 16 16 18 17 19 26 25 24 23 20 16 20 18 14 12 12 12 12 12 12
41 27 9 6 5 5 5 4 4 4 13 20 18 18 15 4 26 20 22 22 21 21 21 26 28 25 16 14 15 24 29 39 25 24 22 19 28 18 15 13 14 13 12 11 13
48 28 12 6 6 6 4 4 5 6 21 29 22 51 49 32 31 23 21 21 21 24 23 21 23 23 23 20 27 33 31 32 29 24 26 25 28 20 16 15 16 16 15 15 15
52 20 10 7 6 6 7 8 13 22 31 45 53 80 31 26 18 16 15 18 20 22 22 22 20 38 30 30 34 33 46 41 40 24 27 30 28 22 18 17 14 13 11 12 16
40 29 12 8 6 13 18 29 26 35 53 43 38 39 29 32 29 20 16 14 22 23 24 19 24 34 44 30 28 26 24 25 21 18 22 21 19 19 17 15 16 14 14 12 11
42 22 11 8 7 44 36 40 37 33 45 11 14 41 36 19 30 16 12 19 24 29 24 24 29 23 27 36 32 30 30 30 24 20 21 20 20 17 18 16 14 14 12 11 10
60 16 11 7 27 53 49 46 45 40 52 32 25 29 22 22 24 19 21 24 26 32 32 39 30 23 25 27 29 31 36 35 33 25 22 22 24 20 18 16 14 13 12 11 10
33 15 10 9 39 50 55 50 46 46 72 36 30 25 27 25 25 18 16 15 16 20 23 29 24 24 22 23 25 33 25 27 26 25 39 29 40 22 22 20 17 15 13 12 11
20 14 11 27 54 54 49 44 27 71 32 31 30 23 27 21 18 18 16 13 18 19 17 20 18 17 19 16 15 21 30 30 27 32 64 38 48 29 24 23 20 17 44 47 32
17 13 16 26 53 49 42 25 68 78 40 21 23 21 22 18 16 15 17 21 20 20 19 20 15 15 20 29 34 32 37 34 36 68 77 54 57 39 30 26 22 67 80 89 92
16 14 41 46 46 56 39 64 74 73 23 25 27 22 25 23 22 22 25 28 35 41 40 38 40 32 31 43 40 40 47 67 87 86 71 40 46 36 40 32 26 72 87 92 100
17 18 34 34 25 34 31 68 70 34 27 23 24 24 26 28 26 27 35 46 28 43 71 79 62 41 38 39 46 44 70 70 81 81 64 41 53 55 80 74 81 87 94 93 98
24 40 45 33 24 38 67 92 49 28 24 26 24 30 33 29 32 36 45 46 42 58 75 79 66 43 40 37 61 64 75 55 71 59 70 73 50 61 70 81 80 88 90 93 93
65 62 64 23 40 77 82 72 30 22 21 23 33 31 41 35 39 45 47 38 44 46 61 68 80 44 37 40 46 69 49 82 89 84 80 73 75 100 97 94 93 93 94 92 95
74 77 72 55 74 72 90 68 28 21 22 26 31 37 36 44 39 47 44 37 44 47 56 55 75 57 53 58 66 82 92 75 74 87 75 88 98 100 100 98 98 92 88 91 95
78 92 62 61 78 83 82 35 24 25 24 30 32 37 48 54 60 59 55 47 44 56 63 86 93 89 66 46 40 63 84 74 88 63 77 94 98 100 100 100 93 82 85 89 92
69 60 39 70 91 90 43 30 26 39 42 48 49 49 44 56 78 75 65 52 53 60 66 76 82 92 67 67 69 88 92 83 83 100 89 98 99 96 95 83 78 80 82 86 90
66 88 61 74 43 62 62 52 47 40 44 49 50 49 68 74 62 76 68 56 54 63 56 88 92 85 83 58 55 72 87 86 78 94 94 96 97 91 82 84 79 80 82 86 93
74 81 60 91 74 64 65 57 59 54 53 51 57 65 70 78 75 74 73 83 72 67 75 100 99 92 88 73 65 66 94 96 98 98 95 97 94 92 88 83 83 82 84 90 96
69 52 57 70 43 58 65 61 56 54 62 67 73 70 74 86 75 83 85 82 84 83 100 78 98 98 96 82 81 91 100 86 81 92 96 91 89 79 78 77 82 90 90 93 98
61 58 48 70 68 82 86 68 61 69 59 58 63 88 87 72 68 77 83 78 72 82 83 91 99 98 97 94 93 90 97 88 84 82 76 88 92 70 79 81 92 94 96 99 100

GFSSW_850_rhum_105.txt.gz
RH
33 20 12 7 5 3 3 3 4 4 3 2 2 1 1 1 1 1 1 2 2 13 7 20 18 15 15 26 21 41 56 66 42 39 35 24 28 24 23 20 19 18 15 26 30
32 25 14 8 5 3 3 4 4 3 2 2 2 2 2 1 1 1 11 17 8 16 15 14 15 15 15 31 30 37 65 50 40 34 38 32 30 28 25 24 23 21 17 15 36
53 26 18 9 5 4 4 4 3 2 2 3 2 2 2 2 1 17 9 8 10 10 8 8 14 22 18 24 33 33 46 39 35 32 31 29 28 26 27 29 23 20 18 16 15
68 43 23 9 5 5 5 4 3 3 3 3 2 2 2 2 5 24 18 18 17 14 9 6 21 30 28 20 16 35 29 32 31 27 25 26 22 23 22 22 20 19 18 16 15
69 48 25 8 6 6 5 3 2 4 4 3 3 3 3 7 2 1 4 19 15 13 11 9 23 34 39 35 30 26 23 19 18 16 18 19 22 23 20 16 15 17 16 17 16
68 43 17 8 7 6 4 3 3 4 4 4 6 5 10 44 2 14 22 15 20 20 17 17 31 30 18 21 24 24 25 24 22 23 22 19 19 18 17 16 15 14 16 16 14
72 58 18 16 17 7 5 4 3 4 4 7 16 16 16 3 2 18 17 24 24 23 21 22 14 15 17 19 16 17 25 20 20 24 25 20 25 24 18 16 15 14 13 13 12
89 76 46 43 16 8 5 5 4 4 5 12 27 27 17 3 9 8 15 21 22 22 22 24 22 22 22 18 17 20 21 30 26 24 21 22 34 23 19 19 18 16 15 14 13
93 70 50 46 20 8 5 5 4 4 9 18 33 36 25 18 28 25 28 27 21 20 21 21 23 23 23 28 40 29 29 32 26 23 26 27 35 24 21 21 21 20 19 17 15
91 70 54 40 15 7 6 7 16 28 30 37 48 67 16 25 22 17 18 14 18 20 21 18 25 38 35 41 55 28 40 39 38 30 19 21 23 17 16 15 15 17 18 17 16
88 79 55 36 9 7 11 23 36 41 55 29 40 34 35 35 23 20 18 17 15 23 28 22 22 29 32 36 38 38 43 42 34 27 26 27 26 22 18 17 16 16 17 16 13
91 82 58 20 8 16 31 37 32 37 34 11 27 47 33 37 44 16 15 17 26 34 27 28 34 24 21 31 39 40 43 42 33 27 29 30 30 24 21 18 16 16 16 15 13
98 74 34 13 8 41 45 43 43 44 36 16 19 21 19 17 23 22 20 24 28 32 33 42 33 25 26 29 32 36 40 39 39 28 26 28 30 25 21 19 16 15 16 18 47
92 60 45 11 13 52 49 47 47 27 63 32 35 27 26 22 24 20 14 15 16 19 19 23 20 20 20 20 19 20 19 26 28 38 46 34 49 33 30 25 22 18 59 89 85
80 78 22 11 47 53 50 50 40 55 21 32 31 23 21 22 18 19 19 16 18 19 18 25 20 21 22 18 15 17 20 34 43 48 45 39 51 41 31 30 26 42 84 91 98
93 50 15 12 52 50 45 18 61 69 34 30 22 21 21 20 19 19 20 18 21 23 22 24 21 17 19 24 30 34 41 37 41 50 65 40 51 45 38 32 33 87 93 95 98
70 23 15 22 54 51 35 64 78 90 25 30 28 23 29 28 26 25 30 34 32 44 44 44 40 34 34 46 41 44 55 81 83 71 61 35 44 40 79 80 86 91 97 98 90
29 19 31 52 57 51 29 68 75 39 31 24 24 25 34 28 29 33 42 44 37 53 79 81 55 41 44 41 49 48 58 76 69 73 61 50 64 92 86 82 85 89 93 99 99
22 26 52 52 32 35 64 88 46 30 26 27 26 32 34 30 30 37 43 46 42 46 67 75 69 42 38 38 44 66 68 47 66 59 80 60 44 74 92 95 87 96 97 99 100
32 55 50 35 31 70 81 71 32 25 25 26 31 32 39 35 38 45 46 36 42 38 58 61 74 45 37 41 40 58 47 88 90 95 91 56 70 97 98 97 98 98 98 99 100
72 63 51 38 80 73 87 73 29 26 26 27 32 36 34 52 44 49 49 40 46 49 56 63 76 56 54 58 55 77 88 82 78 76 86 78 98 100 99 100 99 95 93 99 100
75 93 62 81 82 82 84 49 25 26 26 34 35 46 52 53 60 60 61 46 36 54 68 65 98 92 60 42 39 44 62 100 94 87 74 81 99 100 100 98 97 83 83 91 98
65 75 61 82 94 94 58 34 40 42 46 49 52 50 50 57 75 73 69 54 54 64 66 75 84 92 62 77 70 90 98 97 100 97 84 92 98 97 98 83 89 90 90 91 96
44 88 72 81 59 62 60 51 56 42 54 50 52 55 65 74 67 78 74 58 63 65 61 68 89 84 74 56 54 90 87 89 98 98 95 97 95 90 88 84 84 91 94 94 94
68 79 63 93 71 67 64 56 57 55 55 50 58 68 72 82 74 77 71 81 70 66 75 94 97 93 83 69 76 96 98 95 97 95 90 97 92 92 86 88 93 94 89 89 94
63 59 68 65 59 73 65 66 58 54 60 65 69 68 75 89 71 79 72 79 87 79 93 100 93 97 94 79 96 95 92 75 95 96 95 89 89 81 77 81 81 90 92 94 97
58 55 44 62 62 79 80 68 66 69 62 54 64 74 91 81 71 70 70 76 75 86 97 98 98 97 97 91 78 83 97 94 90 86 74 84 90 76 80 79 92 93 97 98 98

GFSSW_850_rhum_108.txt.gz
RH
68 61 49 35 26 13 7 4 4 4 4 3 2 2 1 1 1 1 1 1 3 4 6 10 19 17 16 20 24 42 52 65 38 35 31 26 33 28 28 26 25 22 23 21 17
72 68 56 43 23 15 7 5 4 5 4 3 2 2 2 2 1 1 13 15 20 16 19 19 15 12 18 26 30 42 75 55 40 32 35 35 35 31 28 27 26 26 22 18 19
85 81 73 49 28 16 6 5 5 5 3 2 2 2 2 2 2 17 10 10 11 15 12 7 10 22 15 30 34 38 51 44 38 35 34 34 31 29 29 31 26 24 18 16 17
91 89 80 49 32 16 7 6 6 4 3 3 3 2 2 2 3 24 19 17 16 15 11 6 14 30 32 21 20 39 34 33 31 22 25 29 24 26 24 23 18 16 16 16 14
99 92 87 54 39 13 7 6 6 4 4 4 4 3 3 5 2 1 2 8 18 14 14 10 22 33 39 37 31 31 28 22 20 19 21 20 22 23 21 19 17 17 16 15 14
100 95 87 63 40 14 10 8 5 4 4 4 5 5 10 22 3 4 13 20 16 20 21 16 37 32 20 20 21 23 20 22 19 18 20 24 23 22 20 19 19 18 16 15 14
100 98 88 73 58 24 28 12 5 4 5 4 11 17 18 3 2 3 19 16 19 22 23 22 19 16 18 23 18 17 22 20 20 24 26 24 28 27 21 21 20 18 18 18 18
97 100 92 87 69 44 33 10 5 4 4 8 20 26 16 5 5 5 20 21 23 22 22 22 24 22 23 22 26 25 22 25 24 20 17 23 25 21 20 18 17 16 13 11 12
98 99 95 91 73 55 31 11 5 6 6 14 27 35 22 16 16 24 26 20 23 23 22 21 21 24 23 36 45 35 31 31 26 27 23 25 30 25 20 18 19 19 18 17 17
98 100 100 90 62 48 20 7 11 18 30 33 46 57 16 26 29 22 21 21 19 20 23 20 26 40 39 44 48 30 32 37 43 32 28 32 31 23 21 21 21 20 20 18 17
100 100 100 88 62 39 9 15 35 43 54 17 31 26 34 34 23 18 16 19 16 23 29 24 27 40 38 39 38 32 44 53 41 35 36 37 32 27 24 23 23 22 20 18 17
100 100 99 100 72 19 10 32 30 38 32 12 19 34 30 33 41 23 19 18 24 29 30 32 36 27 21 25 36 38 45 49 38 32 32 34 29 22 22 23 22 21 20 19 18
100 100 100 94 58 13 32 36 36 38 30 12 15 14 12 19 25 19 20 24 31 35 33 40 34 28 27 28 34 39 43 41 37 26 28 30 30 20 20 20 21 23 22 26 32
100 100 96 85 47 19 50 42 41 25 43 29 36 31 29 23 25 21 17 17 17 24 19 22 21 19 19 20 21 24 22 26 24 28 28 36 42 25 25 27 24 20 22 95 100
100 98 98 84 39 43 44 47 46 38 22 32 31 22 25 24 20 20 19 17 20 21 19 25 22 26 25 24 17 22 19 23 26 50 56 34 43 25 23 26 41 80 96 99 100
100 99 93 75 40 56 54 51 29 52 29 32 22 22 24 23 22 21 19 17 22 25 23 24 26 22 25 22 26 28 42 44 44 54 61 33 34 34 42 98 94 88 90 98 98
100 100 91 42 32 64 52 57 60 65 25 32 28 27 30 30 29 27 30 33 28 33 47 50 43 34 37 44 41 44 52 79 79 93 58 31 43 48 98 98 98 97 96 99 100
100 96 49 33 52 66 46 83 87 40 35 24 25 32 35 28 31 35 37 38 49 53 68 76 60 45 42 43 50 50 53 66 71 71 62 40 59 97 88 82 96 100 99 99 99
98 79 31 39 61 70 68 92 33 34 28 29 27 36 37 31 31 36 41 43 41 43 56 63 72 43 34 33 42 60 67 44 55 49 66 66 58 77 69 74 84 98 99 99 99
74 37 54 71 66 58 82 62 34 26 26 26 34 33 42 34 38 44 44 40 40 38 50 65 81 43 39 40 45 55 53 79 84 97 96 71 80 96 92 88 86 94 96 98 98
54 62 77 56 54 76 90 76 30 26 25 29 34 39 37 50 46 51 50 40 44 47 58 64 76 54 54 58 53 71 81 72 72 86 93 92 94 99 96 95 94 95 97 98 98
60 95 67 55 89 85 89 56 26 30 31 40 44 44 51 56 58 60 60 46 46 51 64 60 93 86 64 46 50 48 60 75 94 94 79 86 98 96 94 96 90 85 88 93 97
80 85 82 91 96 97 65 42 43 44 49 48 56 49 50 58 67 65 67 54 60 61 67 74 84 94 61 84 77 77 92 99 97 96 96 92 98 91 93 75 78 88 94 96 97
55 96 86 89 76 71 58 57 54 48 54 49 53 56 67 74 67 74 76 58 64 66 62 68 84 83 72 44 50 81 80 95 96 96 94 98 96 93 92 77 79 87 95 99 98
50 83 66 96 65 70 62 57 59 60 56 50 58 67 70 81 77 80 70 81 66 62 70 87 95 90 84 69 73 97 96 92 98 93 95 97 93 94 92 84 92 97 94 95 98
64 70 68 75 63 72 63 63 59 58 62 63 63 69 75 85 71 78 75 79 85 74 97 100 93 97 90 74 96 95 95 90 88 95 95 92 91 86 93 95 92 93 94 95 98
56 57 36 57 68 69 74 68 61 70 60 55 64 73 87 81 70 65 63 74 80 87 97 98 98 97 96 88 87 87 96 95 88 85 84 83 89 87 86 86 93 95 98 98 99

GFSSW_850_rhum_111.txt.gz
RH
82 78 70 62 58 38 26 17 9 6 5 5 4 4 2 2 1 1 1 3 2 3 4 11 16 17 15 20 34 36 32 35 25 26 21 27 31 28 29 28 28 25 25 26 20
92 88 82 76 72 56 34 23 9 7 6 6 4 2 2 1 1 2 11 13 20 16 12 11 16 14 18 21 26 39 47 35 29 24 26 32 34 31 30 28 28 27 23 17 15
92 93 90 87 80 58 41 24 10 7 6 5 4 2 2 2 3 16 12 13 18 20 16 16 15 17 17 34 35 39 24 37 38 35 36 31 28 28 25 24 24 23 17 15 15
95 92 98 93 87 69 52 21 10 7 6 5 3 2 3 2 5 22 17 17 16 15 11 7 13 28 28 20 27 34 35 34 32 28 27 26 25 22 22 21 18 19 18 18 16
97 95 95 99 88 78 61 24 16 10 6 4 3 3 3 4 2 1 3 13 14 14 14 11 16 29 32 33 32 30 26 24 22 20 22 21 21 21 21 20 20 20 20 19 18
99 98 100 99 93 80 73 36 29 17 6 4 4 4 9 15 4 3 3 9 17 19 21 18 34 28 24 23 23 27 20 18 18 17 18 20 21 25 22 23 20 18 16 14 13
99 100 100 98 98 85 81 50 41 17 6 5 5 9 8 3 3 2 3 19 18 21 23 22 18 15 18 23 20 18 20 19 15 21 22 27 19 26 24 19 17 17 17 17 16
100 100 100 99 99 91 85 61 38 15 7 5 8 14 10 3 5 4 10 22 20 25 24 23 22 23 24 24 29 27 24 22 21 23 19 21 14 23 22 20 18 20 20 18 14
98 97 100 100 99 97 85 56 26 14 8 11 21 25 13 13 17 23 14 18 24 20 24 22 23 25 23 31 34 32 21 25 21 24 25 23 22 19 20 20 21 20 19 20 17
100 99 100 99 100 99 77 38 14 13 26 28 40 39 12 20 30 30 33 30 27 22 22 21 27 31 33 32 20 21 24 29 29 27 24 27 27 21 22 21 19 20 21 21 19
94 100 100 100 100 97 74 21 32 38 56 16 23 16 28 31 26 20 17 18 18 22 27 25 25 30 26 34 33 34 34 35 34 27 34 32 23 17 17 17 19 19 17 18 20
100 100 100 100 100 97 52 13 34 34 37 13 17 34 26 35 32 23 19 20 23 23 29 28 31 25 22 25 28 30 32 32 30 28 24 17 17 13 14 18 15 16 18 19 23
97 100 100 100 99 95 26 36 38 37 33 14 14 18 12 16 35 19 17 16 26 28 32 29 26 27 27 26 29 30 32 29 23 20 17 18 17 14 12 13 18 37 76 90 96
100 99 100 100 99 81 33 50 40 48 33 20 28 29 29 23 25 21 18 24 20 32 34 29 21 21 20 20 19 23 20 20 21 22 21 22 26 17 15 22 64 82 87 91 96
99 98 100 100 87 70 72 62 56 42 43 32 36 27 28 26 22 19 20 16 21 20 21 25 23 27 28 24 19 24 21 26 28 30 37 28 36 18 15 44 77 75 80 88 93
100 100 100 99 94 69 52 59 46 52 35 33 22 23 24 24 23 20 18 19 23 25 24 25 31 26 26 23 24 32 37 37 40 42 40 25 27 23 70 95 90 79 84 91 93
100 100 100 100 72 60 51 55 59 48 25 30 26 27 28 30 28 26 27 27 23 26 34 39 31 35 36 38 39 35 38 49 53 60 40 35 36 35 91 87 82 85 87 91 90
100 100 100 96 80 66 70 79 41 34 33 33 30 30 30 27 31 34 30 33 45 40 50 43 35 45 38 39 39 39 39 44 54 48 41 28 32 58 70 68 74 78 82 86 94
99 100 98 59 63 72 52 58 37 35 28 28 29 34 35 31 32 34 37 36 42 38 40 45 53 42 38 32 32 49 55 36 46 40 50 35 52 71 62 67 69 84 79 86 98
99 99 86 56 80 76 80 40 40 27 25 26 32 32 40 32 36 40 37 37 39 40 39 53 64 42 34 40 40 38 39 69 59 86 76 49 47 72 89 86 77 82 88 92 98
99 96 99 96 87 78 83 56 31 26 26 30 33 35 35 40 40 44 36 36 43 56 53 54 52 42 47 47 44 59 59 53 53 54 76 73 82 94 94 90 89 83 87 97 99
91 98 97 95 88 87 76 60 27 30 33 38 39 36 43 50 50 50 48 44 46 51 53 58 78 77 58 43 53 48 50 77 87 72 83 86 83 86 91 89 92 78 91 92 97
97 99 96 86 98 86 68 45 39 41 45 47 52 50 48 52 53 55 57 60 50 58 61 73 76 71 60 86 68 62 64 79 97 84 81 88 92 83 91 84 80 88 87 90 96
83 97 98 93 85 59 62 54 54 51 51 48 52 56 62 61 61 65 66 60 63 62 62 71 78 74 43 31 39 67 72 77 94 90 64 92 91 86 89 76 77 88 89 95 98
63 90 73 91 86 74 62 57 56 61 54 50 59 60 60 69 71 70 66 72 65 64 64 83 85 84 79 63 66 91 88 89 92 80 83 93 90 91 90 87 89 90 92 92 96
73 75 73 66 68 82 65 63 57 61 61 58 58 66 64 68 58 74 70 74 77 70 90 92 87 97 94 63 81 89 91 93 93 95 91 92 89 76 83 84 87 92 94 93 97
68 57 61 71 66 62 69 64 63 71 60 56 64 69 74 68 65 58 58 68 68 76 95 96 93 91 87 86 84 92 94 93 93 89 91 86 80 75 78 81 92 93 96 97 100

GFSSW_850_rhum_114.txt.gz
RH
85 85 84 83 81 77 72 62 55 33 21 12 10 8 6 5 3 2 10 10 4 3 3 12 20 24 21 20 28 23 16 16 16 16 14 13 18 16 23 21 19 22 22 23 23
91 88 87 88 84 85 78 66 54 30 19 17 13 9 5 3 2 5 15 13 18 9 20 19 16 17 13 16 19 17 14 14 12 13 13 13 16 15 19 18 18 18 19 19 17
97 90 92 93 92 91 83 69 52 26 16 15 13 8 5 2 11 19 13 14 20 20 25 23 18 14 12 17 17 15 17 11 18 17 17 17 18 16 15 15 15 16 16 16 19
97 94 95 93 90 95 85 73 54 27 27 21 13 9 3 3 11 13 18 16 16 15 21 20 17 14 9 11 16 20 16 15 15 19 19 16 14 14 14 14 16 16 18 20 20
99 97 94 95 97 95 90 75 66 32 44 26 13 7 4 15 9 5 2 17 18 15 19 17 15 13 11 11 15 20 13 15 19 18 16 16 15 15 14 14 15 19 19 18 18
100 98 99 99 99 86 90 81 75 54 46 21 11 6 12 17 10 5 3 3 14 22 21 20 16 16 16 16 17 17 20 18 16 15 13 13 12 13 14 19 17 15 14 15 15
100 100 100 99 100 96 89 89 83 67 44 19 10 7 24 21 10 4 3 6 26 27 24 26 24 21 16 14 17 16 17 12 11 10 13 17 15 16 14 18 15 14 12 12 13
100 100 100 99 99 100 97 93 84 73 46 18 10 15 28 10 4 3 9 14 22 20 26 23 22 21 20 21 20 19 17 14 13 16 14 14 11 8 17 16 13 12 12 12 12
100 100 100 100 100 100 99 97 85 63 30 24 20 27 23 12 15 25 14 20 27 28 28 24 23 23 24 21 17 18 10 10 11 13 14 14 12 10 12 13 15 14 12 11 12
100 100 99 100 99 100 98 98 79 50 32 33 50 52 24 14 36 25 25 30 23 24 23 24 21 20 20 19 14 11 14 12 14 11 15 15 14 10 13 13 14 14 12 12 11
95 100 95 100 99 98 99 88 54 55 48 34 27 24 23 40 26 23 28 24 23 22 21 21 21 21 16 16 17 18 19 17 13 14 18 17 14 10 8 8 8 9 11 12 23
100 94 98 99 100 98 100 76 32 43 42 37 25 33 30 26 30 23 21 19 20 19 18 24 23 16 18 18 20 20 19 17 15 18 17 12 10 8 7 9 12 11 24 50 57
90 99 98 100 100 100 99 60 36 28 34 28 23 25 29 37 18 17 23 18 18 16 18 19 13 19 19 19 22 20 22 20 18 13 11 11 11 7 10 10 24 49 54 57 63
100 98 100 100 100 99 83 52 35 43 57 40 18 20 28 25 20 22 20 16 15 16 15 19 14 20 21 21 19 21 14 15 16 17 15 11 18 13 9 16 37 45 53 60 63
83 98 92 100 99 99 72 48 56 43 89 26 25 30 28 18 18 18 20 19 18 20 22 20 20 22 23 20 17 18 18 20 21 22 22 18 20 15 9 15 45 57 65 64 66
87 88 97 100 100 88 78 69 39 64 70 30 22 24 22 19 20 18 18 21 21 19 19 18 21 19 18 18 19 18 23 20 22 25 30 18 15 15 23 69 72 68 73 68 67
98 90 100 100 96 88 61 53 62 58 20 27 25 22 24 22 21 19 19 20 21 26 27 22 22 20 24 23 23 25 27 29 30 41 31 20 26 16 62 63 64 67 68 67 72
99 100 99 100 98 67 62 76 88 43 26 23 22 23 29 24 24 24 23 24 26 23 26 26 26 25 28 25 24 30 29 28 24 20 18 24 29 26 54 52 55 61 66 72 77
98 100 100 99 92 84 75 92 51 39 21 22 24 28 28 24 24 25 26 23 22 25 28 28 26 27 32 29 27 28 38 23 34 30 39 26 18 46 52 56 56 64 70 78 83
97 100 100 94 99 90 84 72 40 21 20 18 22 23 28 27 28 27 25 22 30 26 23 30 37 25 27 30 27 28 27 53 42 64 53 29 28 59 89 79 72 77 78 86 91
100 99 100 100 99 99 88 64 32 21 21 22 22 28 24 28 26 27 22 27 29 32 30 34 39 30 34 33 29 39 43 41 42 46 58 57 76 92 93 91 85 70 69 82 92
99 97 99 100 96 96 72 43 28 22 24 25 23 25 26 27 31 30 32 28 30 37 38 36 52 49 38 31 35 30 35 40 60 61 50 62 69 76 85 80 77 68 71 78 89
98 98 100 100 94 83 48 40 28 24 25 28 31 28 35 34 41 36 40 44 46 39 39 50 51 55 52 79 56 75 50 40 58 77 69 78 79 76 84 71 79 81 76 80 88
94 98 99 100 93 59 53 42 36 32 30 34 40 38 41 41 36 43 44 51 56 49 56 56 57 64 43 32 32 51 65 67 77 86 60 75 93 84 85 83 80 80 84 91 94
99 84 73 95 87 56 44 38 35 41 38 38 47 38 36 43 44 47 43 57 55 60 50 61 66 66 66 51 47 64 71 67 88 73 90 90 88 89 89 88 85 94 91 92 94
97 64 62 60 59 61 49 40 36 47 46 40 38 38 38 40 38 50 52 55 68 49 52 54 70 79 81 60 63 93 83 79 91 81 93 91 86 86 72 84 84 91 93 93 95
90 61 55 58 58 60 55 42 45 63 48 36 36 46 49 40 42 41 43 52 52 63 76 96 85 89 82 65 80 91 91 93 91 84 88 86 84 79 71 76 90 91 94 95 97

GFSSW_850_rhum_117.txt.gz
RH
85 85 84 81 81 80 76 75 69 62 47 43 33 24 23 13 15 19 22 16 15 5 3 22 20 19 15 16 19 17 14 15 13 12 12 10 12 13 13 17 15 16 18 18 19
91 89 85 83 82 81 83 76 70 64 50 48 48 36 23 12 16 24 20 13 13 10 11 17 13 14 13 12 14 15 14 13 10 10 12 11 10 12 12 13 15 14 15 16 17
94 93 87 86 84 84 82 85 72 66 58 54 53 45 28 16 31 21 11 12 15 14 26 16 14 12 11 11 12 12 15 11 10 10 14 12 13 12 13 13 12 12 14 14 15
97 94 93 89 88 89 89 85 78 70 63 60 55 48 25 23 22 24 9 12 14 20 23 17 14 11 9 8 10 11 11 11 10 10 13 13 13 12 11 11 12 12 13 15 17
96 99 99 97 91 93 94 83 87 76 67 64 55 45 39 30 21 15 9 6 15 25 16 13 12 11 11 8 8 8 9 8 8 11 13 12 11 10 10 10 10 10 15 15 15
98 99 98 100 96 98 95 85 88 83 76 70 54 29 42 34 19 17 17 31 25 21 14 11 9 9 10 9 10 9 10 11 10 10 10 10 9 8 7 9 12 12 12 12 11
100 100 100 100 100 99 100 93 90 86 78 73 53 24 47 37 24 21 20 16 19 16 15 17 18 18 11 11 10 11 11 8 7 7 8 10 12 10 9 11 14 12 11 10 10
100 100 100 100 100 100 99 100 97 87 81 72 36 33 47 30 24 20 16 19 18 17 18 18 18 16 13 12 13 12 12 13 8 9 8 11 12 6 10 11 11 10 9 9 9
99 100 100 100 100 100 100 100 98 90 76 65 40 65 38 24 20 23 19 14 18 21 21 21 18 15 14 18 15 11 15 14 10 9 9 10 11 7 8 11 10 10 11 10 9
98 97 100 100 100 100 99 100 96 83 69 65 68 58 34 16 25 22 27 18 16 19 20 20 15 15 15 15 18 16 12 10 11 8 8 10 11 9 8 8 10 10 9 10 9
84 100 99 100 97 99 100 99 71 72 69 48 36 33 24 27 26 19 30 29 16 15 18 14 16 18 14 13 12 14 16 14 10 8 9 11 12 9 7 6 6 6 6 7 16
84 99 99 99 98 100 100 96 52 60 53 46 42 36 32 26 26 21 20 18 18 18 15 16 22 16 12 12 16 17 16 14 10 9 11 14 12 8 7 6 6 8 9 27 37
76 95 100 95 100 100 100 94 82 61 48 42 38 35 31 28 27 18 20 17 14 18 16 17 16 12 14 15 17 16 15 15 14 12 10 11 11 9 8 8 8 25 33 34 40
91 95 100 99 100 100 99 92 68 50 69 36 27 22 23 26 22 20 14 20 14 16 14 14 11 13 14 17 15 17 11 13 15 16 19 13 20 14 11 10 15 28 40 46 50
98 96 77 100 97 99 81 82 53 66 74 22 19 20 22 17 17 17 15 13 14 14 15 17 13 18 17 14 14 18 14 17 17 18 20 17 18 15 11 11 23 38 47 50 51
100 96 94 100 100 98 88 68 60 72 72 28 21 23 21 16 16 16 16 16 16 14 14 17 14 15 15 13 14 14 17 19 19 21 30 21 19 16 26 48 43 44 49 52 55
99 99 97 96 98 99 80 63 92 74 23 26 24 21 20 20 18 16 18 20 20 26 25 18 17 15 18 20 16 20 26 35 35 31 31 18 18 16 39 43 48 48 51 57 61
100 100 100 100 99 96 78 80 96 33 31 18 19 20 25 20 20 20 19 20 17 19 22 30 36 18 16 23 18 17 23 33 39 32 24 12 21 28 38 39 44 52 56 64 69
100 100 100 99 100 95 78 99 56 40 26 23 20 25 25 23 23 23 24 22 18 20 29 24 21 17 22 18 20 19 24 20 31 28 35 23 15 31 42 48 52 59 61 70 75
100 100 100 100 99 83 98 89 51 32 22 19 28 24 28 26 27 26 24 19 20 21 20 24 32 16 16 21 22 25 18 35 34 54 45 24 20 66 90 75 66 68 63 71 81
100 98 100 100 96 100 97 58 41 26 21 23 25 24 24 24 24 25 21 20 22 24 21 19 32 25 21 25 26 22 33 29 29 44 55 55 81 88 88 86 82 65 62 70 83
99 98 100 100 97 98 79 52 41 26 20 20 22 21 24 22 24 22 24 19 23 22 33 24 38 42 25 17 20 23 26 30 53 45 52 43 57 69 78 72 69 74 79 69 81
99 99 100 100 96 80 52 48 36 28 22 23 25 22 20 23 29 24 29 29 30 29 29 31 38 48 36 35 40 52 38 27 39 57 65 82 72 69 73 66 73 82 80 83 86
86 97 99 100 99 65 59 51 41 28 24 23 23 22 27 26 26 34 32 39 37 31 46 42 52 58 50 62 42 53 44 44 44 62 50 56 95 87 86 79 76 90 94 94 92
92 88 72 94 96 72 57 46 42 35 24 24 29 29 27 33 31 38 31 38 48 49 45 42 59 61 50 41 37 42 49 51 73 62 86 78 83 87 90 82 90 95 95 94 95
95 78 66 52 68 75 68 52 45 35 33 34 32 28 28 35 32 33 33 44 58 38 44 41 64 73 75 50 51 69 64 60 79 82 83 88 88 86 84 89 90 94 95 94 95
90 68 60 58 66 72 65 49 42 36 33 28 29 32 35 32 25 27 28 35 39 50 48 58 82 82 76 49 60 86 88 78 90 75 86 85 82 81 83 81 92 94 96 97 97

GFSSW_850_rhum_120.txt.gz
RH
85 85 83 82 80 78 76 78 69 61 57 54 52 51 47 44 36 25 29 19 17 12 6 15 19 19 16 14 17 15 19 18 14 13 11 9 10 10 11 13 14 15 14 16 16
90 88 85 84 81 79 79 76 78 67 58 58 56 51 47 42 26 28 22 9 9 9 6 18 14 12 14 13 12 14 18 16 11 9 10 10 11 11 11 11 12 13 13 14 16
93 94 91 89 83 84 82 82 77 76 63 59 57 53 48 39 31 34 12 8 8 10 22 19 14 12 11 10 10 11 15 12 11 10 9 10 11 12 12 13 13 13 12 12 14
94 95 97 93 90 85 86 87 78 80 73 65 63 58 53 35 27 20 15 13 8 5 30 17 14 12 10 10 8 11 10 10 10 8 10 10 11 11 11 12 10 10 10 12 15
96 97 99 99 95 92 90 88 82 78 79 74 68 63 53 44 30 20 16 14 5 16 18 12 12 11 11 10 9 9 8 8 8 8 7 9 10 10 9 9 9 8 8 12 14
99 96 100 99 97 95 95 95 88 83 79 77 70 66 48 42 26 18 22 26 26 22 16 12 10 8 9 10 10 8 8 9 9 9 7 8 8 8 8 8 8 10 11 11 11
99 100 100 99 100 99 100 99 99 94 86 79 72 57 52 44 33 24 23 16 17 17 14 13 14 16 15 13 11 11 12 10 9 7 7 7 8 10 9 8 9 12 11 10 10
98 100 100 100 100 100 100 100 100 92 88 80 68 40 51 40 33 24 21 19 18 14 15 15 17 17 14 12 11 12 12 16 10 9 8 8 12 10 8 9 10 11 10 9 9
100 96 100 99 100 100 100 100 99 96 90 77 59 64 51 28 23 22 16 14 13 18 16 16 16 16 14 14 17 17 20 16 12 8 8 9 12 9 8 7 9 11 9 9 10
83 81 96 99 100 100 100 98 99 93 78 67 72 59 43 22 18 24 19 21 12 18 18 20 18 16 14 16 22 18 17 15 15 9 8 9 10 8 8 8 9 8 8 10 9
51 58 92 99 100 99 100 100 80 77 77 55 46 42 38 31 27 23 21 23 13 15 20 17 21 21 17 15 14 15 15 16 14 12 11 12 10 9 8 10 8 8 7 9 9
82 70 71 93 100 100 100 98 69 64 66 58 54 47 40 32 30 27 20 25 23 20 15 18 22 16 15 16 16 14 16 19 16 11 11 11 12 10 10 9 8 8 11 27 32
88 84 97 94 99 100 98 97 87 65 54 46 38 34 33 32 32 27 23 19 20 21 21 24 19 14 15 15 16 16 18 19 16 12 11 13 15 13 10 10 9 16 28 37 42
98 92 100 97 100 100 99 89 77 62 57 24 25 28 31 27 25 24 24 19 19 21 18 18 14 15 15 15 14 19 14 14 14 17 21 13 22 15 13 12 12 32 41 44 45
100 100 84 92 93 98 92 91 71 59 56 15 22 20 20 24 16 16 24 15 20 22 18 20 16 15 15 15 15 16 13 16 17 20 21 20 22 19 16 17 44 41 44 46 49
93 99 99 100 99 94 84 75 60 72 67 23 19 19 21 20 15 15 15 15 14 15 14 14 11 13 14 14 13 13 16 17 18 21 33 23 22 21 32 42 45 41 44 50 56
100 99 98 100 98 97 84 63 97 83 21 23 24 21 22 20 16 15 18 18 19 26 26 18 17 13 13 18 16 16 23 38 39 39 39 21 22 50 44 43 44 48 52 58 63
99 100 99 99 99 95 68 83 96 33 33 16 19 20 25 19 18 18 18 21 18 19 22 26 30 19 16 19 22 22 21 35 44 46 38 22 27 45 38 43 51 53 56 63 70
94 100 99 100 100 95 81 100 65 36 25 22 20 23 23 20 20 20 22 22 17 16 26 30 27 14 16 17 18 24 28 18 31 27 40 29 21 44 52 55 55 57 60 67 75
100 100 99 100 100 86 94 91 49 31 30 28 29 23 27 23 27 25 24 19 21 18 19 26 37 21 19 15 17 22 20 38 33 49 51 30 33 85 87 75 66 65 67 71 81
100 99 98 100 100 99 97 81 54 38 35 26 28 25 23 23 22 26 24 20 19 21 20 19 24 25 21 23 22 24 31 30 30 34 52 60 68 91 91 85 77 66 67 73 86
98 100 100 100 99 97 93 59 46 46 39 24 22 24 24 22 24 25 26 22 19 18 27 22 31 45 34 20 16 18 21 25 57 52 36 45 74 71 78 68 65 68 73 78 89
98 99 100 100 96 96 80 61 50 41 30 23 24 23 23 24 30 25 23 29 24 24 31 26 37 49 34 28 21 21 29 31 34 56 61 72 81 71 66 64 74 79 83 86 98
91 98 99 100 100 80 82 66 57 41 32 24 23 23 26 27 23 31 26 35 35 31 36 44 44 58 53 51 45 66 80 43 42 58 52 60 93 80 72 71 79 85 91 97 98
86 85 73 96 94 87 74 53 53 56 30 23 25 26 28 35 29 30 26 41 39 38 38 37 53 59 49 38 31 40 43 38 62 50 70 79 89 82 81 84 94 93 97 98 98
94 60 64 50 67 86 96 89 55 42 32 30 30 26 27 32 28 36 31 36 56 40 46 38 56 69 74 45 45 54 52 44 60 68 80 82 76 74 88 97 92 96 98 98 97
82 58 55 54 63 86 79 69 52 45 32 26 26 31 32 27 25 29 26 25 35 42 50 57 78 70 68 49 54 70 76 74 69 61 60 75 74 83 89 89 95 97 98 97 98

GFSSW_850_rhum_126.txt.gz
RH
81 80 80 81 81 80 75 72 71 69 66 62 56 51 46 38 28 16 11 8 9 8 7 12 16 17 18 18 16 16 30 36 27 21 17 13 13 11 11 12 12 14 13 14 15
86 82 80 80 83 83 82 77 74 72 69 66 62 55 48 38 30 22 12 10 17 9 16 19 17 16 15 16 15 19 33 29 23 20 17 14 12 12 12 13 13 12 12 10 16
92 86 82 80 82 85 88 85 79 76 73 69 66 60 53 42 34 27 24 24 20 15 15 18 17 16 13 12 12 14 22 20 18 14 16 12 10 9 11 14 11 10 10 9 11
88 84 84 85 84 84 86 87 85 82 78 75 73 63 58 48 45 34 26 22 23 15 10 18 15 15 14 15 12 15 12 13 12 11 10 12 9 9 9 10 9 9 9 9 9
89 88 88 88 89 87 87 85 86 84 84 79 78 70 60 52 43 34 27 28 24 19 16 16 13 11 13 12 11 13 12 12 12 11 11 10 10 11 10 9 9 8 8 8 11
99 98 96 97 92 91 97 89 89 92 88 82 79 74 67 58 41 33 30 29 25 22 21 20 17 15 14 15 18 15 15 13 11 11 12 12 11 10 9 8 8 7 8 8 12
100 100 97 92 92 91 89 78 82 91 92 93 87 78 72 53 42 38 34 27 29 21 19 17 16 16 18 20 16 15 16 15 13 12 13 12 14 13 9 9 8 9 9 11 15
97 100 93 93 93 82 83 75 86 99 96 97 92 83 74 53 45 40 33 23 23 19 18 16 16 15 17 17 17 18 18 21 16 13 13 13 21 13 9 9 10 10 11 16 50
72 86 100 95 87 97 91 99 99 95 94 97 92 78 68 50 30 20 21 24 18 13 14 17 15 17 17 22 25 22 27 25 22 16 14 14 14 12 10 10 10 12 12 43 51
51 67 63 100 94 92 100 100 100 94 96 95 86 75 56 46 26 25 22 22 22 20 14 18 19 24 27 27 34 26 26 24 26 18 18 18 18 15 11 11 12 13 27 50 55
42 53 64 82 98 97 99 98 100 84 88 71 62 53 33 32 32 27 26 24 20 22 26 22 31 38 31 27 22 23 25 27 24 18 21 22 21 14 12 25 41 51 54 57 61
40 45 68 68 81 96 100 94 83 65 74 66 62 66 56 51 51 50 39 22 24 29 19 23 36 28 26 26 28 28 31 31 21 18 18 20 20 16 25 52 54 58 61 62 60
58 61 80 79 86 99 89 78 87 79 67 64 54 54 51 51 57 48 48 30 31 38 34 29 25 22 24 27 29 27 29 24 24 21 18 19 22 18 35 49 56 63 65 66 68
77 72 99 97 100 91 87 95 84 69 75 57 55 42 50 48 55 39 42 39 28 31 29 32 25 27 28 31 24 26 19 21 22 26 33 21 38 26 43 57 58 65 69 70 67
88 82 89 95 90 98 69 77 86 63 52 22 34 33 37 48 23 26 39 37 39 28 28 36 27 24 24 22 17 23 18 22 22 28 29 28 34 28 49 66 68 65 71 75 75
99 90 92 100 90 81 83 85 76 82 85 41 23 24 32 26 18 22 25 21 21 26 24 29 22 19 20 17 18 19 23 30 30 34 45 28 33 37 76 69 69 68 74 80 80
94 100 98 87 96 84 91 84 95 94 39 37 29 26 29 32 27 18 20 22 26 29 32 27 23 19 17 21 19 21 34 57 58 63 56 32 37 76 71 67 69 73 80 85 85
83 94 100 100 86 80 94 92 99 63 54 30 27 28 32 28 28 29 24 28 24 24 34 38 40 22 20 22 27 28 36 56 63 68 57 34 45 84 64 65 69 75 78 80 84
82 83 100 99 100 100 89 99 82 60 40 37 28 35 35 31 29 28 31 32 26 26 36 41 35 23 20 19 25 27 37 31 42 43 58 47 88 67 66 74 77 74 89 93 86
85 98 98 97 100 96 95 86 87 47 39 39 48 37 45 36 37 33 35 29 26 28 27 34 45 29 21 20 22 26 27 45 66 59 60 50 52 89 92 85 73 80 92 93 86
92 98 97 99 99 100 98 98 65 48 44 50 51 54 39 36 32 38 38 25 32 28 26 26 39 36 24 28 31 34 37 39 49 55 63 76 76 88 90 90 85 74 82 96 91
97 98 97 99 97 100 96 89 62 58 49 50 50 51 41 38 38 40 40 32 25 26 30 30 48 54 41 32 28 31 37 46 64 51 57 53 64 80 87 85 75 77 81 91 98
98 92 100 100 98 97 94 73 70 63 55 54 62 53 47 38 38 38 42 39 28 32 41 39 51 68 51 46 51 55 59 61 68 70 64 71 77 88 88 78 77 84 92 92 100
98 99 98 100 94 76 81 80 77 62 66 59 62 58 45 37 39 41 47 46 39 44 34 36 56 63 53 48 58 61 51 47 72 99 75 84 82 96 88 75 78 88 94 94 92
100 95 84 96 98 88 73 67 77 75 61 56 69 69 53 47 54 50 59 51 49 40 39 52 56 72 62 55 53 57 60 54 66 54 90 78 84 87 86 83 81 93 99 94 96
100 98 89 84 75 92 82 79 72 67 68 67 72 69 64 55 47 58 63 60 58 51 50 55 69 83 82 56 64 70 59 57 65 67 80 90 94 85 89 87 98 100 95 97 86
95 99 68 82 83 90 83 71 80 72 68 56 65 62 53 42 33 32 35 42 53 65 66 70 79 88 85 62 71 87 76 71 75 63 56 74 74 93 94 87 96 100 97 90 63

GFSSW_850_rhum_129.txt.gz
RH
81 82 80 78 78 76 73 72 69 66 65 60 56 54 46 41 32 16 15 18 20 8 8 17 18 17 17 18 17 18 34 36 28 24 20 14 12 10 12 11 13 13 12 13 15
86 85 81 78 77 77 77 77 75 70 68 65 60 57 53 46 38 25 20 24 21 17 17 17 16 15 15 16 17 21 35 31 24 21 20 16 12 11 10 12 12 10 12 10 14
92 91 86 81 78 77 78 79 78 76 73 70 65 59 57 49 41 26 32 25 23 26 14 17 18 16 14 13 13 17 22 19 16 15 17 16 12 11 11 14 10 9 9 8 10
91 91 89 84 81 80 80 79 82 82 80 76 69 60 58 51 45 39 32 28 27 21 9 18 14 13 16 17 14 14 13 14 13 11 12 12 10 10 10 10 9 9 9 8 8
88 89 87 86 83 84 78 86 86 86 84 80 77 66 59 57 48 39 33 30 26 22 19 17 14 16 15 14 14 14 15 14 13 12 12 12 11 12 10 9 9 8 8 9 12
97 94 93 94 90 90 82 89 92 83 88 86 82 76 77 69 46 41 38 31 28 23 21 18 16 16 18 18 19 18 17 14 13 13 13 13 13 11 10 11 9 8 14 23 28
89 100 98 99 98 100 92 87 93 85 95 95 89 84 84 61 53 44 42 28 26 27 21 18 16 15 16 21 18 17 17 18 14 13 14 13 16 14 12 11 9 12 39 47 51
72 90 100 100 94 90 88 92 100 100 90 94 87 88 81 56 52 49 46 25 23 22 21 19 15 15 16 18 18 20 20 23 16 15 15 15 21 15 11 10 11 49 58 57 57
52 84 98 91 99 94 85 97 100 99 99 95 95 85 74 56 48 27 26 24 26 16 14 17 17 17 18 24 28 25 27 26 23 18 17 14 16 14 13 12 17 52 56 56 55
43 65 92 98 97 98 84 97 100 100 100 98 95 84 64 51 24 25 24 23 23 22 17 14 20 26 29 30 36 27 27 26 26 21 20 19 19 18 34 33 57 61 63 61 60
44 52 63 65 84 93 96 94 99 94 100 78 68 66 41 38 33 30 24 25 22 23 23 24 32 38 32 28 23 24 27 30 27 22 23 20 22 16 53 59 64 63 64 67 66
50 45 49 72 91 98 99 100 88 69 74 66 65 74 61 58 57 40 34 26 23 31 22 23 36 29 28 30 31 32 34 36 31 25 21 21 20 65 59 63 66 68 67 66 64
66 58 83 93 88 99 92 91 89 81 70 65 57 62 61 58 64 60 49 39 29 34 32 29 23 22 28 30 34 35 36 35 30 22 21 21 25 47 59 61 65 68 68 66 65
75 80 99 98 100 100 98 97 81 67 80 61 54 46 59 56 56 31 51 43 33 39 40 40 31 31 32 34 33 42 25 24 23 26 33 22 40 30 66 69 66 72 73 72 68
93 77 79 93 83 90 83 87 82 53 74 29 45 40 52 50 29 44 52 48 42 33 33 40 28 30 28 32 27 26 21 21 24 27 30 30 35 48 66 75 74 72 79 81 76
95 82 89 97 83 71 82 93 80 80 83 38 30 44 64 52 19 26 37 36 37 38 32 33 24 22 26 22 20 20 23 31 38 36 43 32 34 38 78 74 76 74 82 80 77
91 94 95 96 80 76 84 96 95 94 43 43 31 32 45 36 26 20 25 22 30 40 40 27 25 20 20 24 21 24 31 54 54 59 52 37 40 40 78 72 72 79 85 85 80
94 99 97 100 89 83 99 94 99 64 58 38 28 30 42 31 31 23 26 35 24 27 37 39 38 24 22 24 28 30 35 52 53 69 47 37 48 58 71 71 75 82 88 86 84
90 89 100 94 100 96 93 98 84 66 50 40 28 33 34 31 31 31 30 31 27 26 34 42 38 24 20 20 25 30 37 33 41 48 61 48 71 70 72 79 79 82 91 94 89
89 92 100 99 100 99 95 78 83 59 44 41 44 36 42 38 37 34 37 29 27 28 27 32 41 31 23 21 24 27 29 48 66 61 63 52 48 70 92 88 81 85 95 93 89
98 99 94 94 100 100 97 87 75 60 51 52 50 55 45 40 39 42 37 27 31 31 28 32 40 37 26 29 34 34 36 41 50 53 61 54 71 75 84 87 86 82 91 91 89
100 98 91 88 97 100 97 76 65 59 53 53 50 55 52 37 40 42 43 34 30 29 32 30 48 51 37 31 33 30 40 46 71 51 60 60 56 81 87 87 77 79 85 89 88
99 90 98 100 97 98 87 80 72 68 62 58 61 54 51 45 43 43 42 43 34 33 39 41 49 66 50 44 44 42 57 50 64 76 70 72 69 85 89 82 78 85 88 87 87
100 99 98 100 81 76 81 81 77 66 69 62 66 59 56 39 41 43 41 55 44 46 39 38 52 60 55 48 54 62 57 61 60 95 73 74 66 96 98 90 87 90 89 90 92
100 98 78 98 96 90 74 72 73 76 65 62 66 70 63 69 52 52 55 49 46 44 42 47 47 72 60 52 53 57 58 55 71 58 78 55 72 78 89 87 88 88 92 93 92
99 98 96 85 75 86 88 74 79 73 76 69 79 72 69 64 54 65 64 58 48 53 47 56 70 80 76 55 61 70 65 58 68 63 68 78 63 78 86 83 92 92 96 95 80
99 86 84 81 86 90 76 75 69 68 64 59 66 70 80 77 57 43 43 54 58 63 64 66 82 84 77 68 69 83 71 73 77 68 62 73 59 94 96 89 98 96 92 91 59

GFSSW_850_rhum_132.txt.gz
RH
79 81 82 81 77 74 71 70 68 67 65 62 60 55 49 43 38 24 23 24 23 16 17 18 17 16 17 18 17 19 35 34 27 28 22 15 15 12 11 10 13 12 12 12 12
85 87 85 81 77 75 72 72 73 70 69 66 63 59 53 48 39 28 30 27 24 26 16 14 15 14 14 16 16 23 36 31 25 22 21 18 15 13 12 11 13 11 11 10 11
87 88 89 86 83 79 76 74 77 73 71 69 67 61 55 50 41 28 35 29 29 27 15 14 16 15 14 13 14 19 24 21 16 15 13 17 12 11 12 12 10 10 9 11 16
88 87 88 87 85 81 79 80 78 78 74 72 70 64 60 52 46 39 36 32 27 19 10 17 13 12 16 16 14 13 13 15 14 13 14 13 12 11 11 10 10 10 13 13 19
84 84 83 84 82 80 81 85 80 76 85 72 71 70 65 61 49 44 36 34 25 23 18 16 15 16 19 17 16 14 16 16 15 14 14 13 13 13 11 10 10 13 17 32 42
88 90 87 90 82 87 88 91 87 84 82 72 82 74 84 76 48 45 40 34 29 25 21 17 16 16 18 20 20 19 18 18 15 14 14 14 14 12 13 13 22 28 46 51 51
99 99 85 99 94 89 94 99 94 81 79 80 79 84 86 64 56 53 42 32 29 27 22 19 16 16 16 20 19 18 20 19 16 14 14 14 16 14 14 23 50 56 59 55 54
100 89 83 99 94 99 100 100 98 100 99 97 92 93 83 57 57 48 47 43 26 24 21 20 16 16 16 18 19 21 22 24 17 18 15 15 19 15 20 25 61 58 56 53 54
90 93 81 78 100 99 100 97 88 93 98 99 96 91 78 58 55 51 48 36 25 17 15 17 17 18 19 25 28 28 28 26 24 19 18 19 19 27 28 40 65 64 61 58 56
81 68 74 58 100 99 100 100 94 98 98 99 96 89 62 56 37 24 26 27 24 21 18 15 20 29 31 30 32 29 27 27 26 20 24 23 24 44 57 57 68 66 63 60 57
44 50 50 52 92 100 100 100 94 88 100 87 70 67 56 44 38 27 23 24 22 23 26 26 31 36 30 27 24 24 27 30 28 24 25 28 25 61 62 64 69 70 68 66 63
39 52 42 49 64 71 96 98 93 74 76 69 70 79 67 65 46 35 24 30 23 30 23 26 35 29 28 30 29 32 34 39 33 28 29 28 26 65 66 69 69 70 73 71 64
82 60 51 66 98 98 95 99 96 86 71 65 60 59 54 52 69 54 52 28 27 32 30 34 26 27 28 30 35 36 39 37 37 24 22 22 29 67 65 67 68 71 72 70 69
99 86 68 95 98 95 92 94 78 74 79 66 59 53 65 62 61 56 60 48 34 48 40 37 30 30 32 33 34 41 34 35 32 26 34 24 41 33 72 72 68 72 70 69 66
100 88 83 94 86 88 83 82 78 60 80 32 50 50 59 57 37 52 52 51 48 39 41 44 30 35 36 36 34 38 23 23 24 27 31 31 37 43 74 78 76 73 75 75 73
99 100 95 99 86 77 87 82 73 75 81 35 50 60 69 59 26 47 50 49 46 39 35 36 26 24 28 24 20 23 22 31 42 38 48 36 36 40 80 66 77 75 79 78 75
100 99 99 99 87 72 88 98 91 92 43 39 35 62 66 59 26 24 32 29 42 60 58 35 35 24 23 28 22 25 32 55 57 56 49 38 42 34 69 70 68 74 81 80 77
98 100 97 94 82 82 92 90 95 64 61 41 29 40 58 36 30 23 32 35 24 31 41 47 38 28 23 26 29 32 37 52 51 62 50 40 51 42 72 68 72 74 78 80 74
94 96 100 94 89 97 96 93 77 70 54 44 30 35 40 32 36 25 33 40 34 28 38 41 35 25 22 23 26 33 39 34 41 48 64 43 43 72 77 82 85 86 89 82 79
94 98 98 96 96 100 94 78 82 58 47 42 42 36 46 39 35 38 36 30 27 30 27 33 38 31 24 22 26 28 32 50 67 63 63 55 51 54 90 87 88 90 90 89 87
100 99 95 99 100 100 97 86 72 62 56 50 50 52 42 40 39 41 38 30 32 33 27 39 38 36 25 30 36 34 38 46 51 54 68 62 71 70 70 81 89 87 87 88 89
100 99 91 92 98 100 98 84 67 61 54 57 52 56 55 39 43 45 43 36 37 34 35 34 50 54 38 36 37 31 36 47 71 50 59 69 57 86 88 89 80 84 88 91 88
100 85 98 100 97 95 90 79 71 70 63 64 61 55 49 46 51 44 42 47 41 33 38 42 47 64 52 43 43 38 44 45 65 72 52 75 65 85 89 83 76 83 89 89 82
100 99 99 99 87 84 77 80 78 67 68 61 65 60 48 48 44 44 42 51 44 53 49 40 50 60 54 49 55 61 58 63 62 80 51 58 58 72 96 89 86 86 88 87 82
100 98 80 98 95 88 73 71 78 77 68 65 68 71 70 69 47 50 52 45 42 45 44 47 45 68 55 47 50 50 56 60 73 52 69 54 63 49 78 89 84 86 92 88 88
98 99 94 88 79 86 83 76 77 66 79 77 74 76 63 69 61 61 60 50 42 48 45 56 76 77 70 52 55 66 69 65 61 63 69 69 65 49 58 78 93 91 94 90 84
97 90 90 80 88 90 76 72 72 72 66 63 68 71 82 76 65 53 43 44 53 62 62 74 88 83 83 63 66 78 76 67 76 68 58 66 54 87 96 90 96 96 89 88 71

GFSSW_850_rhum_135.txt.gz
RH
72 76 80 80 80 76 73 71 67 63 60 58 55 56 53 44 41 36 22 26 25 25 16 15 15 15 17 19 18 20 23 26 25 23 21 16 15 12 12 12 13 12 13 11 12
76 81 84 84 81 79 77 74 70 66 62 60 56 56 55 49 40 37 29 30 30 27 24 13 15 14 14 16 17 21 25 25 22 22 15 16 16 14 12 12 13 11 12 13 11
78 83 86 85 85 83 83 77 72 70 65 62 60 56 58 53 43 31 35 32 28 23 19 15 14 14 14 14 15 20 21 21 16 17 14 15 12 11 12 10 15 14 14 12 17
84 87 87 86 86 85 83 81 76 74 66 59 65 62 61 56 45 38 40 34 25 22 14 16 14 13 16 15 14 14 15 15 14 15 15 14 12 12 11 29 21 18 18 21 20
89 89 91 89 86 84 84 83 80 76 73 68 70 67 63 64 52 46 42 36 27 24 18 16 15 15 17 16 17 14 17 18 16 16 15 15 14 14 22 25 27 28 26 29 38
93 87 84 84 83 87 87 92 89 85 79 66 63 66 75 80 54 47 44 38 28 25 21 16 16 16 19 21 19 20 19 18 16 16 15 15 15 14 38 39 35 36 49 53 52
98 96 96 88 82 80 92 97 95 93 88 76 71 76 78 55 54 55 53 43 30 25 23 19 16 16 16 20 19 20 18 16 16 16 14 15 15 24 57 49 55 57 57 55 53
99 99 98 99 82 78 89 100 100 98 93 82 85 88 77 53 52 55 54 49 42 27 21 21 17 16 17 18 20 19 21 19 16 18 17 16 18 38 60 53 61 63 64 60 57
100 100 100 99 99 84 89 100 100 95 86 82 86 94 73 58 52 53 58 53 40 19 16 18 18 19 20 21 22 24 22 24 20 20 17 19 21 48 56 58 62 65 66 63 59
95 98 100 97 100 86 100 100 100 97 89 87 95 90 65 59 54 31 42 46 22 19 17 15 20 24 24 22 22 26 25 25 24 19 20 23 22 50 60 58 64 65 67 65 60
79 66 80 85 77 71 100 100 99 95 86 71 78 67 58 47 44 29 28 34 22 24 26 26 21 24 25 25 24 24 26 27 25 22 26 26 24 33 60 61 62 64 66 67 59
73 48 45 57 63 84 99 99 96 80 83 73 71 81 75 69 68 41 24 26 24 32 24 27 32 26 25 26 26 30 32 32 29 27 28 24 24 44 55 60 64 66 68 69 60
74 81 60 58 64 80 89 92 96 91 78 69 60 61 62 60 67 58 43 27 29 32 29 40 31 27 26 29 31 33 33 34 31 27 21 22 21 42 56 61 67 72 74 70 68
82 95 83 71 92 94 99 99 94 77 72 58 59 58 69 60 65 40 54 36 33 48 34 34 29 26 28 29 29 38 30 30 33 26 27 23 27 24 49 54 58 65 71 74 68
96 96 87 79 95 96 86 82 79 64 33 31 55 55 66 59 47 56 61 54 53 42 36 35 34 38 40 36 31 33 30 27 24 25 28 26 26 31 59 45 48 58 68 73 67
99 98 97 97 89 76 78 80 78 66 45 34 57 64 70 63 40 53 56 54 52 38 34 36 29 26 26 27 28 25 24 30 35 30 36 27 26 21 38 36 53 59 70 75 70
98 97 97 99 84 78 85 94 83 86 41 37 49 70 68 69 50 34 54 44 58 70 64 46 42 27 25 31 24 25 31 41 40 41 36 31 31 23 31 52 52 55 71 77 73
95 99 100 88 93 79 91 91 93 58 60 41 33 67 64 47 34 27 46 38 27 32 50 48 36 32 26 36 40 32 33 39 45 41 30 37 36 26 50 60 69 72 77 79 75
94 97 100 96 79 93 96 94 66 65 52 45 32 44 53 36 37 26 41 43 32 29 37 37 32 25 24 24 25 34 33 31 34 43 45 29 30 43 65 65 70 72 81 85 77
96 100 99 92 94 99 97 80 69 57 50 44 38 36 48 41 40 34 34 32 31 29 30 37 37 31 25 23 27 31 28 41 46 50 46 33 34 41 64 56 67 72 79 90 78
99 99 83 93 100 100 97 74 68 59 58 52 49 50 40 43 40 43 40 33 31 32 28 35 35 36 27 30 30 32 36 41 40 41 44 48 60 75 68 58 66 71 83 87 79
98 96 87 98 99 99 97 78 59 64 56 57 53 57 53 45 45 42 42 38 42 32 31 36 48 43 34 34 35 31 34 38 47 41 42 48 58 62 69 77 72 75 81 84 79
98 94 94 81 97 98 86 86 70 68 63 63 61 54 50 44 51 46 45 51 41 36 40 42 43 48 42 37 38 36 37 42 53 54 44 58 63 75 79 72 74 74 81 88 82
99 99 100 100 98 78 89 83 85 68 65 61 62 58 56 57 48 51 44 48 48 57 42 41 47 62 46 42 45 49 48 47 43 52 40 52 56 50 54 59 67 77 83 90 86
95 99 83 95 95 95 70 70 79 78 65 64 69 69 63 64 53 54 49 44 43 45 45 50 46 64 50 44 43 44 46 52 64 43 55 51 53 51 51 55 62 77 93 96 86
97 98 98 88 76 87 87 78 70 70 77 75 75 74 69 72 61 65 58 46 44 47 47 54 66 67 70 47 48 59 56 50 65 58 65 65 58 42 42 64 78 87 94 94 88
96 87 76 83 84 86 81 78 72 65 70 63 69 74 79 72 66 64 54 47 45 53 57 65 84 86 73 55 56 69 62 65 54 50 48 50 37 47 62 73 84 94 94 91 84

GFSSW_850_rhum_138.txt.gz
RH
67 71 77 79 81 78 73 68 65 60 57 54 50 48 47 46 46 38 21 28 28 27 23 14 16 15 17 18 18 18 17 18 18 17 16 13 12 11 12 10 12 14 24 37 43
70 76 84 84 85 81 79 74 70 64 59 57 51 47 47 49 48 38 30 32 31 23 21 19 16 15 14 15 15 15 18 18 16 16 13 12 11 10 10 10 11 25 38 41 41
75 79 85 88 90 88 83 80 73 70 65 59 54 49 49 50 48 32 30 34 31 22 18 17 15 14 14 13 13 14 18 16 13 13 12 11 11 10 10 10 19 20 38 40 32
78 81 85 88 90 90 86 82 76 72 68 64 60 54 53 53 42 35 40 38 29 23 17 16 15 14 13 13 12 13 12 12 11 13 12 12 12 11 15 32 35 40 42 43 44
84 86 88 87 87 88 88 86 80 74 71 71 66 55 54 64 55 52 46 37 28 22 18 17 16 15 14 13 13 12 12 12 13 13 13 13 12 12 28 38 42 44 44 46 47
99 95 91 88 86 86 89 85 85 82 79 78 70 58 70 55 56 52 46 41 30 23 19 16 16 16 16 15 14 16 14 14 14 13 13 13 12 15 37 39 40 43 46 49 52
100 100 96 90 93 92 93 96 83 89 97 88 83 67 64 58 52 50 53 49 33 27 21 18 17 16 17 16 18 16 15 12 12 13 13 13 13 23 38 38 40 43 48 52 52
94 96 98 97 98 100 98 94 86 90 99 95 83 66 68 54 52 50 56 57 47 30 23 21 18 18 18 18 15 14 16 13 13 13 14 13 15 27 37 35 38 44 48 51 54
100 98 100 96 94 100 96 93 100 100 97 95 84 77 57 58 54 48 54 57 48 27 18 18 20 19 18 15 15 16 10 15 14 14 14 15 17 28 37 35 38 42 46 49 51
100 100 100 100 100 100 100 99 99 100 99 97 88 81 62 52 55 40 28 48 24 20 19 19 18 16 14 13 14 14 15 15 14 14 15 15 15 26 34 33 36 39 44 46 48
99 94 92 94 91 95 99 100 100 98 100 76 65 62 59 56 45 28 44 28 24 26 27 22 23 20 15 16 16 16 18 17 14 15 21 19 17 15 32 34 37 38 41 45 50
91 67 83 75 72 79 88 100 98 82 75 77 75 74 74 69 62 44 31 26 25 28 25 26 25 19 19 18 19 20 20 19 18 18 23 19 18 15 30 29 33 36 41 45 50
87 76 66 72 62 82 92 96 99 90 84 71 68 67 63 72 60 53 28 26 26 29 28 30 26 21 20 21 22 21 21 20 23 20 19 19 17 15 26 34 39 44 45 52 54
87 75 79 79 81 97 91 80 93 75 62 39 52 56 63 60 52 51 50 26 27 31 31 34 30 32 28 22 20 22 20 22 23 25 21 17 20 14 21 27 35 38 47 49 55
86 93 96 86 91 92 80 67 84 63 44 23 42 56 63 49 42 50 50 43 37 38 37 29 28 29 30 25 24 26 24 24 22 22 24 20 23 15 21 19 19 30 40 50 59
91 94 94 99 92 91 74 81 80 52 25 29 42 49 54 49 33 50 51 46 42 39 36 31 26 22 20 23 24 19 22 24 25 24 29 18 20 15 17 16 20 25 38 50 58
89 97 100 96 93 74 80 92 67 45 21 25 40 47 42 50 42 38 51 49 40 54 49 38 35 23 21 24 22 22 28 32 30 31 25 21 21 16 14 22 27 30 39 53 63
92 95 98 93 88 84 88 79 70 18 23 30 28 46 44 44 34 38 47 47 36 35 33 44 42 31 26 25 28 30 28 32 31 22 20 24 25 16 27 34 42 46 47 58 63
84 92 97 99 84 85 94 94 35 21 22 30 32 42 44 39 33 32 44 38 33 30 27 30 26 24 24 26 28 30 32 24 32 25 32 19 14 13 33 33 39 45 55 58 64
86 90 89 99 91 93 96 69 42 36 35 27 26 26 32 35 36 28 37 29 35 29 24 26 33 23 23 21 24 25 21 34 30 40 33 20 19 28 46 29 33 43 48 55 69
87 98 82 91 98 99 96 58 38 46 47 40 28 26 27 35 32 32 30 28 26 27 25 24 28 32 24 26 24 28 29 26 29 28 34 36 47 57 86 35 37 35 46 61 72
98 98 78 84 98 94 94 55 40 43 48 46 46 36 31 31 36 34 35 32 37 26 29 29 31 34 27 26 25 23 23 26 41 34 31 33 57 35 40 52 42 33 45 60 80
94 97 90 96 97 98 73 59 53 41 44 45 46 45 44 37 42 35 35 47 44 29 31 32 32 39 36 33 28 28 25 26 31 37 41 60 61 40 47 44 38 40 46 62 76
97 99 99 100 99 78 63 62 71 58 46 42 42 44 46 47 43 44 43 42 52 46 37 36 36 60 36 33 31 39 33 30 35 49 40 49 70 46 33 28 26 35 49 59 72
97 95 87 96 91 96 63 52 56 73 61 52 50 48 47 55 52 50 42 45 44 51 42 38 48 75 41 33 35 34 33 36 50 36 49 58 46 38 32 31 32 38 50 64 77
100 96 93 51 56 73 95 72 55 56 64 68 66 50 50 54 55 53 46 42 44 41 39 45 52 64 75 35 36 51 42 37 52 46 54 56 44 28 27 39 42 50 62 69 82
99 87 60 52 56 66 88 67 52 54 57 51 56 60 66 59 67 66 63 52 40 40 44 53 86 73 60 44 48 64 74 65 46 39 40 43 30 23 32 38 50 60 70 76 80